Wetterdaten: Mittwoch, 17.08.2016
Datum Zeit Temp. A. Feuchte A. Luftdruck Regen Wind Richtung Richtung Sonnenschein ET UV Solar Taupunkt Windchill Windben Empfang
17.08.2016 00:00 17,4 C 81 % 1010,4 hPa 0,0 l/m 3,3 km/h (1 Bft) NO 45 0 min 0,000 mm 0,0 UV-I 0 W/m 14,1 C 17,4 C 4,8 km/h (1 Bft) 100,00 %
17.08.2016 00:02 17,3 C 81 % 1010,4 hPa 0,0 l/m 2,7 km/h (1 Bft) NO 44 0 min 0,000 mm 0,0 UV-I 0 W/m 14,0 C 17,3 C 4,8 km/h (1 Bft) 95,35 %
17.08.2016 00:04 17,3 C 81 % 1010,5 hPa 0,0 l/m 0,8 km/h (0 Bft) NO 44 0 min 0,000 mm 0,0 UV-I 0 W/m 14,0 C 17,3 C 1,6 km/h (1 Bft) 100,00 %
17.08.2016 00:06 17,3 C 81 % 1010,6 hPa 0,0 l/m 0,6 km/h (0 Bft) NO 44 0 min 0,000 mm 0,0 UV-I 0 W/m 14,0 C 17,3 C 3,2 km/h (1 Bft) 100,00 %
17.08.2016 00:08 17,3 C 81 % 1010,6 hPa 0,0 l/m 3,6 km/h (1 Bft) NO 44 0 min 0,000 mm 0,0 UV-I 0 W/m 14,0 C 17,3 C 4,8 km/h (1 Bft) 100,00 %
17.08.2016 00:10 17,3 C 81 % 1010,6 hPa 0,0 l/m 2,9 km/h (1 Bft) NO 44 0 min 0,000 mm 0,0 UV-I 0 W/m 14,0 C 17,3 C 4,8 km/h (1 Bft) 100,00 %
17.08.2016 00:12 17,4 C 80 % 1010,6 hPa 0,0 l/m 3,8 km/h (1 Bft) NO 44 0 min 0,000 mm 0,0 UV-I 0 W/m 13,9 C 17,4 C 4,8 km/h (1 Bft) 98,00 %
17.08.2016 00:14 17,4 C 80 % 1010,6 hPa 0,0 l/m 3,9 km/h (1 Bft) NO 51 0 min 0,000 mm 0,0 UV-I 0 W/m 13,9 C 17,4 C 4,8 km/h (1 Bft) 100,00 %
17.08.2016 00:16 17,4 C 79 % 1010,5 hPa 0,0 l/m 4,2 km/h (1 Bft) NO 55 0 min 0,000 mm 0,0 UV-I 0 W/m 13,7 C 17,4 C 6,4 km/h (2 Bft) 97,62 %
17.08.2016 00:18 17,5 C 79 % 1010,6 hPa 0,0 l/m 4,6 km/h (1 Bft) O-NO 58 0 min 0,000 mm 0,0 UV-I 0 W/m 13,8 C 17,5 C 6,4 km/h (2 Bft) 97,87 %
17.08.2016 00:20 17,6 C 79 % 1010,6 hPa 0,0 l/m 2,9 km/h (1 Bft) NO 55 0 min 0,000 mm 0,0 UV-I 0 W/m 13,9 C 17,6 C 4,8 km/h (1 Bft) 100,00 %
17.08.2016 00:22 17,5 C 79 % 1010,6 hPa 0,0 l/m 1,2 km/h (1 Bft) NO 55 0 min 0,000 mm 0,0 UV-I 0 W/m 13,8 C 17,5 C 3,2 km/h (1 Bft) 100,00 %
17.08.2016 00:24 17,3 C 81 % 1010,6 hPa 0,0 l/m 0,5 km/h (0 Bft) NO 55 0 min 0,000 mm 0,0 UV-I 0 W/m 14,0 C 17,3 C 3,2 km/h (1 Bft) 100,00 %
17.08.2016 00:26 17,1 C 82 % 1010,5 hPa 0,0 l/m 2,1 km/h (1 Bft) NO 53 0 min 0,000 mm 0,0 UV-I 0 W/m 14,0 C 17,1 C 6,4 km/h (2 Bft) 100,00 %
17.08.2016 00:28 16,9 C 83 % 1010,5 hPa 0,0 l/m 5,1 km/h (1 Bft) NO 46 0 min 0,000 mm 0,0 UV-I 0 W/m 14,0 C 16,9 C 6,4 km/h (2 Bft) 100,00 %
17.08.2016 00:30 16,9 C 82 % 1010,5 hPa 0,0 l/m 3,1 km/h (1 Bft) NO 43 0 min 0,000 mm 0,0 UV-I 0 W/m 13,8 C 16,9 C 4,8 km/h (1 Bft) 98,11 %
17.08.2016 00:32 16,9 C 82 % 1010,6 hPa 0,0 l/m 1,1 km/h (1 Bft) NO 43 0 min 0,000 mm 0,0 UV-I 0 W/m 13,8 C 16,9 C 3,2 km/h (1 Bft) 100,00 %
17.08.2016 00:34 16,9 C 82 % 1010,6 hPa 0,0 l/m 0,2 km/h (0 Bft) NO 43 0 min 0,000 mm 0,0 UV-I 0 W/m 13,8 C 16,9 C 1,6 km/h (1 Bft) 100,00 %
17.08.2016 00:36 17,0 C 83 % 1010,6 hPa 0,0 l/m 0,1 km/h (0 Bft) NO 43 0 min 0,000 mm 0,0 UV-I 0 W/m 14,1 C 17,0 C 1,6 km/h (1 Bft) 100,00 %
17.08.2016 00:38 16,9 C 82 % 1010,6 hPa 0,0 l/m 0,0 km/h (0 Bft) NO 43 0 min 0,000 mm 0,0 UV-I 0 W/m 13,8 C 16,9 C 1,6 km/h (1 Bft) 95,74 %
17.08.2016 00:40 16,8 C 83 % 1010,5 hPa 0,0 l/m 0,4 km/h (0 Bft) NO 36 0 min 0,000 mm 0,0 UV-I 0 W/m 13,9 C 16,8 C 1,6 km/h (1 Bft) 100,00 %
17.08.2016 00:42 16,7 C 83 % 1010,5 hPa 0,0 l/m 0,8 km/h (0 Bft) N-NO 26 0 min 0,000 mm 0,0 UV-I 0 W/m 13,8 C 16,7 C 1,6 km/h (1 Bft) 100,00 %
17.08.2016 00:44 16,6 C 83 % 1010,5 hPa 0,0 l/m 5,0 km/h (1 Bft) N-NO 33 0 min 0,000 mm 0,0 UV-I 0 W/m 13,7 C 16,6 C 8,0 km/h (2 Bft) 97,87 %
17.08.2016 00:46 16,6 C 83 % 1010,5 hPa 0,0 l/m 5,2 km/h (1 Bft) NO 41 0 min 0,000 mm 0,0 UV-I 0 W/m 13,7 C 16,6 C 9,7 km/h (2 Bft) 97,56 %
17.08.2016 00:48 16,7 C 83 % 1010,5 hPa 0,0 l/m 5,2 km/h (1 Bft) NO 36 0 min 0,000 mm 0,0 UV-I 0 W/m 13,8 C 16,7 C 8,0 km/h (2 Bft) 100,00 %
17.08.2016 00:50 16,7 C 83 % 1010,6 hPa 0,0 l/m 3,0 km/h (1 Bft) N 10 0 min 0,000 mm 0,0 UV-I 0 W/m 13,8 C 16,7 C 6,4 km/h (2 Bft) 100,00 %
17.08.2016 00:52 16,7 C 84 % 1010,6 hPa 0,0 l/m 1,5 km/h (1 Bft) N 5 0 min 0,000 mm 0,0 UV-I 0 W/m 14,0 C 16,7 C 3,2 km/h (1 Bft) 100,00 %
17.08.2016 00:54 16,7 C 84 % 1010,6 hPa 0,0 l/m 1,3 km/h (1 Bft) N 5 0 min 0,000 mm 0,0 UV-I 0 W/m 14,0 C 16,7 C 3,2 km/h (1 Bft) 98,00 %
17.08.2016 00:56 16,6 C 84 % 1010,5 hPa 0,0 l/m 4,0 km/h (1 Bft) NO 55 0 min 0,000 mm 0,0 UV-I 0 W/m 13,9 C 16,6 C 6,4 km/h (2 Bft) 98,00 %
17.08.2016 00:58 16,6 C 83 % 1010,4 hPa 0,0 l/m 5,8 km/h (2 Bft) O-NO 57 0 min 0,000 mm 0,0 UV-I 0 W/m 13,7 C 16,6 C 8,0 km/h (2 Bft) 97,62 %
17.08.2016 01:00 16,7 C 83 % 1010,4 hPa 0,0 l/m 3,8 km/h (1 Bft) NO 56 0 min 0,000 mm 0,0 UV-I 0 W/m 13,8 C 16,7 C 4,8 km/h (1 Bft) 93,75 %
17.08.2016 01:02 16,8 C 83 % 1010,5 hPa 0,0 l/m 2,9 km/h (1 Bft) NO 46 0 min 0,000 mm 0,0 UV-I 0 W/m 13,9 C 16,8 C 4,8 km/h (1 Bft) 98,00 %
17.08.2016 01:04 16,8 C 83 % 1010,5 hPa 0,0 l/m 0,9 km/h (0 Bft) N 349 0 min 0,000 mm 0,0 UV-I 0 W/m 13,9 C 16,8 C 1,6 km/h (1 Bft) 97,14 %
17.08.2016 01:06 16,8 C 84 % 1010,5 hPa 0,0 l/m 0,1 km/h (0 Bft) N 349 0 min 0,000 mm 0,0 UV-I 0 W/m 14,1 C 16,8 C 1,6 km/h (1 Bft) 98,00 %
17.08.2016 01:08 16,7 C 84 % 1010,5 hPa 0,0 l/m 0,0 km/h (0 Bft) N 349 0 min 0,000 mm 0,0 UV-I 0 W/m 14,0 C 16,7 C 1,6 km/h (1 Bft) 98,11 %
17.08.2016 01:10 16,6 C 85 % 1010,5 hPa 0,0 l/m 1,8 km/h (1 Bft) N 355 0 min 0,000 mm 0,0 UV-I 0 W/m 14,1 C 16,6 C 4,8 km/h (1 Bft) 97,87 %
17.08.2016 01:12 16,5 C 85 % 1010,4 hPa 0,0 l/m 5,7 km/h (1 Bft) NO 41 0 min 0,000 mm 0,0 UV-I 0 W/m 14,0 C 16,5 C 8,0 km/h (2 Bft) 97,87 %
17.08.2016 01:14 16,6 C 84 % 1010,4 hPa 0,0 l/m 6,5 km/h (2 Bft) NO 42 0 min 0,000 mm 0,0 UV-I 0 W/m 13,9 C 16,6 C 8,0 km/h (2 Bft) 97,87 %
17.08.2016 01:16 16,6 C 84 % 1010,4 hPa 0,0 l/m 3,3 km/h (1 Bft) N-NO 13 0 min 0,000 mm 0,0 UV-I 0 W/m 13,9 C 16,6 C 6,4 km/h (2 Bft) 97,87 %
17.08.2016 01:18 16,7 C 83 % 1010,5 hPa 0,0 l/m 4,4 km/h (1 Bft) N-NO 22 0 min 0,000 mm 0,0 UV-I 0 W/m 13,8 C 16,7 C 8,0 km/h (2 Bft) 95,74 %
17.08.2016 01:20 16,7 C 83 % 1010,5 hPa 0,0 l/m 1,3 km/h (1 Bft) N-NO 22 0 min 0,000 mm 0,0 UV-I 0 W/m 13,8 C 16,7 C 4,8 km/h (1 Bft) 95,74 %
17.08.2016 01:22 16,7 C 83 % 1010,5 hPa 0,0 l/m 0,5 km/h (0 Bft) N-NO 22 0 min 0,000 mm 0,0 UV-I 0 W/m 13,8 C 16,7 C 1,6 km/h (1 Bft) 97,37 %
17.08.2016 01:24 16,7 C 83 % 1010,4 hPa 0,0 l/m 1,8 km/h (1 Bft) N-NO 22 0 min 0,000 mm 0,0 UV-I 0 W/m 13,8 C 16,7 C 3,2 km/h (1 Bft) 95,74 %
17.08.2016 01:26 16,7 C 82 % 1010,5 hPa 0,0 l/m 2,7 km/h (1 Bft) N-NO 22 0 min 0,000 mm 0,0 UV-I 0 W/m 13,6 C 16,7 C 3,2 km/h (1 Bft) 98,00 %
17.08.2016 01:28 16,8 C 82 % 1010,5 hPa 0,0 l/m 2,7 km/h (1 Bft) N-NO 22 0 min 0,000 mm 0,0 UV-I 0 W/m 13,7 C 16,8 C 4,8 km/h (1 Bft) 98,11 %
17.08.2016 01:30 16,8 C 82 % 1010,7 hPa 0,0 l/m 0,6 km/h (0 Bft) N-NO 13 0 min 0,000 mm 0,0 UV-I 0 W/m 13,7 C 16,8 C 1,6 km/h (1 Bft) 97,87 %
17.08.2016 01:32 16,8 C 82 % 1010,6 hPa 0,0 l/m 0,9 km/h (0 Bft) N 9 0 min 0,000 mm 0,0 UV-I 0 W/m 13,7 C 16,8 C 3,2 km/h (1 Bft) 100,00 %
17.08.2016 01:34 16,7 C 83 % 1010,6 hPa 0,0 l/m 1,1 km/h (1 Bft) N 9 0 min 0,000 mm 0,0 UV-I 0 W/m 13,8 C 16,7 C 3,2 km/h (1 Bft) 100,00 %
17.08.2016 01:36 16,7 C 82 % 1010,6 hPa 0,0 l/m 3,1 km/h (1 Bft) N 11 0 min 0,000 mm 0,0 UV-I 0 W/m 13,6 C 16,7 C 4,8 km/h (1 Bft) 100,00 %
17.08.2016 01:38 16,6 C 83 % 1010,6 hPa 0,0 l/m 1,7 km/h (1 Bft) N 351 0 min 0,000 mm 0,0 UV-I 0 W/m 13,7 C 16,6 C 3,2 km/h (1 Bft) 100,00 %
17.08.2016 01:40 16,5 C 83 % 1010,6 hPa 0,0 l/m 0,7 km/h (0 Bft) N 355 0 min 0,000 mm 0,0 UV-I 0 W/m 13,6 C 16,5 C 3,2 km/h (1 Bft) 100,00 %
17.08.2016 01:42 16,4 C 83 % 1010,5 hPa 0,0 l/m 1,6 km/h (1 Bft) N 5 0 min 0,000 mm 0,0 UV-I 0 W/m 13,5 C 16,4 C 4,8 km/h (1 Bft) 100,00 %
17.08.2016 01:44 16,3 C 83 % 1010,5 hPa 0,0 l/m 3,7 km/h (1 Bft) N-NO 20 0 min 0,000 mm 0,0 UV-I 0 W/m 13,4 C 16,3 C 6,4 km/h (2 Bft) 98,00 %
17.08.2016 01:46 16,3 C 82 % 1010,5 hPa 0,0 l/m 5,9 km/h (2 Bft) N-NO 16 0 min 0,000 mm 0,0 UV-I 0 W/m 13,2 C 16,3 C 8,0 km/h (2 Bft) 100,00 %
17.08.2016 01:48 16,4 C 82 % 1010,6 hPa 0,0 l/m 5,0 km/h (1 Bft) N-NO 16 0 min 0,000 mm 0,0 UV-I 0 W/m 13,3 C 16,4 C 8,0 km/h (2 Bft) 100,00 %
17.08.2016 01:50 16,5 C 82 % 1010,6 hPa 0,0 l/m 2,5 km/h (1 Bft) N-NO 19 0 min 0,000 mm 0,0 UV-I 0 W/m 13,4 C 16,5 C 8,0 km/h (2 Bft) 100,00 %
17.08.2016 01:52 16,5 C 82 % 1010,6 hPa 0,0 l/m 2,6 km/h (1 Bft) N-NO 18 0 min 0,000 mm 0,0 UV-I 0 W/m 13,4 C 16,5 C 3,2 km/h (1 Bft) 100,00 %
17.08.2016 01:54 16,4 C 82 % 1010,7 hPa 0,0 l/m 1,4 km/h (1 Bft) N 11 0 min 0,000 mm 0,0 UV-I 0 W/m 13,3 C 16,4 C 3,2 km/h (1 Bft) 100,00 %
17.08.2016 01:56 16,4 C 83 % 1010,6 hPa 0,0 l/m 1,0 km/h (0 Bft) N-NO 15 0 min 0,000 mm 0,0 UV-I 0 W/m 13,5 C 16,4 C 3,2 km/h (1 Bft) 100,00 %
17.08.2016 01:58 16,4 C 83 % 1010,6 hPa 0,0 l/m 1,9 km/h (1 Bft) N 10 0 min 0,000 mm 0,0 UV-I 0 W/m 13,5 C 16,4 C 4,8 km/h (1 Bft) 97,87 %
17.08.2016 02:00 16,3 C 83 % 1010,6 hPa 0,0 l/m 3,7 km/h (1 Bft) N-NO 27 0 min 0,000 mm 0,0 UV-I 0 W/m 13,4 C 16,3 C 6,4 km/h (2 Bft) 100,00 %
17.08.2016 02:02 16,4 C 83 % 1010,5 hPa 0,0 l/m 4,0 km/h (1 Bft) N-NO 32 0 min 0,000 mm 0,0 UV-I 0 W/m 13,5 C 16,4 C 6,4 km/h (2 Bft) 97,87 %
17.08.2016 02:04 16,4 C 83 % 1010,5 hPa 0,0 l/m 3,0 km/h (1 Bft) N-NO 32 0 min 0,000 mm 0,0 UV-I 0 W/m 13,5 C 16,4 C 4,8 km/h (1 Bft) 100,00 %
17.08.2016 02:06 16,4 C 83 % 1010,5 hPa 0,0 l/m 2,4 km/h (1 Bft) N-NO 32 0 min 0,000 mm 0,0 UV-I 0 W/m 13,5 C 16,4 C 3,2 km/h (1 Bft) 100,00 %
17.08.2016 02:08 16,3 C 84 % 1010,5 hPa 0,0 l/m 2,2 km/h (1 Bft) N-NO 32 0 min 0,000 mm 0,0 UV-I 0 W/m 13,6 C 16,3 C 3,2 km/h (1 Bft) 100,00 %
17.08.2016 02:10 16,2 C 84 % 1010,5 hPa 0,0 l/m 2,3 km/h (1 Bft) N-NO 32 0 min 0,000 mm 0,0 UV-I 0 W/m 13,5 C 16,2 C 3,2 km/h (1 Bft) 100,00 %
17.08.2016 02:12 16,2 C 84 % 1010,5 hPa 0,0 l/m 1,3 km/h (1 Bft) N-NO 32 0 min 0,000 mm 0,0 UV-I 0 W/m 13,5 C 16,2 C 1,6 km/h (1 Bft) 97,37 %
17.08.2016 02:14 16,1 C 85 % 1010,5 hPa 0,0 l/m 2,0 km/h (1 Bft) N-NO 32 0 min 0,000 mm 0,0 UV-I 0 W/m 13,6 C 16,1 C 3,2 km/h (1 Bft) 100,00 %
17.08.2016 02:16 16,1 C 85 % 1010,5 hPa 0,0 l/m 2,3 km/h (1 Bft) N-NO 32 0 min 0,000 mm 0,0 UV-I 0 W/m 13,6 C 16,1 C 3,2 km/h (1 Bft) 100,00 %
17.08.2016 02:18 16,0 C 85 % 1010,5 hPa 0,0 l/m 2,7 km/h (1 Bft) N-NO 32 0 min 0,000 mm 0,0 UV-I 0 W/m 13,5 C 16,0 C 3,2 km/h (1 Bft) 100,00 %
17.08.2016 02:20 16,1 C 85 % 1010,4 hPa 0,0 l/m 3,1 km/h (1 Bft) N-NO 32 0 min 0,000 mm 0,0 UV-I 0 W/m 13,6 C 16,1 C 4,8 km/h (1 Bft) 100,00 %
17.08.2016 02:22 16,2 C 85 % 1010,4 hPa 0,0 l/m 2,4 km/h (1 Bft) N-NO 32 0 min 0,000 mm 0,0 UV-I 0 W/m 13,7 C 16,2 C 3,2 km/h (1 Bft) 97,56 %
17.08.2016 02:24 16,2 C 85 % 1010,4 hPa 0,0 l/m 2,0 km/h (1 Bft) N-NO 32 0 min 0,000 mm 0,0 UV-I 0 W/m 13,7 C 16,2 C 3,2 km/h (1 Bft) 100,00 %
17.08.2016 02:26 16,2 C 85 % 1010,4 hPa 0,0 l/m 2,4 km/h (1 Bft) N-NO 32 0 min 0,000 mm 0,0 UV-I 0 W/m 13,7 C 16,2 C 3,2 km/h (1 Bft) 96,00 %
17.08.2016 02:28 16,2 C 85 % 1010,5 hPa 0,0 l/m 1,4 km/h (1 Bft) N-NO 30 0 min 0,000 mm 0,0 UV-I 0 W/m 13,7 C 16,2 C 3,2 km/h (1 Bft) 100,00 %
17.08.2016 02:30 16,2 C 85 % 1010,4 hPa 0,0 l/m 0,4 km/h (0 Bft) N-NO 30 0 min 0,000 mm 0,0 UV-I 0 W/m 13,7 C 16,2 C 1,6 km/h (1 Bft) 100,00 %
17.08.2016 02:32 16,1 C 86 % 1010,4 hPa 0,0 l/m 0,3 km/h (0 Bft) N-NO 30 0 min 0,000 mm 0,0 UV-I 0 W/m 13,8 C 16,1 C 1,6 km/h (1 Bft) 97,37 %
17.08.2016 02:34 16,1 C 86 % 1010,4 hPa 0,0 l/m 0,3 km/h (0 Bft) N-NO 30 0 min 0,000 mm 0,0 UV-I 0 W/m 13,8 C 16,1 C 1,6 km/h (1 Bft) 100,00 %
17.08.2016 02:36 16,0 C 86 % 1010,5 hPa 0,0 l/m 0,9 km/h (0 Bft) N-NO 30 0 min 0,000 mm 0,0 UV-I 0 W/m 13,7 C 16,0 C 1,6 km/h (1 Bft) 100,00 %
17.08.2016 02:38 16,0 C 86 % 1010,4 hPa 0,0 l/m 1,6 km/h (1 Bft) N-NO 30 0 min 0,000 mm 0,0 UV-I 0 W/m 13,7 C 16,0 C 3,2 km/h (1 Bft) 96,00 %
17.08.2016 02:40 16,1 C 85 % 1010,4 hPa 0,0 l/m 2,3 km/h (1 Bft) N-NO 30 0 min 0,000 mm 0,0 UV-I 0 W/m 13,6 C 16,1 C 3,2 km/h (1 Bft) 100,00 %
17.08.2016 02:42 16,1 C 85 % 1010,4 hPa 0,0 l/m 1,8 km/h (1 Bft) N-NO 30 0 min 0,000 mm 0,0 UV-I 0 W/m 13,6 C 16,1 C 3,2 km/h (1 Bft) 100,00 %
17.08.2016 02:44 16,1 C 84 % 1010,4 hPa 0,0 l/m 1,5 km/h (1 Bft) N-NO 30 0 min 0,000 mm 0,0 UV-I 0 W/m 13,4 C 16,1 C 3,2 km/h (1 Bft) 97,37 %
17.08.2016 02:46 16,2 C 83 % 1010,4 hPa 0,0 l/m 1,7 km/h (1 Bft) N-NO 30 0 min 0,000 mm 0,0 UV-I 0 W/m 13,3 C 16,2 C 3,2 km/h (1 Bft) 98,00 %
17.08.2016 02:48 16,2 C 83 % 1010,4 hPa 0,0 l/m 1,1 km/h (1 Bft) N-NO 29 0 min 0,000 mm 0,0 UV-I 0 W/m 13,3 C 16,2 C 4,8 km/h (1 Bft) 100,00 %
17.08.2016 02:50 16,2 C 84 % 1010,5 hPa 0,0 l/m 0,1 km/h (0 Bft) N-NO 30 0 min 0,000 mm 0,0 UV-I 0 W/m 13,5 C 16,2 C 1,6 km/h (1 Bft) 100,00 %
17.08.2016 02:52 16,1 C 85 % 1010,5 hPa 0,0 l/m 0,8 km/h (0 Bft) N-NO 30 0 min 0,000 mm 0,0 UV-I 0 W/m 13,6 C 16,1 C 1,6 km/h (1 Bft) 100,00 %
17.08.2016 02:54 16,1 C 85 % 1010,5 hPa 0,0 l/m 0,4 km/h (0 Bft) N-NO 29 0 min 0,000 mm 0,0 UV-I 0 W/m 13,6 C 16,1 C 1,6 km/h (1 Bft) 100,00 %
17.08.2016 02:56 16,0 C 86 % 1010,5 hPa 0,0 l/m 0,0 km/h (0 Bft) N-NO 30 0 min 0,000 mm 0,0 UV-I 0 W/m 13,7 C 16,0 C 0,0 km/h (0 Bft) 100,00 %
17.08.2016 02:58 15,9 C 86 % 1010,5 hPa 0,0 l/m 0,0 km/h (0 Bft) N-NO 29 0 min 0,000 mm 0,0 UV-I 0 W/m 13,6 C 15,9 C 0,0 km/h (0 Bft) 100,00 %
17.08.2016 03:00 15,8 C 87 % 1010,5 hPa 0,0 l/m 0,0 km/h (0 Bft) N-NO 30 0 min 0,000 mm 0,0 UV-I 0 W/m 13,6 C 15,8 C 0,0 km/h (0 Bft) 95,74 %
17.08.2016 03:02 15,8 C 86 % 1010,5 hPa 0,0 l/m 1,1 km/h (1 Bft) N-NO 30 0 min 0,000 mm 0,0 UV-I 0 W/m 13,5 C 15,8 C 3,2 km/h (1 Bft) 97,37 %
17.08.2016 03:04 15,8 C 87 % 1010,5 hPa 0,0 l/m 2,7 km/h (1 Bft) N-NO 30 0 min 0,000 mm 0,0 UV-I 0 W/m 13,6 C 15,8 C 3,2 km/h (1 Bft) 95,74 %
17.08.2016 03:06 15,8 C 87 % 1010,4 hPa 0,0 l/m 3,4 km/h (1 Bft) N-NO 30 0 min 0,000 mm 0,0 UV-I 0 W/m 13,6 C 15,8 C 4,8 km/h (1 Bft) 97,87 %
17.08.2016 03:08 15,7 C 86 % 1010,4 hPa 0,0 l/m 3,2 km/h (1 Bft) N-NO 30 0 min 0,000 mm 0,0 UV-I 0 W/m 13,4 C 15,7 C 4,8 km/h (1 Bft) 98,11 %
17.08.2016 03:10 15,8 C 85 % 1010,4 hPa 0,0 l/m 3,7 km/h (1 Bft) N-NO 30 0 min 0,000 mm 0,0 UV-I 0 W/m 13,3 C 15,8 C 4,8 km/h (1 Bft) 98,00 %
17.08.2016 03:12 15,8 C 84 % 1010,4 hPa 0,0 l/m 3,3 km/h (1 Bft) N-NO 30 0 min 0,000 mm 0,0 UV-I 0 W/m 13,1 C 15,8 C 4,8 km/h (1 Bft) 94,29 %
17.08.2016 03:14 15,9 C 84 % 1010,4 hPa 0,0 l/m 2,8 km/h (1 Bft) N-NO 30 0 min 0,000 mm 0,0 UV-I 0 W/m 13,2 C 15,9 C 4,8 km/h (1 Bft) 98,00 %
17.08.2016 03:16 16,0 C 83 % 1010,4 hPa 0,0 l/m 1,1 km/h (1 Bft) N-NO 30 0 min 0,000 mm 0,0 UV-I 0 W/m 13,1 C 16,0 C 1,6 km/h (1 Bft) 95,74 %
17.08.2016 03:18 16,1 C 83 % 1010,5 hPa 0,0 l/m 0,3 km/h (0 Bft) N-NO 30 0 min 0,000 mm 0,0 UV-I 0 W/m 13,2 C 16,1 C 1,6 km/h (1 Bft) 97,87 %
17.08.2016 03:20 16,1 C 83 % 1010,5 hPa 0,0 l/m 0,3 km/h (0 Bft) N-NO 30 0 min 0,000 mm 0,0 UV-I 0 W/m 13,2 C 16,1 C 1,6 km/h (1 Bft) 95,74 %
17.08.2016 03:22 16,1 C 83 % 1010,6 hPa 0,0 l/m 0,0 km/h (0 Bft) N-NO 30 0 min 0,000 mm 0,0 UV-I 0 W/m 13,2 C 16,1 C 0,0 km/h (0 Bft) 100,00 %
17.08.2016 03:24 16,0 C 83 % 1010,6 hPa 0,0 l/m 0,0 km/h (0 Bft) N-NO 30 0 min 0,000 mm 0,0 UV-I 0 W/m 13,1 C 16,0 C 0,0 km/h (0 Bft) 97,87 %
17.08.2016 03:26 15,9 C 85 % 1010,5 hPa 0,0 l/m 0,0 km/h (0 Bft) N-NO 30 0 min 0,000 mm 0,0 UV-I 0 W/m 13,4 C 15,9 C 0,0 km/h (0 Bft) 95,74 %
17.08.2016 03:28 15,9 C 85 % 1010,4 hPa 0,0 l/m 0,0 km/h (0 Bft) N-NO 30 0 min 0,000 mm 0,0 UV-I 0 W/m 13,4 C 15,9 C 0,0 km/h (0 Bft) 97,87 %
17.08.2016 03:30 15,9 C 84 % 1010,3 hPa 0,0 l/m 0,1 km/h (0 Bft) N-NO 30 0 min 0,000 mm 0,0 UV-I 0 W/m 13,2 C 15,9 C 1,6 km/h (1 Bft) 97,87 %
17.08.2016 03:32 15,8 C 86 % 1010,4 hPa 0,0 l/m 0,0 km/h (0 Bft) N-NO 29 0 min 0,000 mm 0,0 UV-I 0 W/m 13,5 C 15,8 C 0,0 km/h (0 Bft) 97,37 %
17.08.2016 03:34 15,7 C 86 % 1010,4 hPa 0,0 l/m 0,0 km/h (0 Bft) N-NO 30 0 min 0,000 mm 0,0 UV-I 0 W/m 13,4 C 15,7 C 0,0 km/h (0 Bft) 100,00 %
17.08.2016 03:36 15,7 C 86 % 1010,4 hPa 0,0 l/m 0,0 km/h (0 Bft) N-NO 30 0 min 0,000 mm 0,0 UV-I 0 W/m 13,4 C 15,7 C 0,0 km/h (0 Bft) 100,00 %
17.08.2016 03:38 15,7 C 86 % 1010,3 hPa 0,0 l/m 0,0 km/h (0 Bft) N-NO 30 0 min 0,000 mm 0,0 UV-I 0 W/m 13,4 C 15,7 C 0,0 km/h (0 Bft) 97,62 %
17.08.2016 03:40 15,7 C 86 % 1010,3 hPa 0,0 l/m 0,0 km/h (0 Bft) N-NO 30 0 min 0,000 mm 0,0 UV-I 0 W/m 13,4 C 15,7 C 0,0 km/h (0 Bft) 100,00 %
17.08.2016 03:42 15,7 C 86 % 1010,3 hPa 0,0 l/m 0,0 km/h (0 Bft) N-NO 30 0 min 0,000 mm 0,0 UV-I 0 W/m 13,4 C 15,7 C 0,0 km/h (0 Bft) 100,00 %
17.08.2016 03:44 15,7 C 86 % 1010,3 hPa 0,0 l/m 0,0 km/h (0 Bft) N-NO 29 0 min 0,000 mm 0,0 UV-I 0 W/m 13,4 C 15,7 C 0,0 km/h (0 Bft) 100,00 %
17.08.2016 03:46 15,7 C 87 % 1010,3 hPa 0,0 l/m 0,0 km/h (0 Bft) N-NO 29 0 min 0,000 mm 0,0 UV-I 0 W/m 13,5 C 15,7 C 0,0 km/h (0 Bft) 100,00 %
17.08.2016 03:48 15,6 C 87 % 1010,3 hPa 0,0 l/m 0,0 km/h (0 Bft) N-NO 30 0 min 0,000 mm 0,0 UV-I 0 W/m 13,4 C 15,6 C 0,0 km/h (0 Bft) 100,00 %
17.08.2016 03:50 15,7 C 87 % 1010,4 hPa 0,0 l/m 2,9 km/h (1 Bft) NW 310 0 min 0,000 mm 0,0 UV-I 0 W/m 13,5 C 15,7 C 6,4 km/h (2 Bft) 100,00 %
17.08.2016 03:52 15,7 C 87 % 1010,7 hPa 0,0 l/m 6,8 km/h (2 Bft) SW 231 0 min 0,000 mm 0,0 UV-I 0 W/m 13,5 C 15,5 C 9,7 km/h (2 Bft) 100,00 %
17.08.2016 03:54 15,5 C 88 % 1010,7 hPa 0,0 l/m 6,2 km/h (2 Bft) S-SW 205 0 min 0,000 mm 0,0 UV-I 0 W/m 13,5 C 15,5 C 9,7 km/h (2 Bft) 98,00 %
17.08.2016 03:56 15,4 C 87 % 1010,6 hPa 0,0 l/m 4,5 km/h (1 Bft) S 182 0 min 0,000 mm 0,0 UV-I 0 W/m 13,2 C 15,4 C 8,0 km/h (2 Bft) 100,00 %
17.08.2016 03:58 15,5 C 86 % 1010,5 hPa 0,0 l/m 1,3 km/h (1 Bft) S 181 0 min 0,000 mm 0,0 UV-I 0 W/m 13,2 C 15,5 C 3,2 km/h (1 Bft) 100,00 %
17.08.2016 04:00 15,6 C 87 % 1010,3 hPa 0,0 l/m 4,8 km/h (1 Bft) O-SO 103 0 min 0,000 mm 0,0 UV-I 0 W/m 13,4 C 15,6 C 6,4 km/h (2 Bft) 97,87 %
17.08.2016 04:02 15,6 C 86 % 1010,3 hPa 0,0 l/m 3,3 km/h (1 Bft) O-SO 103 0 min 0,000 mm 0,0 UV-I 0 W/m 13,3 C 15,6 C 4,8 km/h (1 Bft) 96,15 %
17.08.2016 04:04 15,6 C 87 % 1010,3 hPa 0,0 l/m 2,4 km/h (1 Bft) O-SO 103 0 min 0,000 mm 0,0 UV-I 0 W/m 13,4 C 15,6 C 3,2 km/h (1 Bft) 100,00 %
17.08.2016 04:06 15,6 C 87 % 1010,5 hPa 0,0 l/m 1,5 km/h (1 Bft) O-SO 103 0 min 0,000 mm 0,0 UV-I 0 W/m 13,4 C 15,6 C 3,2 km/h (1 Bft) 97,14 %
17.08.2016 04:08 15,5 C 87 % 1010,5 hPa 0,0 l/m 0,3 km/h (0 Bft) O-SO 103 0 min 0,000 mm 0,0 UV-I 0 W/m 13,3 C 15,5 C 1,6 km/h (1 Bft) 100,00 %
17.08.2016 04:10 15,4 C 87 % 1010,6 hPa 0,0 l/m 0,0 km/h (0 Bft) O-SO 103 0 min 0,000 mm 0,0 UV-I 0 W/m 13,2 C 15,4 C 0,0 km/h (0 Bft) 100,00 %
17.08.2016 04:12 15,4 C 87 % 1010,7 hPa 0,0 l/m 0,0 km/h (0 Bft) O-SO 103 0 min 0,000 mm 0,0 UV-I 0 W/m 13,2 C 15,4 C 0,0 km/h (0 Bft) 100,00 %
17.08.2016 04:14 15,4 C 87 % 1010,7 hPa 0,0 l/m 0,7 km/h (0 Bft) O-SO 103 0 min 0,000 mm 0,0 UV-I 0 W/m 13,2 C 15,4 C 3,2 km/h (1 Bft) 98,00 %
17.08.2016 04:16 15,3 C 88 % 1010,7 hPa 0,0 l/m 2,8 km/h (1 Bft) O-SO 103 0 min 0,000 mm 0,0 UV-I 0 W/m 13,3 C 15,3 C 3,2 km/h (1 Bft) 100,00 %
17.08.2016 04:18 15,3 C 88 % 1010,7 hPa 0,0 l/m 2,3 km/h (1 Bft) SO 128 0 min 0,000 mm 0,0 UV-I 0 W/m 13,3 C 15,3 C 4,8 km/h (1 Bft) 100,00 %
17.08.2016 04:20 15,2 C 89 % 1010,7 hPa 0,0 l/m 0,9 km/h (0 Bft) SO 128 0 min 0,000 mm 0,0 UV-I 0 W/m 13,4 C 15,2 C 1,6 km/h (1 Bft) 100,00 %
17.08.2016 04:22 15,2 C 89 % 1010,8 hPa 0,0 l/m 0,7 km/h (0 Bft) SO 128 0 min 0,000 mm 0,0 UV-I 0 W/m 13,4 C 15,2 C 3,2 km/h (1 Bft) 100,00 %
17.08.2016 04:24 15,2 C 89 % 1010,8 hPa 0,0 l/m 0,8 km/h (0 Bft) SO 128 0 min 0,000 mm 0,0 UV-I 0 W/m 13,4 C 15,2 C 1,6 km/h (1 Bft) 100,00 %
17.08.2016 04:26 15,3 C 89 % 1010,7 hPa 0,0 l/m 0,6 km/h (0 Bft) SO 128 0 min 0,000 mm 0,0 UV-I 0 W/m 13,5 C 15,3 C 1,6 km/h (1 Bft) 98,00 %
17.08.2016 04:28 15,3 C 89 % 1010,8 hPa 0,0 l/m 0,5 km/h (0 Bft) SO 128 0 min 0,000 mm 0,0 UV-I 0 W/m 13,5 C 15,3 C 1,6 km/h (1 Bft) 100,00 %
17.08.2016 04:30 15,4 C 88 % 1010,8 hPa 0,0 l/m 1,1 km/h (1 Bft) SO 128 0 min 0,000 mm 0,0 UV-I 0 W/m 13,4 C 15,4 C 3,2 km/h (1 Bft) 100,00 %
17.08.2016 04:32 15,4 C 88 % 1010,8 hPa 0,0 l/m 2,3 km/h (1 Bft) SO 128 0 min 0,000 mm 0,0 UV-I 0 W/m 13,4 C 15,4 C 3,2 km/h (1 Bft) 100,00 %
17.08.2016 04:34 15,4 C 88 % 1010,8 hPa 0,0 l/m 1,3 km/h (1 Bft) SO 128 0 min 0,000 mm 0,0 UV-I 0 W/m 13,4 C 15,4 C 1,6 km/h (1 Bft) 97,37 %
17.08.2016 04:36 15,4 C 88 % 1010,9 hPa 0,0 l/m 2,1 km/h (1 Bft) SO 128 0 min 0,000 mm 0,0 UV-I 0 W/m 13,4 C 15,4 C 3,2 km/h (1 Bft) 100,00 %
17.08.2016 04:38 15,4 C 88 % 1010,8 hPa 0,0 l/m 1,8 km/h (1 Bft) SO 128 0 min 0,000 mm 0,0 UV-I 0 W/m 13,4 C 15,4 C 3,2 km/h (1 Bft) 100,00 %
17.08.2016 04:40 15,5 C 88 % 1010,8 hPa 0,0 l/m 0,3 km/h (0 Bft) SO 128 0 min 0,000 mm 0,0 UV-I 0 W/m 13,5 C 15,5 C 1,6 km/h (1 Bft) 97,87 %
17.08.2016 04:42 15,6 C 88 % 1010,8 hPa 0,0 l/m 0,0 km/h (0 Bft) SO 128 0 min 0,000 mm 0,0 UV-I 0 W/m 13,6 C 15,6 C 0,0 km/h (0 Bft) 98,00 %
17.08.2016 04:44 15,6 C 88 % 1010,8 hPa 0,0 l/m 0,9 km/h (0 Bft) SO 128 0 min 0,000 mm 0,0 UV-I 0 W/m 13,6 C 15,6 C 1,6 km/h (1 Bft) 100,00 %
17.08.2016 04:46 15,6 C 88 % 1010,9 hPa 0,0 l/m 0,3 km/h (0 Bft) SO 128 0 min 0,000 mm 0,0 UV-I 0 W/m 13,6 C 15,6 C 1,6 km/h (1 Bft) 100,00 %
17.08.2016 04:48 15,6 C 88 % 1010,9 hPa 0,0 l/m 0,8 km/h (0 Bft) SO 128 0 min 0,000 mm 0,0 UV-I 0 W/m 13,6 C 15,6 C 1,6 km/h (1 Bft) 97,56 %
17.08.2016 04:50 15,6 C 88 % 1010,9 hPa 0,0 l/m 0,4 km/h (0 Bft) SO 128 0 min 0,000 mm 0,0 UV-I 0 W/m 13,6 C 15,6 C 1,6 km/h (1 Bft) 98,00 %
17.08.2016 04:52 15,6 C 89 % 1010,9 hPa 0,0 l/m 0,1 km/h (0 Bft) SO 128 0 min 0,000 mm 0,0 UV-I 0 W/m 13,8 C 15,6 C 1,6 km/h (1 Bft) 100,00 %
17.08.2016 04:54 15,6 C 88 % 1010,9 hPa 0,0 l/m 0,7 km/h (0 Bft) SO 128 0 min 0,000 mm 0,0 UV-I 0 W/m 13,6 C 15,6 C 3,2 km/h (1 Bft) 100,00 %
17.08.2016 04:56 15,6 C 88 % 1010,9 hPa 0,0 l/m 1,8 km/h (1 Bft) SO 128 0 min 0,000 mm 0,0 UV-I 0 W/m 13,6 C 15,6 C 3,2 km/h (1 Bft) 100,00 %
17.08.2016 04:58 15,7 C 88 % 1010,9 hPa 0,0 l/m 0,3 km/h (0 Bft) SO 128 0 min 0,000 mm 0,0 UV-I 0 W/m 13,7 C 15,7 C 1,6 km/h (1 Bft) 98,00 %
17.08.2016 05:00 15,7 C 88 % 1010,9 hPa 0,0 l/m 0,0 km/h (0 Bft) SO 128 0 min 0,000 mm 0,0 UV-I 0 W/m 13,7 C 15,7 C 1,6 km/h (1 Bft) 97,87 %
17.08.2016 05:02 15,7 C 88 % 1010,9 hPa 0,0 l/m 0,0 km/h (0 Bft) SO 128 0 min 0,000 mm 0,0 UV-I 0 W/m 13,7 C 15,7 C 0,0 km/h (0 Bft) 97,87 %
17.08.2016 05:04 15,7 C 87 % 1010,9 hPa 0,0 l/m 0,0 km/h (0 Bft) SO 128 0 min 0,000 mm 0,0 UV-I 0 W/m 13,5 C 15,7 C 0,0 km/h (0 Bft) 95,74 %
17.08.2016 05:06 15,8 C 87 % 1010,9 hPa 0,0 l/m 0,0 km/h (0 Bft) SO 128 0 min 0,000 mm 0,0 UV-I 0 W/m 13,6 C 15,8 C 0,0 km/h (0 Bft) 97,87 %
17.08.2016 05:08 15,8 C 88 % 1010,9 hPa 0,0 l/m 0,0 km/h (0 Bft) SO 128 0 min 0,000 mm 0,0 UV-I 0 W/m 13,8 C 15,8 C 1,6 km/h (1 Bft) 98,11 %
17.08.2016 05:10 15,8 C 88 % 1010,9 hPa 0,0 l/m 0,4 km/h (0 Bft) SO 128 0 min 0,000 mm 0,0 UV-I 0 W/m 13,8 C 15,8 C 1,6 km/h (1 Bft) 97,37 %
17.08.2016 05:12 15,8 C 88 % 1010,9 hPa 0,0 l/m 0,5 km/h (0 Bft) SO 128 0 min 0,000 mm 0,0 UV-I 0 W/m 13,8 C 15,8 C 1,6 km/h (1 Bft) 93,62 %
17.08.2016 05:14 15,7 C 88 % 1010,9 hPa 0,0 l/m 0,1 km/h (0 Bft) SO 128 0 min 0,000 mm 0,0 UV-I 0 W/m 13,7 C 15,7 C 1,6 km/h (1 Bft) 98,00 %
17.08.2016 05:16 15,7 C 88 % 1010,9 hPa 0,0 l/m 0,1 km/h (0 Bft) SO 128 0 min 0,000 mm 0,0 UV-I 0 W/m 13,7 C 15,7 C 1,6 km/h (1 Bft) 94,00 %
17.08.2016 05:18 15,7 C 88 % 1010,9 hPa 0,0 l/m 0,1 km/h (0 Bft) SO 128 0 min 0,000 mm 0,0 UV-I 0 W/m 13,7 C 15,7 C 1,6 km/h (1 Bft) 97,87 %
17.08.2016 05:20 15,7 C 88 % 1010,9 hPa 0,0 l/m 0,0 km/h (0 Bft) SO 128 0 min 0,000 mm 0,0 UV-I 0 W/m 13,7 C 15,7 C 0,0 km/h (0 Bft) 95,74 %
17.08.2016 05:22 15,7 C 87 % 1010,9 hPa 0,0 l/m 0,0 km/h (0 Bft) SO 128 0 min 0,000 mm 0,0 UV-I 0 W/m 13,5 C 15,7 C 0,0 km/h (0 Bft) 97,56 %
17.08.2016 05:24 15,8 C 89 % 1010,8 hPa 0,0 l/m 0,0 km/h (0 Bft) SO 128 0 min 0,000 mm 0,0 UV-I 0 W/m 14,0 C 15,8 C 0,0 km/h (0 Bft) 97,87 %
17.08.2016 05:26 15,7 C 88 % 1010,8 hPa 0,0 l/m 0,0 km/h (0 Bft) SO 128 0 min 0,000 mm 0,0 UV-I 0 W/m 13,7 C 15,7 C 0,0 km/h (0 Bft) 97,87 %
17.08.2016 05:28 15,7 C 89 % 1010,8 hPa 0,0 l/m 0,0 km/h (0 Bft) SO 128 0 min 0,000 mm 0,0 UV-I 0 W/m 13,9 C 15,7 C 0,0 km/h (0 Bft) 97,87 %
17.08.2016 05:30 15,7 C 89 % 1010,9 hPa 0,0 l/m 0,0 km/h (0 Bft) SO 128 0 min 0,000 mm 0,0 UV-I 0 W/m 13,9 C 15,7 C 0,0 km/h (0 Bft) 97,87 %
17.08.2016 05:32 15,7 C 88 % 1010,8 hPa 0,0 l/m 0,0 km/h (0 Bft) SO 128 0 min 0,000 mm 0,0 UV-I 0 W/m 13,7 C 15,7 C 0,0 km/h (0 Bft) 98,00 %
17.08.2016 05:34 15,7 C 88 % 1010,8 hPa 0,0 l/m 0,0 km/h (0 Bft) SO 128 0 min 0,000 mm 0,0 UV-I 0 W/m 13,7 C 15,7 C 0,0 km/h (0 Bft) 97,92 %
17.08.2016 05:36 15,7 C 89 % 1010,8 hPa 0,0 l/m 0,0 km/h (0 Bft) SO 128 0 min 0,000 mm 0,0 UV-I 0 W/m 13,9 C 15,7 C 0,0 km/h (0 Bft) 98,00 %
17.08.2016 05:38 15,7 C 89 % 1010,9 hPa 0,0 l/m 0,0 km/h (0 Bft) SO 128 0 min 0,000 mm 0,0 UV-I 0 W/m 13,9 C 15,7 C 0,0 km/h (0 Bft) 97,37 %
17.08.2016 05:40 15,7 C 88 % 1010,8 hPa 0,0 l/m 0,0 km/h (0 Bft) SO 128 0 min 0,000 mm 0,0 UV-I 0 W/m 13,7 C 15,7 C 0,0 km/h (0 Bft) 100,00 %
17.08.2016 05:42 15,8 C 88 % 1010,9 hPa 0,0 l/m 0,0 km/h (0 Bft) SO 128 0 min 0,000 mm 0,0 UV-I 0 W/m 13,8 C 15,8 C 0,0 km/h (0 Bft) 95,74 %
17.08.2016 05:44 15,8 C 89 % 1010,9 hPa 0,0 l/m 0,0 km/h (0 Bft) SO 128 0 min 0,000 mm 0,0 UV-I 0 W/m 14,0 C 15,8 C 0,0 km/h (0 Bft) 98,00 %
17.08.2016 05:46 15,8 C 89 % 1010,9 hPa 0,0 l/m 0,0 km/h (0 Bft) SO 128 0 min 0,000 mm 0,0 UV-I 0 W/m 14,0 C 15,8 C 0,0 km/h (0 Bft) 100,00 %
17.08.2016 05:48 15,8 C 88 % 1010,9 hPa 0,0 l/m 0,0 km/h (0 Bft) SO 128 0 min 0,000 mm 0,0 UV-I 0 W/m 13,8 C 15,8 C 0,0 km/h (0 Bft) 100,00 %
17.08.2016 05:50 15,8 C 88 % 1010,9 hPa 0,0 l/m 0,0 km/h (0 Bft) SO 128 0 min 0,000 mm 0,0 UV-I 0 W/m 13,8 C 15,8 C 0,0 km/h (0 Bft) 100,00 %
17.08.2016 05:52 15,7 C 89 % 1010,9 hPa 0,0 l/m 0,0 km/h (0 Bft) SO 128 0 min 0,000 mm 0,0 UV-I 0 W/m 13,9 C 15,7 C 1,6 km/h (1 Bft) 100,00 %
17.08.2016 05:54 15,7 C 89 % 1010,9 hPa 0,0 l/m 0,0 km/h (0 Bft) SO 128 0 min 0,000 mm 0,0 UV-I 0 W/m 13,9 C 15,7 C 0,0 km/h (0 Bft) 97,14 %
17.08.2016 05:56 15,7 C 88 % 1010,8 hPa 0,0 l/m 0,0 km/h (0 Bft) SO 128 0 min 0,000 mm 0,0 UV-I 1 W/m 13,7 C 15,7 C 0,0 km/h (0 Bft) 98,21 %
17.08.2016 05:58 15,7 C 88 % 1010,8 hPa 0,0 l/m 0,0 km/h (0 Bft) SO 128 0 min 0,000 mm 0,0 UV-I 6 W/m 13,7 C 15,7 C 0,0 km/h (0 Bft) 100,00 %
17.08.2016 06:00 15,7 C 88 % 1010,8 hPa 0,0 l/m 0,0 km/h (0 Bft) SO 128 0 min 0,000 mm 0,0 UV-I 8 W/m 13,7 C 15,7 C 0,0 km/h (0 Bft) 97,87 %
17.08.2016 06:02 15,7 C 89 % 1010,8 hPa 0,0 l/m 0,0 km/h (0 Bft) SO 128 0 min 0,000 mm 0,0 UV-I 9 W/m 13,9 C 15,7 C 0,0 km/h (0 Bft) 100,00 %
17.08.2016 06:04 15,7 C 89 % 1010,8 hPa 0,0 l/m 0,0 km/h (0 Bft) SO 128 0 min 0,000 mm 0,0 UV-I 9 W/m 13,9 C 15,7 C 0,0 km/h (0 Bft) 100,00 %
17.08.2016 06:06 15,7 C 89 % 1010,9 hPa 0,0 l/m 0,0 km/h (0 Bft) SO 128 0 min 0,000 mm 0,0 UV-I 9 W/m 13,9 C 15,7 C 0,0 km/h (0 Bft) 100,00 %
17.08.2016 06:08 15,7 C 89 % 1010,9 hPa 0,0 l/m 0,0 km/h (0 Bft) SO 128 0 min 0,000 mm 0,0 UV-I 9 W/m 13,9 C 15,7 C 0,0 km/h (0 Bft) 100,00 %
17.08.2016 06:10 15,6 C 90 % 1010,9 hPa 0,0 l/m 0,0 km/h (0 Bft) SO 128 0 min 0,000 mm 0,0 UV-I 11 W/m 14,0 C 15,6 C 0,0 km/h (0 Bft) 100,00 %
17.08.2016 06:12 15,6 C 90 % 1010,9 hPa 0,0 l/m 0,0 km/h (0 Bft) SO 128 2 min 0,000 mm 0,0 UV-I 12 W/m 14,0 C 15,6 C 0,0 km/h (0 Bft) 100,00 %
17.08.2016 06:14 15,5 C 91 % 1010,9 hPa 0,0 l/m 0,0 km/h (0 Bft) SO 128 2 min 0,000 mm 0,0 UV-I 12 W/m 14,0 C 15,5 C 0,0 km/h (0 Bft) 100,00 %
17.08.2016 06:16 15,5 C 90 % 1010,9 hPa 0,0 l/m 0,0 km/h (0 Bft) SO 128 0 min 0,000 mm 0,0 UV-I 12 W/m 13,9 C 15,5 C 0,0 km/h (0 Bft) 100,00 %
17.08.2016 06:18 15,5 C 90 % 1011,0 hPa 0,0 l/m 0,0 km/h (0 Bft) SO 128 0 min 0,000 mm 0,0 UV-I 12 W/m 13,9 C 15,5 C 0,0 km/h (0 Bft) 100,00 %
17.08.2016 06:20 15,5 C 89 % 1011,0 hPa 0,0 l/m 0,0 km/h (0 Bft) SO 128 0 min 0,000 mm 0,0 UV-I 12 W/m 13,7 C 15,5 C 0,0 km/h (0 Bft) 100,00 %
17.08.2016 06:22 15,6 C 88 % 1011,0 hPa 0,0 l/m 0,0 km/h (0 Bft) SO 128 0 min 0,000 mm 0,0 UV-I 12 W/m 13,6 C 15,6 C 0,0 km/h (0 Bft) 100,00 %
17.08.2016 06:24 15,7 C 88 % 1011,0 hPa 0,0 l/m 0,0 km/h (0 Bft) SO 128 0 min 0,000 mm 0,0 UV-I 11 W/m 13,7 C 15,7 C 0,0 km/h (0 Bft) 100,00 %
17.08.2016 06:26 15,7 C 89 % 1011,0 hPa 0,0 l/m 0,0 km/h (0 Bft) SO 128 0 min 0,000 mm 0,0 UV-I 12 W/m 13,9 C 15,7 C 0,0 km/h (0 Bft) 100,00 %
17.08.2016 06:28 15,8 C 89 % 1011,0 hPa 0,0 l/m 0,0 km/h (0 Bft) SO 128 0 min 0,000 mm 0,0 UV-I 14 W/m 14,0 C 15,8 C 0,0 km/h (0 Bft) 100,00 %
17.08.2016 06:30 15,8 C 89 % 1011,1 hPa 0,0 l/m 0,0 km/h (0 Bft) SO 128 0 min 0,000 mm 0,0 UV-I 16 W/m 14,0 C 15,8 C 0,0 km/h (0 Bft) 97,87 %
17.08.2016 06:32 15,8 C 89 % 1011,1 hPa 0,0 l/m 0,0 km/h (0 Bft) SO 128 0 min 0,000 mm 0,0 UV-I 18 W/m 14,0 C 15,8 C 0,0 km/h (0 Bft) 100,00 %
17.08.2016 06:34 15,8 C 90 % 1011,1 hPa 0,0 l/m 0,0 km/h (0 Bft) SO 128 0 min 0,000 mm 0,0 UV-I 19 W/m 14,2 C 15,8 C 0,0 km/h (0 Bft) 100,00 %
17.08.2016 06:36 15,8 C 90 % 1011,1 hPa 0,0 l/m 0,0 km/h (0 Bft) SO 128 0 min 0,000 mm 0,0 UV-I 19 W/m 14,2 C 15,8 C 0,0 km/h (0 Bft) 97,87 %
17.08.2016 06:38 15,7 C 89 % 1011,1 hPa 0,0 l/m 0,0 km/h (0 Bft) SO 128 0 min 0,000 mm 0,0 UV-I 18 W/m 13,9 C 15,7 C 0,0 km/h (0 Bft) 100,00 %
17.08.2016 06:40 15,7 C 88 % 1011,2 hPa 0,0 l/m 0,0 km/h (0 Bft) SO 128 0 min 0,000 mm 0,0 UV-I 18 W/m 13,7 C 15,7 C 0,0 km/h (0 Bft) 100,00 %
17.08.2016 06:42 15,7 C 88 % 1011,2 hPa 0,0 l/m 0,0 km/h (0 Bft) SO 128 0 min 0,000 mm 0,0 UV-I 17 W/m 13,7 C 15,7 C 0,0 km/h (0 Bft) 100,00 %
17.08.2016 06:44 15,7 C 87 % 1011,2 hPa 0,0 l/m 0,0 km/h (0 Bft) SO 128 0 min 0,000 mm 0,0 UV-I 17 W/m 13,5 C 15,7 C 0,0 km/h (0 Bft) 96,00 %
17.08.2016 06:46 15,7 C 86 % 1011,2 hPa 0,0 l/m 0,0 km/h (0 Bft) SO 128 0 min 0,000 mm 0,0 UV-I 19 W/m 13,4 C 15,7 C 0,0 km/h (0 Bft) 100,00 %
17.08.2016 06:48 15,8 C 86 % 1011,2 hPa 0,0 l/m 0,0 km/h (0 Bft) SO 128 0 min 0,000 mm 0,0 UV-I 20 W/m 13,5 C 15,8 C 0,0 km/h (0 Bft) 100,00 %
17.08.2016 06:50 15,8 C 86 % 1011,2 hPa 0,0 l/m 0,0 km/h (0 Bft) SO 128 0 min 0,000 mm 0,0 UV-I 22 W/m 13,5 C 15,8 C 0,0 km/h (0 Bft) 100,00 %
17.08.2016 06:52 15,9 C 87 % 1011,3 hPa 0,0 l/m 0,0 km/h (0 Bft) SO 128 0 min 0,000 mm 0,0 UV-I 24 W/m 13,7 C 15,9 C 0,0 km/h (0 Bft) 100,00 %
17.08.2016 06:54 15,8 C 87 % 1011,2 hPa 0,0 l/m 0,0 km/h (0 Bft) SO 128 0 min 0,000 mm 0,0 UV-I 25 W/m 13,6 C 15,8 C 0,0 km/h (0 Bft) 100,00 %
17.08.2016 06:56 15,9 C 88 % 1011,3 hPa 0,0 l/m 0,0 km/h (0 Bft) SO 128 0 min 0,000 mm 0,0 UV-I 28 W/m 13,9 C 15,9 C 0,0 km/h (0 Bft) 98,00 %
17.08.2016 06:58 15,8 C 88 % 1011,2 hPa 0,0 l/m 0,0 km/h (0 Bft) SO 128 0 min 0,000 mm 0,0 UV-I 29 W/m 13,8 C 15,8 C 0,0 km/h (0 Bft) 97,87 %
17.08.2016 07:00 15,8 C 87 % 1011,3 hPa 0,0 l/m 0,0 km/h (0 Bft) O-SO 114 0 min 0,000 mm 0,0 UV-I 34 W/m 13,6 C 15,8 C 0,0 km/h (0 Bft) 98,11 %
17.08.2016 07:02 15,9 C 86 % 1011,2 hPa 0,0 l/m 0,0 km/h (0 Bft) O-SO 105 0 min 0,000 mm 0,0 UV-I 39 W/m 13,6 C 15,9 C 0,0 km/h (0 Bft) 97,56 %
17.08.2016 07:04 15,9 C 87 % 1011,1 hPa 0,0 l/m 1,0 km/h (0 Bft) O 93 0 min 0,000 mm 0,0 UV-I 42 W/m 13,7 C 15,9 C 4,8 km/h (1 Bft) 97,87 %
17.08.2016 07:06 15,9 C 83 % 1011,2 hPa 0,0 l/m 2,4 km/h (1 Bft) NO 40 0 min 0,000 mm 0,0 UV-I 46 W/m 13,0 C 15,9 C 6,4 km/h (2 Bft) 95,74 %
17.08.2016 07:08 16,1 C 82 % 1011,2 hPa 0,0 l/m 3,5 km/h (1 Bft) NO 39 0 min 0,000 mm 0,0 UV-I 49 W/m 13,0 C 16,1 C 6,4 km/h (2 Bft) 98,11 %
17.08.2016 07:10 16,1 C 81 % 1011,2 hPa 0,0 l/m 2,7 km/h (1 Bft) NO 37 0 min 0,000 mm 0,0 UV-I 47 W/m 12,8 C 16,1 C 4,8 km/h (1 Bft) 95,74 %
17.08.2016 07:12 16,1 C 80 % 1011,3 hPa 0,0 l/m 4,4 km/h (1 Bft) N-NO 26 0 min 0,000 mm 0,0 UV-I 53 W/m 12,6 C 16,1 C 6,4 km/h (2 Bft) 95,74 %
17.08.2016 07:14 16,2 C 82 % 1011,3 hPa 0,0 l/m 3,9 km/h (1 Bft) N-NO 22 0 min 0,000 mm 0,0 UV-I 66 W/m 13,1 C 16,2 C 6,4 km/h (2 Bft) 97,37 %
17.08.2016 07:16 16,2 C 80 % 1011,3 hPa 0,0 l/m 4,3 km/h (1 Bft) NO 38 0 min 0,000 mm 0,0 UV-I 74 W/m 12,7 C 16,2 C 6,4 km/h (2 Bft) 96,23 %
17.08.2016 07:18 16,2 C 80 % 1011,2 hPa 0,0 l/m 4,8 km/h (1 Bft) NO 37 0 min 0,000 mm 0,0 UV-I 77 W/m 12,7 C 16,2 C 6,4 km/h (2 Bft) 97,37 %
17.08.2016 07:20 16,2 C 80 % 1011,2 hPa 0,0 l/m 4,5 km/h (1 Bft) NO 45 0 min 0,000 mm 0,0 UV-I 77 W/m 12,7 C 16,2 C 6,4 km/h (2 Bft) 97,87 %
17.08.2016 07:22 16,2 C 78 % 1011,3 hPa 0,0 l/m 4,6 km/h (1 Bft) NO 45 0 min 0,000 mm 0,0 UV-I 74 W/m 12,4 C 16,2 C 8,0 km/h (2 Bft) 93,62 %
17.08.2016 07:24 16,2 C 79 % 1011,2 hPa 0,0 l/m 4,2 km/h (1 Bft) NO 46 0 min 0,000 mm 0,0 UV-I 80 W/m 12,6 C 16,2 C 6,4 km/h (2 Bft) 96,00 %
17.08.2016 07:26 16,3 C 80 % 1011,3 hPa 0,0 l/m 4,3 km/h (1 Bft) NO 44 0 min 0,000 mm 0,0 UV-I 82 W/m 12,8 C 16,3 C 6,4 km/h (2 Bft) 97,87 %
17.08.2016 07:28 16,3 C 77 % 1011,3 hPa 0,0 l/m 4,6 km/h (1 Bft) NO 53 0 min 0,000 mm 0,0 UV-I 81 W/m 12,3 C 16,3 C 6,4 km/h (2 Bft) 94,34 %
17.08.2016 07:30 16,3 C 77 % 1011,3 hPa 0,0 l/m 4,0 km/h (1 Bft) N-NO 31 0 min 0,000 mm 0,0 UV-I 78 W/m 12,3 C 16,3 C 6,4 km/h (2 Bft) 100,00 %
17.08.2016 07:32 16,3 C 77 % 1011,3 hPa 0,0 l/m 4,2 km/h (1 Bft) NO 46 0 min 0,000 mm 0,0 UV-I 74 W/m 12,3 C 16,3 C 8,0 km/h (2 Bft) 98,00 %
17.08.2016 07:34 16,3 C 76 % 1011,3 hPa 0,0 l/m 6,3 km/h (2 Bft) O-NO 57 0 min 0,000 mm 0,0 UV-I 78 W/m 12,1 C 16,3 C 9,7 km/h (2 Bft) 96,00 %
17.08.2016 07:36 16,3 C 76 % 1011,4 hPa 0,0 l/m 6,4 km/h (2 Bft) NO 55 0 min 0,000 mm 0,0 UV-I 82 W/m 12,1 C 16,3 C 9,7 km/h (2 Bft) 100,00 %
17.08.2016 07:38 16,3 C 76 % 1011,4 hPa 0,0 l/m 7,3 km/h (2 Bft) N-NO 24 0 min 0,000 mm 0,0 UV-I 84 W/m 12,1 C 15,8 C 14,5 km/h (3 Bft) 98,39 %
17.08.2016 07:40 16,3 C 75 % 1011,4 hPa 0,0 l/m 6,9 km/h (2 Bft) NO 41 0 min 0,000 mm 0,0 UV-I 83 W/m 11,9 C 16,0 C 14,5 km/h (3 Bft) 98,00 %
17.08.2016 07:42 16,3 C 73 % 1011,4 hPa 0,0 l/m 8,0 km/h (2 Bft) N-NO 29 0 min 0,000 mm 0,0 UV-I 87 W/m 11,4 C 15,5 C 14,5 km/h (3 Bft) 100,00 %
17.08.2016 07:44 16,3 C 75 % 1011,4 hPa 0,0 l/m 5,4 km/h (1 Bft) N-NO 23 0 min 0,000 mm 0,0 UV-I 89 W/m 11,9 C 16,3 C 11,3 km/h (2 Bft) 97,73 %
17.08.2016 07:46 16,3 C 75 % 1011,4 hPa 0,0 l/m 5,1 km/h (1 Bft) N-NO 24 0 min 0,000 mm 0,0 UV-I 133 W/m 11,9 C 16,3 C 9,7 km/h (2 Bft) 100,00 %
17.08.2016 07:48 16,4 C 74 % 1011,4 hPa 0,0 l/m 6,5 km/h (2 Bft) N-NO 12 0 min 0,000 mm 0,0 UV-I 112 W/m 11,8 C 16,4 C 12,9 km/h (3 Bft) 100,00 %
17.08.2016 07:50 16,4 C 74 % 1011,4 hPa 0,0 l/m 7,4 km/h (2 Bft) NO 39 0 min 0,000 mm 0,0 UV-I 106 W/m 11,8 C 15,9 C 12,9 km/h (3 Bft) 100,00 %
17.08.2016 07:52 16,4 C 74 % 1011,4 hPa 0,0 l/m 4,5 km/h (1 Bft) N-NO 17 0 min 0,000 mm 0,0 UV-I 110 W/m 11,8 C 16,4 C 9,7 km/h (2 Bft) 100,00 %
17.08.2016 07:54 16,4 C 73 % 1011,4 hPa 0,0 l/m 6,7 km/h (2 Bft) N-NO 30 0 min 0,000 mm 0,0 UV-I 101 W/m 11,5 C 16,3 C 12,9 km/h (3 Bft) 98,11 %
17.08.2016 07:56 16,4 C 73 % 1011,4 hPa 0,0 l/m 5,2 km/h (1 Bft) N 10 0 min 0,000 mm 0,0 UV-I 100 W/m 11,5 C 16,4 C 11,3 km/h (2 Bft) 100,00 %
17.08.2016 07:58 16,4 C 74 % 1011,4 hPa 0,0 l/m 6,6 km/h (2 Bft) N-NO 22 0 min 0,000 mm 0,0 UV-I 105 W/m 11,8 C 16,3 C 12,9 km/h (3 Bft) 100,00 %
17.08.2016 08:00 16,4 C 73 % 1011,4 hPa 0,0 l/m 4,6 km/h (1 Bft) N-NO 24 0 min 0,051 mm 0,0 UV-I 107 W/m 11,5 C 16,4 C 11,3 km/h (2 Bft) 100,00 %
17.08.2016 08:02 16,4 C 73 % 1011,4 hPa 0,0 l/m 3,7 km/h (1 Bft) N 10 0 min 0,000 mm 0,0 UV-I 98 W/m 11,5 C 16,4 C 9,7 km/h (2 Bft) 100,00 %
17.08.2016 08:04 16,4 C 73 % 1011,4 hPa 0,0 l/m 6,0 km/h (2 Bft) NO 54 0 min 0,000 mm 0,0 UV-I 83 W/m 11,5 C 16,4 C 12,9 km/h (3 Bft) 100,00 %
17.08.2016 08:06 16,4 C 72 % 1011,4 hPa 0,0 l/m 4,1 km/h (1 Bft) N-NO 17 0 min 0,000 mm 0,0 UV-I 71 W/m 11,3 C 16,4 C 8,0 km/h (2 Bft) 100,00 %
17.08.2016 08:08 16,4 C 71 % 1011,4 hPa 0,0 l/m 7,4 km/h (2 Bft) NO 51 0 min 0,000 mm 0,0 UV-I 73 W/m 11,1 C 15,9 C 11,3 km/h (2 Bft) 100,00 %
17.08.2016 08:10 16,4 C 71 % 1011,4 hPa 0,0 l/m 6,7 km/h (2 Bft) N-NO 24 0 min 0,000 mm 0,0 UV-I 83 W/m 11,1 C 16,3 C 12,9 km/h (3 Bft) 97,30 %
17.08.2016 08:12 16,4 C 71 % 1011,4 hPa 0,0 l/m 8,0 km/h (2 Bft) NO 43 0 min 0,000 mm 0,0 UV-I 90 W/m 11,1 C 15,6 C 12,9 km/h (3 Bft) 96,23 %
17.08.2016 08:14 16,3 C 71 % 1011,4 hPa 0,0 l/m 8,9 km/h (2 Bft) N-NO 30 0 min 0,000 mm 0,0 UV-I 104 W/m 11,0 C 15,0 C 14,5 km/h (3 Bft) 100,00 %
17.08.2016 08:16 16,4 C 70 % 1011,5 hPa 0,0 l/m 4,4 km/h (1 Bft) N-NO 31 0 min 0,000 mm 0,0 UV-I 117 W/m 10,9 C 16,4 C 9,7 km/h (2 Bft) 98,11 %
17.08.2016 08:18 16,4 C 70 % 1011,4 hPa 0,0 l/m 3,9 km/h (1 Bft) NO 38 0 min 0,000 mm 0,0 UV-I 130 W/m 10,9 C 16,4 C 6,4 km/h (2 Bft) 100,00 %
17.08.2016 08:20 16,5 C 71 % 1011,4 hPa 0,0 l/m 6,7 km/h (2 Bft) NO 44 0 min 0,000 mm 0,0 UV-I 122 W/m 11,2 C 16,4 C 11,3 km/h (2 Bft) 100,00 %
17.08.2016 08:22 16,6 C 70 % 1011,4 hPa 0,0 l/m 5,8 km/h (2 Bft) NO 38 0 min 0,000 mm 0,3 UV-I 122 W/m 11,1 C 16,6 C 8,0 km/h (2 Bft) 96,00 %
17.08.2016 08:24 16,6 C 70 % 1011,4 hPa 0,0 l/m 6,2 km/h (2 Bft) N-NO 19 0 min 0,000 mm 0,5 UV-I 121 W/m 11,1 C 16,6 C 9,7 km/h (2 Bft) 100,00 %
17.08.2016 08:26 16,6 C 70 % 1011,4 hPa 0,0 l/m 7,7 km/h (2 Bft) NO 37 0 min 0,000 mm 0,5 UV-I 124 W/m 11,1 C 15,9 C 12,9 km/h (3 Bft) 100,00 %
17.08.2016 08:28 16,6 C 70 % 1011,4 hPa 0,0 l/m 6,3 km/h (2 Bft) N-NO 17 0 min 0,000 mm 0,6 UV-I 146 W/m 11,1 C 16,6 C 9,7 km/h (2 Bft) 98,21 %
17.08.2016 08:30 16,6 C 69 % 1011,4 hPa 0,0 l/m 5,9 km/h (2 Bft) NO 51 0 min 0,000 mm 0,7 UV-I 160 W/m 10,9 C 16,6 C 9,7 km/h (2 Bft) 97,56 %
17.08.2016 08:32 16,7 C 70 % 1011,4 hPa 0,0 l/m 5,6 km/h (1 Bft) O-NO 63 0 min 0,000 mm 0,7 UV-I 215 W/m 11,2 C 16,7 C 8,0 km/h (2 Bft) 100,00 %
17.08.2016 08:34 16,8 C 67 % 1011,4 hPa 0,0 l/m 6,0 km/h (2 Bft) O-NO 60 2 min 0,000 mm 0,8 UV-I 228 W/m 10,6 C 16,8 C 9,7 km/h (2 Bft) 97,87 %
17.08.2016 08:36 16,8 C 69 % 1011,4 hPa 0,0 l/m 4,3 km/h (1 Bft) O 82 0 min 0,000 mm 0,8 UV-I 181 W/m 11,1 C 16,8 C 8,0 km/h (2 Bft) 100,00 %
17.08.2016 08:38 16,8 C 67 % 1011,4 hPa 0,0 l/m 6,3 km/h (2 Bft) O-NO 68 0 min 0,000 mm 0,9 UV-I 162 W/m 10,6 C 16,8 C 12,9 km/h (3 Bft) 100,00 %
17.08.2016 08:40 16,9 C 70 % 1011,4 hPa 0,0 l/m 7,0 km/h (2 Bft) O-NO 71 2 min 0,000 mm 0,9 UV-I 241 W/m 11,4 C 16,6 C 11,3 km/h (2 Bft) 100,00 %
17.08.2016 08:42 17,1 C 68 % 1011,4 hPa 0,0 l/m 6,2 km/h (2 Bft) O-NO 60 2 min 0,000 mm 1,0 UV-I 294 W/m 11,1 C 17,1 C 8,0 km/h (2 Bft) 100,00 %
17.08.2016 08:44 17,2 C 65 % 1011,4 hPa 0,0 l/m 8,9 km/h (2 Bft) O-NO 76 2 min 0,000 mm 1,1 UV-I 285 W/m 10,6 C 16,0 C 12,9 km/h (3 Bft) 100,00 %
17.08.2016 08:46 17,2 C 66 % 1011,4 hPa 0,0 l/m 8,2 km/h (2 Bft) O-NO 57 2 min 0,000 mm 1,1 UV-I 269 W/m 10,8 C 16,3 C 14,5 km/h (3 Bft) 100,00 %
17.08.2016 08:48 17,3 C 66 % 1011,4 hPa 0,0 l/m 6,7 km/h (2 Bft) O-NO 61 2 min 0,000 mm 1,1 UV-I 260 W/m 10,9 C 17,2 C 9,7 km/h (2 Bft) 100,00 %
17.08.2016 08:50 17,4 C 66 % 1011,4 hPa 0,0 l/m 4,7 km/h (1 Bft) O-NO 57 2 min 0,000 mm 1,2 UV-I 261 W/m 11,0 C 17,4 C 8,0 km/h (2 Bft) 100,00 %
17.08.2016 08:52 17,4 C 66 % 1011,4 hPa 0,0 l/m 6,8 km/h (2 Bft) O-NO 61 2 min 0,000 mm 1,2 UV-I 264 W/m 11,0 C 17,2 C 12,9 km/h (3 Bft) 97,78 %
17.08.2016 08:54 17,6 C 63 % 1011,4 hPa 0,0 l/m 9,5 km/h (2 Bft) NO 55 2 min 0,000 mm 1,3 UV-I 274 W/m 10,5 C 16,2 C 14,5 km/h (3 Bft) 97,37 %
17.08.2016 08:56 17,6 C 65 % 1011,4 hPa 0,0 l/m 6,8 km/h (2 Bft) NO 34 2 min 0,000 mm 1,3 UV-I 287 W/m 10,9 C 17,4 C 9,7 km/h (2 Bft) 98,21 %
17.08.2016 08:58 17,6 C 67 % 1011,5 hPa 0,0 l/m 6,7 km/h (2 Bft) NO 53 2 min 0,000 mm 1,3 UV-I 304 W/m 11,4 C 17,5 C 9,7 km/h (2 Bft) 91,30 %
17.08.2016 09:00 17,8 C 67 % 1011,4 hPa 0,0 l/m 8,1 km/h (2 Bft) NO 46 2 min 0,127 mm 1,3 UV-I 326 W/m 11,6 C 17,0 C 14,5 km/h (3 Bft) 98,53 %
17.08.2016 09:02 17,9 C 66 % 1011,5 hPa 0,0 l/m 8,3 km/h (2 Bft) O-NO 59 2 min 0,000 mm 1,4 UV-I 347 W/m 11,5 C 17,0 C 11,3 km/h (2 Bft) 98,00 %
17.08.2016 09:04 18,1 C 67 % 1011,5 hPa 0,0 l/m 7,2 km/h (2 Bft) NO 43 2 min 0,000 mm 1,4 UV-I 364 W/m 11,9 C 17,7 C 9,7 km/h (2 Bft) 95,74 %
17.08.2016 09:06 18,1 C 66 % 1011,5 hPa 0,0 l/m 7,0 km/h (2 Bft) NO 52 2 min 0,000 mm 1,5 UV-I 381 W/m 11,6 C 17,8 C 9,7 km/h (2 Bft) 97,37 %
17.08.2016 09:08 18,2 C 66 % 1011,5 hPa 0,0 l/m 9,3 km/h (2 Bft) NO 50 2 min 0,000 mm 1,5 UV-I 393 W/m 11,7 C 16,9 C 17,7 km/h (3 Bft) 96,43 %
17.08.2016 09:10 18,3 C 66 % 1011,5 hPa 0,0 l/m 9,2 km/h (2 Bft) N-NO 16 2 min 0,000 mm 1,6 UV-I 407 W/m 11,8 C 17,1 C 14,5 km/h (3 Bft) 97,37 %
17.08.2016 09:12 18,4 C 65 % 1011,5 hPa 0,0 l/m 7,4 km/h (2 Bft) O-NO 60 2 min 0,000 mm 1,6 UV-I 417 W/m 11,7 C 17,9 C 9,7 km/h (2 Bft) 98,00 %
17.08.2016 09:14 18,3 C 63 % 1011,5 hPa 0,0 l/m 8,8 km/h (2 Bft) O-NO 63 2 min 0,000 mm 1,6 UV-I 426 W/m 11,1 C 17,2 C 12,9 km/h (3 Bft) 98,00 %
17.08.2016 09:16 18,3 C 64 % 1011,5 hPa 0,0 l/m 8,9 km/h (2 Bft) O 96 2 min 0,000 mm 1,7 UV-I 440 W/m 11,4 C 17,2 C 12,9 km/h (3 Bft) 97,56 %
17.08.2016 09:18 18,3 C 64 % 1011,5 hPa 0,0 l/m 8,4 km/h (2 Bft) O-NO 73 2 min 0,000 mm 1,7 UV-I 448 W/m 11,4 C 17,4 C 14,5 km/h (3 Bft) 98,00 %
17.08.2016 09:20 18,4 C 63 % 1011,5 hPa 0,0 l/m 7,1 km/h (2 Bft) NO 48 2 min 0,000 mm 1,7 UV-I 454 W/m 11,2 C 18,1 C 11,3 km/h (2 Bft) 97,22 %
17.08.2016 09:22 18,5 C 62 % 1011,5 hPa 0,0 l/m 9,1 km/h (2 Bft) O-NO 78 2 min 0,000 mm 1,8 UV-I 455 W/m 11,1 C 17,3 C 12,9 km/h (3 Bft) 95,45 %
17.08.2016 09:24 18,6 C 64 % 1011,5 hPa 0,0 l/m 8,9 km/h (2 Bft) O-NO 60 2 min 0,000 mm 1,8 UV-I 458 W/m 11,7 C 17,5 C 14,5 km/h (3 Bft) 100,00 %
17.08.2016 09:26 18,7 C 64 % 1011,6 hPa 0,0 l/m 10,5 km/h (2 Bft) NO 53 2 min 0,000 mm 1,8 UV-I 463 W/m 11,7 C 17,0 C 16,1 km/h (3 Bft) 97,22 %
17.08.2016 09:28 18,6 C 60 % 1011,6 hPa 0,0 l/m 9,9 km/h (2 Bft) NO 52 2 min 0,000 mm 1,9 UV-I 465 W/m 10,7 C 17,1 C 16,1 km/h (3 Bft) 98,21 %
17.08.2016 09:30 18,6 C 62 % 1011,5 hPa 0,0 l/m 9,3 km/h (2 Bft) NO 41 2 min 0,000 mm 1,9 UV-I 470 W/m 11,2 C 17,4 C 14,5 km/h (3 Bft) 100,00 %
17.08.2016 09:32 18,6 C 60 % 1011,6 hPa 0,0 l/m 11,9 km/h (2 Bft) O-NO 74 2 min 0,000 mm 1,9 UV-I 478 W/m 10,7 C 16,4 C 17,7 km/h (3 Bft) 100,00 %
17.08.2016 09:34 18,4 C 61 % 1011,6 hPa 0,0 l/m 11,4 km/h (2 Bft) O-NO 64 2 min 0,000 mm 2,0 UV-I 484 W/m 10,7 C 16,4 C 17,7 km/h (3 Bft) 100,00 %
17.08.2016 09:36 18,4 C 61 % 1011,6 hPa 0,0 l/m 9,6 km/h (2 Bft) O-NO 71 2 min 0,000 mm 2,0 UV-I 491 W/m 10,7 C 17,0 C 17,7 km/h (3 Bft) 100,00 %
17.08.2016 09:38 18,4 C 60 % 1011,7 hPa 0,0 l/m 12,2 km/h (2 Bft) NO 41 2 min 0,000 mm 2,0 UV-I 491 W/m 10,5 C 16,1 C 17,7 km/h (3 Bft) 100,00 %
17.08.2016 09:40 18,4 C 60 % 1011,6 hPa 0,0 l/m 9,2 km/h (2 Bft) O-NO 57 2 min 0,000 mm 2,1 UV-I 491 W/m 10,5 C 17,2 C 14,5 km/h (3 Bft) 100,00 %
17.08.2016 09:42 18,5 C 63 % 1011,6 hPa 0,0 l/m 8,4 km/h (2 Bft) NO 41 2 min 0,000 mm 2,1 UV-I 490 W/m 11,3 C 17,6 C 14,5 km/h (3 Bft) 100,00 %
17.08.2016 09:44 18,6 C 61 % 1011,6 hPa 0,0 l/m 8,4 km/h (2 Bft) O-NO 72 2 min 0,000 mm 2,1 UV-I 502 W/m 10,9 C 17,7 C 14,5 km/h (3 Bft) 100,00 %
17.08.2016 09:46 18,7 C 61 % 1011,7 hPa 0,0 l/m 10,9 km/h (2 Bft) O 81 2 min 0,000 mm 2,2 UV-I 516 W/m 11,0 C 16,9 C 16,1 km/h (3 Bft) 100,00 %
17.08.2016 09:48 18,7 C 62 % 1011,6 hPa 0,0 l/m 12,8 km/h (3 Bft) O-SO 103 2 min 0,000 mm 2,2 UV-I 522 W/m 11,3 C 16,3 C 19,3 km/h (3 Bft) 100,00 %
17.08.2016 09:50 18,7 C 62 % 1011,7 hPa 0,0 l/m 11,5 km/h (2 Bft) O-NO 63 2 min 0,000 mm 2,2 UV-I 516 W/m 11,3 C 16,7 C 19,3 km/h (3 Bft) 98,00 %
17.08.2016 09:52 18,7 C 61 % 1011,6 hPa 0,0 l/m 10,8 km/h (2 Bft) NO 40 2 min 0,000 mm 2,3 UV-I 509 W/m 11,0 C 16,9 C 17,7 km/h (3 Bft) 100,00 %
17.08.2016 09:54 18,7 C 63 % 1011,6 hPa 0,0 l/m 7,4 km/h (2 Bft) O-NO 72 2 min 0,000 mm 2,3 UV-I 528 W/m 11,5 C 18,2 C 12,9 km/h (3 Bft) 98,21 %
17.08.2016 09:56 18,8 C 63 % 1011,7 hPa 0,0 l/m 8,3 km/h (2 Bft) O-NO 67 2 min 0,000 mm 2,4 UV-I 536 W/m 11,6 C 18,0 C 14,5 km/h (3 Bft) 100,00 %
17.08.2016 09:58 18,8 C 62 % 1011,7 hPa 0,0 l/m 12,6 km/h (3 Bft) O-NO 65 2 min 0,000 mm 2,4 UV-I 524 W/m 11,4 C 16,5 C 19,3 km/h (3 Bft) 98,28 %
17.08.2016 10:00 18,8 C 62 % 1011,8 hPa 0,0 l/m 12,4 km/h (3 Bft) O-NO 74 2 min 0,305 mm 2,4 UV-I 526 W/m 11,4 C 16,5 C 16,1 km/h (3 Bft) 98,11 %
17.08.2016 10:02 18,7 C 63 % 1011,7 hPa 0,0 l/m 5,4 km/h (1 Bft) O 90 2 min 0,000 mm 2,5 UV-I 544 W/m 11,5 C 18,7 C 12,9 km/h (3 Bft) 98,04 %
17.08.2016 10:04 18,7 C 64 % 1011,8 hPa 0,0 l/m 10,2 km/h (2 Bft) NO 49 2 min 0,000 mm 2,5 UV-I 557 W/m 11,7 C 17,1 C 20,9 km/h (4 Bft) 98,00 %
17.08.2016 10:06 18,9 C 64 % 1011,8 hPa 0,0 l/m 11,1 km/h (2 Bft) N-NO 19 2 min 0,000 mm 2,6 UV-I 557 W/m 11,9 C 17,0 C 17,7 km/h (3 Bft) 100,00 %
17.08.2016 10:08 19,1 C 65 % 1011,8 hPa 0,0 l/m 8,6 km/h (2 Bft) N-NO 27 2 min 0,000 mm 2,6 UV-I 559 W/m 12,4 C 18,2 C 16,1 km/h (3 Bft) 100,00 %
17.08.2016 10:10 19,3 C 64 % 1011,8 hPa 0,0 l/m 10,1 km/h (2 Bft) NO 38 2 min 0,000 mm 2,7 UV-I 571 W/m 12,3 C 17,8 C 16,1 km/h (3 Bft) 100,00 %
17.08.2016 10:12 19,4 C 62 % 1011,8 hPa 0,0 l/m 9,8 km/h (2 Bft) N-NO 33 2 min 0,000 mm 2,7 UV-I 575 W/m 11,9 C 18,0 C 14,5 km/h (3 Bft) 100,00 %
17.08.2016 10:14 19,5 C 61 % 1011,8 hPa 0,0 l/m 8,1 km/h (2 Bft) NO 43 2 min 0,000 mm 2,8 UV-I 588 W/m 11,8 C 18,8 C 16,1 km/h (3 Bft) 100,00 %
17.08.2016 10:16 19,4 C 62 % 1011,8 hPa 0,0 l/m 6,5 km/h (2 Bft) NO 34 2 min 0,000 mm 2,8 UV-I 608 W/m 11,9 C 19,4 C 11,3 km/h (2 Bft) 100,00 %
17.08.2016 10:18 19,4 C 60 % 1011,8 hPa 0,0 l/m 10,9 km/h (2 Bft) NO 46 2 min 0,000 mm 2,9 UV-I 630 W/m 11,4 C 17,7 C 17,7 km/h (3 Bft) 100,00 %
17.08.2016 10:20 19,4 C 63 % 1011,9 hPa 0,0 l/m 8,8 km/h (2 Bft) O-NO 57 2 min 0,000 mm 2,9 UV-I 637 W/m 12,2 C 18,4 C 17,7 km/h (3 Bft) 100,00 %
17.08.2016 10:22 19,5 C 62 % 1011,8 hPa 0,0 l/m 8,1 km/h (2 Bft) NO 34 2 min 0,000 mm 2,9 UV-I 624 W/m 12,0 C 18,8 C 16,1 km/h (3 Bft) 100,00 %
17.08.2016 10:24 19,4 C 62 % 1011,8 hPa 0,0 l/m 4,2 km/h (1 Bft) NO 44 2 min 0,000 mm 3,0 UV-I 669 W/m 11,9 C 19,4 C 6,4 km/h (2 Bft) 100,00 %
17.08.2016 10:26 19,7 C 61 % 1011,9 hPa 0,0 l/m 10,9 km/h (2 Bft) O-NO 62 2 min 0,000 mm 3,0 UV-I 679 W/m 12,0 C 18,0 C 16,1 km/h (3 Bft) 100,00 %
17.08.2016 10:28 19,7 C 59 % 1011,9 hPa 0,0 l/m 11,1 km/h (2 Bft) O 94 2 min 0,000 mm 3,1 UV-I 679 W/m 11,5 C 18,0 C 16,1 km/h (3 Bft) 98,21 %
17.08.2016 10:30 19,9 C 62 % 1011,9 hPa 0,0 l/m 11,0 km/h (2 Bft) NO 52 2 min 0,000 mm 3,1 UV-I 755 W/m 12,4 C 18,2 C 17,7 km/h (3 Bft) 100,00 %
17.08.2016 10:32 19,9 C 58 % 1011,8 hPa 0,0 l/m 8,7 km/h (2 Bft) NO 39 2 min 0,000 mm 2,8 UV-I 667 W/m 11,4 C 19,0 C 16,1 km/h (3 Bft) 100,00 %
17.08.2016 10:34 19,7 C 57 % 1011,8 hPa 0,0 l/m 6,1 km/h (2 Bft) N-NO 28 0 min 0,000 mm 2,4 UV-I 344 W/m 10,9 C 19,7 C 9,7 km/h (2 Bft) 100,00 %
17.08.2016 10:36 19,4 C 60 % 1011,8 hPa 0,0 l/m 4,4 km/h (1 Bft) NO 51 0 min 0,000 mm 2,3 UV-I 329 W/m 11,4 C 19,4 C 6,4 km/h (2 Bft) 97,87 %
17.08.2016 10:38 19,3 C 61 % 1011,8 hPa 0,0 l/m 10,4 km/h (2 Bft) NO 44 0 min 0,000 mm 2,3 UV-I 324 W/m 11,6 C 17,7 C 17,7 km/h (3 Bft) 100,00 %
17.08.2016 10:40 19,2 C 60 % 1011,8 hPa 0,0 l/m 7,2 km/h (2 Bft) O-NO 66 0 min 0,000 mm 2,3 UV-I 316 W/m 11,2 C 18,9 C 9,7 km/h (2 Bft) 100,00 %
17.08.2016 10:42 19,0 C 61 % 1011,8 hPa 0,0 l/m 8,1 km/h (2 Bft) O-NO 67 0 min 0,000 mm 2,3 UV-I 338 W/m 11,3 C 18,3 C 14,5 km/h (3 Bft) 100,00 %
17.08.2016 10:44 19,1 C 62 % 1011,8 hPa 0,0 l/m 8,9 km/h (2 Bft) O-NO 69 2 min 0,000 mm 2,7 UV-I 390 W/m 11,6 C 18,0 C 14,5 km/h (3 Bft) 96,00 %
17.08.2016 10:46 19,3 C 60 % 1011,9 hPa 0,0 l/m 13,0 km/h (3 Bft) NO 53 0 min 0,000 mm 3,0 UV-I 348 W/m 11,3 C 16,9 C 17,7 km/h (3 Bft) 97,87 %
17.08.2016 10:48 19,4 C 62 % 1011,9 hPa 0,0 l/m 7,8 km/h (2 Bft) N-NO 28 2 min 0,000 mm 3,5 UV-I 576 W/m 11,9 C 18,8 C 16,1 km/h (3 Bft) 97,87 %
17.08.2016 10:50 19,8 C 61 % 1011,9 hPa 0,0 l/m 11,9 km/h (2 Bft) N-NO 17 2 min 0,000 mm 3,5 UV-I 693 W/m 12,1 C 17,8 C 17,7 km/h (3 Bft) 95,74 %
17.08.2016 10:52 20,0 C 60 % 1011,9 hPa 0,0 l/m 8,4 km/h (2 Bft) NO 46 2 min 0,000 mm 3,5 UV-I 645 W/m 12,0 C 19,2 C 14,5 km/h (3 Bft) 100,00 %
17.08.2016 10:54 19,9 C 58 % 1011,8 hPa 0,0 l/m 5,3 km/h (1 Bft) O-NO 67 2 min 0,000 mm 3,7 UV-I 707 W/m 11,4 C 19,9 C 9,7 km/h (2 Bft) 96,43 %
17.08.2016 10:56 20,1 C 59 % 1011,8 hPa 0,0 l/m 5,4 km/h (1 Bft) N-NO 28 2 min 0,000 mm 3,7 UV-I 733 W/m 11,8 C 20,1 C 9,7 km/h (2 Bft) 97,37 %
17.08.2016 10:58 20,3 C 59 % 1011,9 hPa 0,0 l/m 9,9 km/h (2 Bft) O-NO 75 2 min 0,000 mm 3,7 UV-I 721 W/m 12,0 C 19,0 C 16,1 km/h (3 Bft) 98,21 %
17.08.2016 11:00 20,1 C 56 % 1011,9 hPa 0,0 l/m 9,6 km/h (2 Bft) O 81 2 min 0,355 mm 3,2 UV-I 645 W/m 11,0 C 18,9 C 16,1 km/h (3 Bft) 98,00 %
17.08.2016 11:02 19,8 C 57 % 1011,9 hPa 0,0 l/m 8,7 km/h (2 Bft) O-NO 69 2 min 0,000 mm 2,9 UV-I 645 W/m 11,0 C 18,9 C 12,9 km/h (3 Bft) 97,37 %
17.08.2016 11:04 19,7 C 62 % 1011,9 hPa 0,0 l/m 5,8 km/h (2 Bft) O-NO 78 2 min 0,000 mm 3,5 UV-I 624 W/m 12,2 C 19,7 C 11,3 km/h (2 Bft) 97,87 %
17.08.2016 11:06 19,7 C 55 % 1011,9 hPa 0,0 l/m 9,5 km/h (2 Bft) O 89 2 min 0,000 mm 3,9 UV-I 718 W/m 10,4 C 18,5 C 17,7 km/h (3 Bft) 96,43 %
17.08.2016 11:08 19,8 C 58 % 1011,9 hPa 0,0 l/m 7,3 km/h (2 Bft) O 90 2 min 0,000 mm 3,9 UV-I 777 W/m 11,3 C 19,4 C 12,9 km/h (3 Bft) 97,56 %
17.08.2016 11:10 19,8 C 55 % 1011,9 hPa 0,0 l/m 10,4 km/h (2 Bft) O-SO 113 2 min 0,000 mm 3,4 UV-I 775 W/m 10,5 C 18,3 C 14,5 km/h (3 Bft) 100,00 %
17.08.2016 11:12 19,9 C 56 % 1011,9 hPa 0,0 l/m 9,3 km/h (2 Bft) SO 129 0 min 0,000 mm 3,4 UV-I 390 W/m 10,9 C 18,8 C 14,5 km/h (3 Bft) 96,49 %
17.08.2016 11:14 19,9 C 54 % 1011,9 hPa 0,0 l/m 9,4 km/h (2 Bft) O 96 2 min 0,000 mm 3,9 UV-I 513 W/m 10,3 C 18,7 C 16,1 km/h (3 Bft) 96,00 %
17.08.2016 11:16 20,1 C 56 % 1011,9 hPa 0,0 l/m 7,3 km/h (2 Bft) NO 40 2 min 0,000 mm 3,9 UV-I 853 W/m 11,0 C 19,7 C 12,9 km/h (3 Bft) 95,74 %
17.08.2016 11:18 20,2 C 54 % 1011,9 hPa 0,0 l/m 7,3 km/h (2 Bft) O 80 2 min 0,000 mm 4,1 UV-I 856 W/m 10,6 C 19,8 C 12,9 km/h (3 Bft) 97,56 %
17.08.2016 11:20 20,2 C 52 % 1011,9 hPa 0,0 l/m 6,8 km/h (2 Bft) O-NO 60 2 min 0,000 mm 3,8 UV-I 842 W/m 10,0 C 20,0 C 14,5 km/h (3 Bft) 100,00 %
17.08.2016 11:22 20,3 C 54 % 1012,0 hPa 0,0 l/m 6,5 km/h (2 Bft) O 90 2 min 0,000 mm 3,7 UV-I 802 W/m 10,7 C 20,3 C 11,3 km/h (2 Bft) 100,00 %
17.08.2016 11:24 20,3 C 54 % 1011,9 hPa 0,0 l/m 7,9 km/h (2 Bft) O-NO 76 2 min 0,000 mm 3,7 UV-I 613 W/m 10,7 C 19,7 C 12,9 km/h (3 Bft) 100,00 %
17.08.2016 11:26 20,3 C 56 % 1011,9 hPa 0,0 l/m 6,5 km/h (2 Bft) NO 56 2 min 0,000 mm 4,1 UV-I 704 W/m 11,2 C 20,3 C 11,3 km/h (2 Bft) 98,18 %
17.08.2016 11:28 20,3 C 56 % 1011,9 hPa 0,0 l/m 9,2 km/h (2 Bft) NO 41 2 min 0,000 mm 4,0 UV-I 770 W/m 11,2 C 19,2 C 11,3 km/h (2 Bft) 100,00 %
17.08.2016 11:30 20,3 C 54 % 1011,9 hPa 0,0 l/m 7,5 km/h (2 Bft) N-NO 33 2 min 0,000 mm 4,2 UV-I 766 W/m 10,7 C 19,9 C 14,5 km/h (3 Bft) 100,00 %
17.08.2016 11:32 20,5 C 55 % 1011,9 hPa 0,0 l/m 8,0 km/h (2 Bft) O-SO 122 2 min 0,000 mm 4,2 UV-I 755 W/m 11,1 C 19,9 C 16,1 km/h (3 Bft) 100,00 %
17.08.2016 11:34 20,5 C 52 % 1011,9 hPa 0,0 l/m 5,2 km/h (1 Bft) NO 34 2 min 0,000 mm 4,4 UV-I 746 W/m 10,3 C 20,5 C 9,7 km/h (2 Bft) 98,00 %
17.08.2016 11:36 20,7 C 55 % 1011,9 hPa 0,0 l/m 8,1 km/h (2 Bft) N-NO 24 2 min 0,000 mm 4,5 UV-I 750 W/m 11,3 C 20,0 C 19,3 km/h (3 Bft) 100,00 %
17.08.2016 11:38 20,6 C 53 % 1011,8 hPa 0,0 l/m 13,2 km/h (3 Bft) N-NO 27 2 min 0,000 mm 4,5 UV-I 746 W/m 10,7 C 18,4 C 20,9 km/h (4 Bft) 100,00 %
17.08.2016 11:40 20,7 C 54 % 1011,8 hPa 0,0 l/m 7,8 km/h (2 Bft) NO 41 2 min 0,000 mm 4,5 UV-I 741 W/m 11,1 C 20,2 C 17,7 km/h (3 Bft) 98,11 %
17.08.2016 11:42 20,7 C 54 % 1011,9 hPa 0,0 l/m 16,8 km/h (3 Bft) O-NO 63 2 min 0,000 mm 4,5 UV-I 737 W/m 11,1 C 17,7 C 24,1 km/h (4 Bft) 97,37 %
17.08.2016 11:44 20,4 C 52 % 1011,9 hPa 0,0 l/m 12,3 km/h (3 Bft) O 87 2 min 0,000 mm 4,5 UV-I 743 W/m 10,2 C 18,4 C 19,3 km/h (3 Bft) 100,00 %
17.08.2016 11:46 20,3 C 56 % 1011,9 hPa 0,0 l/m 9,2 km/h (2 Bft) N-NO 24 2 min 0,000 mm 4,6 UV-I 752 W/m 11,2 C 19,2 C 17,7 km/h (3 Bft) 100,00 %
17.08.2016 11:48 20,6 C 55 % 1011,8 hPa 0,0 l/m 5,3 km/h (1 Bft) O-NO 61 2 min 0,000 mm 4,7 UV-I 761 W/m 11,2 C 20,6 C 14,5 km/h (3 Bft) 100,00 %
17.08.2016 11:50 20,7 C 55 % 1011,9 hPa 0,0 l/m 10,2 km/h (2 Bft) O-NO 59 2 min 0,000 mm 4,7 UV-I 766 W/m 11,3 C 19,4 C 16,1 km/h (3 Bft) 97,37 %
17.08.2016 11:52 20,7 C 55 % 1011,8 hPa 0,0 l/m 10,6 km/h (2 Bft) N-NO 13 2 min 0,000 mm 4,7 UV-I 768 W/m 11,3 C 19,2 C 19,3 km/h (3 Bft) 100,00 %
17.08.2016 11:54 20,8 C 52 % 1011,8 hPa 0,0 l/m 4,6 km/h (1 Bft) N-NO 19 2 min 0,000 mm 4,7 UV-I 756 W/m 10,6 C 20,8 C 14,5 km/h (3 Bft) 100,00 %
17.08.2016 11:56 20,6 C 52 % 1011,8 hPa 0,0 l/m 4,8 km/h (1 Bft) NW 320 2 min 0,000 mm 4,7 UV-I 752 W/m 10,4 C 20,6 C 12,9 km/h (3 Bft) 100,00 %
17.08.2016 11:58 20,4 C 54 % 1011,8 hPa 0,0 l/m 4,8 km/h (1 Bft) N-NO 31 2 min 0,000 mm 4,7 UV-I 730 W/m 10,8 C 20,4 C 12,9 km/h (3 Bft) 100,00 %
17.08.2016 12:00 20,7 C 57 % 1011,9 hPa 0,0 l/m 6,6 km/h (2 Bft) NO 45 2 min 0,000 mm 4,8 UV-I 751 W/m 11,9 C 20,6 C 12,9 km/h (3 Bft) 100,00 %
17.08.2016 12:02 20,7 C 54 % 1011,8 hPa 0,0 l/m 11,6 km/h (2 Bft) O 80 2 min 0,457 mm 4,8 UV-I 768 W/m 11,1 C 18,9 C 19,3 km/h (3 Bft) 98,00 %
17.08.2016 12:04 20,4 C 51 % 1011,8 hPa 0,0 l/m 9,6 km/h (2 Bft) O-NO 74 2 min 0,000 mm 4,8 UV-I 773 W/m 9,9 C 19,2 C 14,5 km/h (3 Bft) 100,00 %
17.08.2016 12:06 20,4 C 52 % 1011,8 hPa 0,0 l/m 6,4 km/h (2 Bft) O 101 2 min 0,000 mm 4,9 UV-I 777 W/m 10,2 C 20,4 C 12,9 km/h (3 Bft) 100,00 %
17.08.2016 12:08 20,4 C 53 % 1011,8 hPa 0,0 l/m 6,4 km/h (2 Bft) S-SO 147 2 min 0,000 mm 4,9 UV-I 778 W/m 10,5 C 20,4 C 11,3 km/h (2 Bft) 100,00 %
17.08.2016 12:10 20,5 C 57 % 1011,8 hPa 0,0 l/m 5,2 km/h (1 Bft) O 80 2 min 0,000 mm 4,9 UV-I 781 W/m 11,7 C 20,5 C 12,9 km/h (3 Bft) 100,00 %
17.08.2016 12:12 20,4 C 53 % 1011,8 hPa 0,0 l/m 5,9 km/h (2 Bft) O-NO 67 2 min 0,000 mm 4,9 UV-I 778 W/m 10,5 C 20,4 C 8,0 km/h (2 Bft) 100,00 %
17.08.2016 12:14 20,3 C 52 % 1011,8 hPa 0,0 l/m 7,5 km/h (2 Bft) SO 126 2 min 0,000 mm 4,9 UV-I 768 W/m 10,1 C 19,9 C 12,9 km/h (3 Bft) 100,00 %
17.08.2016 12:16 20,4 C 55 % 1011,7 hPa 0,0 l/m 7,3 km/h (2 Bft) O 94 2 min 0,000 mm 4,9 UV-I 769 W/m 11,1 C 20,0 C 11,3 km/h (2 Bft) 100,00 %
17.08.2016 12:18 20,4 C 52 % 1011,7 hPa 0,0 l/m 4,0 km/h (1 Bft) N-NO 18 2 min 0,000 mm 5,0 UV-I 778 W/m 10,2 C 20,4 C 9,7 km/h (2 Bft) 100,00 %
17.08.2016 12:20 20,5 C 53 % 1011,7 hPa 0,0 l/m 4,1 km/h (1 Bft) N-NO 32 2 min 0,000 mm 5,0 UV-I 781 W/m 10,6 C 20,5 C 8,0 km/h (2 Bft) 100,00 %
17.08.2016 12:22 20,7 C 55 % 1011,7 hPa 0,0 l/m 5,1 km/h (1 Bft) NO 47 2 min 0,000 mm 4,2 UV-I 781 W/m 11,3 C 20,7 C 9,7 km/h (2 Bft) 100,00 %
17.08.2016 12:24 20,9 C 53 % 1011,7 hPa 0,0 l/m 7,2 km/h (2 Bft) O-NO 64 2 min 0,000 mm 5,1 UV-I 785 W/m 11,0 C 20,6 C 11,3 km/h (2 Bft) 97,87 %
17.08.2016 12:26 20,9 C 54 % 1011,7 hPa 0,0 l/m 5,3 km/h (1 Bft) N-NO 17 2 min 0,000 mm 4,4 UV-I 792 W/m 11,2 C 20,9 C 9,7 km/h (2 Bft) 100,00 %
17.08.2016 12:28 20,9 C 52 % 1011,6 hPa 0,0 l/m 5,7 km/h (1 Bft) O-NO 70 2 min 0,000 mm 5,1 UV-I 792 W/m 10,7 C 20,9 C 14,5 km/h (3 Bft) 100,00 %
17.08.2016 12:30 21,0 C 53 % 1011,6 hPa 0,0 l/m 6,2 km/h (2 Bft) O-NO 72 2 min 0,000 mm 5,1 UV-I 794 W/m 11,0 C 21,0 C 11,3 km/h (2 Bft) 100,00 %
17.08.2016 12:32 20,9 C 52 % 1011,7 hPa 0,0 l/m 7,3 km/h (2 Bft) O-SO 120 2 min 0,000 mm 5,1 UV-I 793 W/m 10,7 C 20,6 C 11,3 km/h (2 Bft) 100,00 %
17.08.2016 12:34 20,7 C 51 % 1011,7 hPa 0,0 l/m 3,6 km/h (1 Bft) O-SO 122 2 min 0,000 mm 5,1 UV-I 794 W/m 10,2 C 20,7 C 6,4 km/h (2 Bft) 98,44 %
17.08.2016 12:36 20,6 C 57 % 1011,6 hPa 0,0 l/m 5,7 km/h (1 Bft) NO 43 2 min 0,000 mm 5,2 UV-I 795 W/m 11,8 C 20,6 C 11,3 km/h (2 Bft) 98,00 %
17.08.2016 12:38 21,0 C 54 % 1011,6 hPa 0,0 l/m 10,9 km/h (2 Bft) N-NO 22 2 min 0,000 mm 5,2 UV-I 798 W/m 11,3 C 19,5 C 17,7 km/h (3 Bft) 95,12 %
17.08.2016 12:40 21,1 C 55 % 1011,7 hPa 0,0 l/m 5,6 km/h (1 Bft) N-NO 24 2 min 0,000 mm 5,2 UV-I 799 W/m 11,7 C 21,1 C 8,0 km/h (2 Bft) 95,12 %
17.08.2016 12:42 21,0 C 53 % 1011,7 hPa 0,0 l/m 4,0 km/h (1 Bft) NO 51 2 min 0,000 mm 5,2 UV-I 801 W/m 11,0 C 21,0 C 8,0 km/h (2 Bft) 98,00 %
17.08.2016 12:44 20,9 C 54 % 1011,6 hPa 0,0 l/m 5,1 km/h (1 Bft) N-NW 347 2 min 0,000 mm 5,3 UV-I 803 W/m 11,2 C 20,9 C 11,3 km/h (2 Bft) 97,87 %
17.08.2016 12:46 20,8 C 53 % 1011,6 hPa 0,0 l/m 1,6 km/h (1 Bft) NO 55 2 min 0,000 mm 5,3 UV-I 803 W/m 10,9 C 20,8 C 4,8 km/h (1 Bft) 98,00 %
17.08.2016 12:48 21,1 C 54 % 1011,6 hPa 0,0 l/m 5,0 km/h (1 Bft) O-NO 63 2 min 0,000 mm 5,3 UV-I 803 W/m 11,4 C 21,1 C 8,0 km/h (2 Bft) 97,87 %
17.08.2016 12:50 21,1 C 51 % 1011,6 hPa 0,0 l/m 8,4 km/h (2 Bft) O 87 2 min 0,000 mm 5,3 UV-I 806 W/m 10,6 C 20,4 C 16,1 km/h (3 Bft) 96,00 %
17.08.2016 12:52 21,2 C 52 % 1011,6 hPa 0,0 l/m 4,2 km/h (1 Bft) O-SO 117 2 min 0,000 mm 5,2 UV-I 804 W/m 10,9 C 21,2 C 9,7 km/h (2 Bft) 97,73 %
17.08.2016 12:54 20,9 C 54 % 1011,6 hPa 0,0 l/m 2,1 km/h (1 Bft) O-NO 57 2 min 0,000 mm 5,2 UV-I 801 W/m 11,2 C 20,9 C 4,8 km/h (1 Bft) 97,56 %
17.08.2016 12:56 21,1 C 55 % 1011,6 hPa 0,0 l/m 4,4 km/h (1 Bft) NO 55 2 min 0,000 mm 5,2 UV-I 799 W/m 11,7 C 21,1 C 8,0 km/h (2 Bft) 98,00 %
17.08.2016 12:58 21,1 C 53 % 1011,6 hPa 0,0 l/m 4,6 km/h (1 Bft) NO 48 2 min 0,000 mm 5,3 UV-I 798 W/m 11,1 C 21,1 C 14,5 km/h (3 Bft) 98,00 %
17.08.2016 13:00 21,3 C 56 % 1011,6 hPa 0,0 l/m 8,3 km/h (2 Bft) N-NO 29 2 min 0,508 mm 5,3 UV-I 799 W/m 12,2 C 20,6 C 14,5 km/h (3 Bft) 97,96 %
17.08.2016 13:02 21,6 C 54 % 1011,6 hPa 0,0 l/m 6,2 km/h (2 Bft) N-NO 18 2 min 0,000 mm 5,2 UV-I 801 W/m 11,9 C 21,6 C 9,7 km/h (2 Bft) 100,00 %
17.08.2016 13:04 21,8 C 56 % 1011,6 hPa 0,0 l/m 6,0 km/h (2 Bft) O-NO 67 2 min 0,000 mm 5,2 UV-I 796 W/m 12,6 C 21,8 C 12,9 km/h (3 Bft) 97,26 %
17.08.2016 13:06 21,6 C 52 % 1011,6 hPa 0,0 l/m 5,7 km/h (1 Bft) O-NO 65 2 min 0,000 mm 5,2 UV-I 799 W/m 11,3 C 21,6 C 16,1 km/h (3 Bft) 98,11 %
17.08.2016 13:08 21,3 C 52 % 1011,7 hPa 0,0 l/m 10,5 km/h (2 Bft) NO 51 2 min 0,000 mm 5,2 UV-I 800 W/m 11,0 C 19,9 C 17,7 km/h (3 Bft) 97,73 %
17.08.2016 13:10 21,3 C 53 % 1011,6 hPa 0,0 l/m 6,6 km/h (2 Bft) NO 51 2 min 0,000 mm 5,1 UV-I 796 W/m 11,3 C 21,2 C 11,3 km/h (2 Bft) 96,23 %
17.08.2016 13:12 21,4 C 54 % 1011,5 hPa 0,0 l/m 9,9 km/h (2 Bft) NO 42 2 min 0,000 mm 5,1 UV-I 791 W/m 11,7 C 20,2 C 16,1 km/h (3 Bft) 97,87 %
17.08.2016 13:14 21,5 C 53 % 1011,6 hPa 0,0 l/m 5,5 km/h (1 Bft) N-NO 28 2 min 0,000 mm 5,1 UV-I 788 W/m 11,5 C 21,5 C 8,0 km/h (2 Bft) 97,87 %
17.08.2016 13:16 21,6 C 52 % 1011,6 hPa 0,0 l/m 3,7 km/h (1 Bft) NO 53 2 min 0,000 mm 5,2 UV-I 801 W/m 11,3 C 21,6 C 8,0 km/h (2 Bft) 100,00 %
17.08.2016 13:18 21,3 C 54 % 1011,5 hPa 0,0 l/m 4,2 km/h (1 Bft) N-NO 32 2 min 0,000 mm 5,2 UV-I 805 W/m 11,6 C 21,3 C 8,0 km/h (2 Bft) 100,00 %
17.08.2016 13:20 21,6 C 55 % 1011,5 hPa 0,0 l/m 7,4 km/h (2 Bft) NO 55 2 min 0,000 mm 5,2 UV-I 807 W/m 12,2 C 21,2 C 12,9 km/h (3 Bft) 100,00 %
17.08.2016 13:22 21,7 C 55 % 1011,5 hPa 0,0 l/m 4,4 km/h (1 Bft) NO 51 2 min 0,000 mm 5,2 UV-I 803 W/m 12,3 C 21,7 C 8,0 km/h (2 Bft) 100,00 %
17.08.2016 13:24 21,9 C 55 % 1011,5 hPa 0,0 l/m 2,4 km/h (1 Bft) NO 54 2 min 0,000 mm 5,1 UV-I 797 W/m 12,4 C 21,9 C 6,4 km/h (2 Bft) 100,00 %
17.08.2016 13:26 21,9 C 52 % 1011,4 hPa 0,0 l/m 2,6 km/h (1 Bft) N 10 2 min 0,000 mm 5,2 UV-I 800 W/m 11,6 C 21,9 C 6,4 km/h (2 Bft) 97,87 %
17.08.2016 13:28 21,8 C 52 % 1011,4 hPa 0,0 l/m 4,3 km/h (1 Bft) N 355 2 min 0,000 mm 5,1 UV-I 803 W/m 11,5 C 21,8 C 11,3 km/h (2 Bft) 100,00 %
17.08.2016 13:30 21,8 C 52 % 1011,5 hPa 0,0 l/m 2,6 km/h (1 Bft) NO 46 2 min 0,000 mm 5,2 UV-I 814 W/m 11,5 C 21,8 C 4,8 km/h (1 Bft) 100,00 %
17.08.2016 13:32 21,9 C 55 % 1011,4 hPa 0,0 l/m 5,5 km/h (1 Bft) O-NO 69 2 min 0,000 mm 5,1 UV-I 807 W/m 12,4 C 21,9 C 8,0 km/h (2 Bft) 98,21 %
17.08.2016 13:34 22,0 C 54 % 1011,4 hPa 0,0 l/m 10,6 km/h (2 Bft) NO 55 2 min 0,000 mm 5,1 UV-I 795 W/m 12,3 C 20,7 C 16,1 km/h (3 Bft) 100,00 %
17.08.2016 13:36 21,9 C 51 % 1011,4 hPa 0,0 l/m 9,8 km/h (2 Bft) O-NO 62 2 min 0,000 mm 5,0 UV-I 791 W/m 11,3 C 20,8 C 16,1 km/h (3 Bft) 100,00 %
17.08.2016 13:38 21,8 C 51 % 1011,4 hPa 0,0 l/m 6,0 km/h (2 Bft) O-NO 61 2 min 0,000 mm 5,0 UV-I 795 W/m 11,2 C 21,8 C 12,9 km/h (3 Bft) 97,56 %
17.08.2016 13:40 21,9 C 53 % 1011,4 hPa 0,0 l/m 7,7 km/h (2 Bft) N 9 2 min 0,000 mm 5,1 UV-I 800 W/m 11,9 C 21,4 C 14,5 km/h (3 Bft) 100,00 %
17.08.2016 13:42 21,9 C 51 % 1011,3 hPa 0,0 l/m 2,4 km/h (1 Bft) W-SW 248 2 min 0,000 mm 5,1 UV-I 801 W/m 11,3 C 21,9 C 4,8 km/h (1 Bft) 100,00 %
17.08.2016 13:44 21,9 C 54 % 1011,3 hPa 0,0 l/m 3,3 km/h (1 Bft) NO 34 2 min 0,000 mm 5,1 UV-I 801 W/m 12,2 C 21,9 C 11,3 km/h (2 Bft) 97,56 %
17.08.2016 13:46 22,3 C 53 % 1011,3 hPa 0,0 l/m 3,8 km/h (1 Bft) NO 43 2 min 0,000 mm 5,1 UV-I 800 W/m 12,2 C 22,3 C 12,9 km/h (3 Bft) 100,00 %
17.08.2016 13:48 22,3 C 50 % 1011,2 hPa 0,0 l/m 6,4 km/h (2 Bft) N 5 2 min 0,000 mm 5,0 UV-I 793 W/m 11,4 C 22,3 C 16,1 km/h (3 Bft) 100,00 %
17.08.2016 13:50 22,5 C 51 % 1011,3 hPa 0,0 l/m 3,6 km/h (1 Bft) N 355 2 min 0,000 mm 5,0 UV-I 788 W/m 11,8 C 22,5 C 8,0 km/h (2 Bft) 100,00 %
17.08.2016 13:52 22,5 C 52 % 1011,3 hPa 0,0 l/m 3,3 km/h (1 Bft) N 355 2 min 0,000 mm 5,0 UV-I 791 W/m 12,1 C 22,5 C 6,4 km/h (2 Bft) 100,00 %
17.08.2016 13:54 22,5 C 49 % 1011,3 hPa 0,0 l/m 5,3 km/h (1 Bft) N-NO 12 2 min 0,000 mm 5,0 UV-I 792 W/m 11,2 C 22,5 C 12,9 km/h (3 Bft) 100,00 %
17.08.2016 13:56 22,6 C 51 % 1011,3 hPa 0,0 l/m 4,1 km/h (1 Bft) N 5 2 min 0,000 mm 5,0 UV-I 789 W/m 11,9 C 22,6 C 6,4 km/h (2 Bft) 100,00 %
17.08.2016 13:58 22,4 C 51 % 1011,3 hPa 0,0 l/m 3,4 km/h (1 Bft) NW 324 2 min 0,000 mm 5,0 UV-I 793 W/m 11,8 C 22,4 C 8,0 km/h (2 Bft) 100,00 %
17.08.2016 14:00 22,3 C 52 % 1011,3 hPa 0,0 l/m 4,1 km/h (1 Bft) N-NW 337 2 min 0,508 mm 5,0 UV-I 794 W/m 12,0 C 22,3 C 8,0 km/h (2 Bft) 100,00 %
17.08.2016 14:02 22,1 C 50 % 1011,2 hPa 0,0 l/m 4,1 km/h (1 Bft) W-NW 295 2 min 0,000 mm 4,9 UV-I 790 W/m 11,2 C 22,1 C 9,7 km/h (2 Bft) 100,00 %
17.08.2016 14:04 21,9 C 53 % 1011,3 hPa 0,0 l/m 2,8 km/h (1 Bft) W-NW 286 2 min 0,000 mm 4,9 UV-I 786 W/m 11,9 C 21,9 C 6,4 km/h (2 Bft) 97,37 %
17.08.2016 14:06 22,1 C 55 % 1011,2 hPa 0,0 l/m 3,5 km/h (1 Bft) N 11 2 min 0,000 mm 4,8 UV-I 771 W/m 12,6 C 22,1 C 4,8 km/h (1 Bft) 97,14 %
17.08.2016 14:08 22,1 C 50 % 1011,2 hPa 0,0 l/m 3,3 km/h (1 Bft) N-NO 28 2 min 0,000 mm 4,8 UV-I 771 W/m 11,2 C 22,1 C 9,7 km/h (2 Bft) 98,46 %
17.08.2016 14:10 22,2 C 52 % 1011,2 hPa 0,0 l/m 6,2 km/h (2 Bft) O-NO 59 2 min 0,000 mm 4,8 UV-I 777 W/m 11,9 C 22,2 C 9,7 km/h (2 Bft) 100,00 %
17.08.2016 14:12 22,4 C 53 % 1011,2 hPa 0,0 l/m 8,6 km/h (2 Bft) N-NO 17 2 min 0,000 mm 4,8 UV-I 777 W/m 12,3 C 21,7 C 14,5 km/h (3 Bft) 97,87 %
17.08.2016 14:14 22,4 C 52 % 1011,2 hPa 0,0 l/m 6,5 km/h (2 Bft) O 82 2 min 0,000 mm 4,7 UV-I 782 W/m 12,1 C 22,4 C 9,7 km/h (2 Bft) 100,00 %
17.08.2016 14:16 22,2 C 50 % 1011,2 hPa 0,0 l/m 4,5 km/h (1 Bft) NO 39 2 min 0,000 mm 4,7 UV-I 787 W/m 11,3 C 22,2 C 6,4 km/h (2 Bft) 100,00 %
17.08.2016 14:18 22,2 C 51 % 1011,2 hPa 0,0 l/m 2,1 km/h (1 Bft) N 9 2 min 0,000 mm 4,7 UV-I 790 W/m 11,6 C 22,2 C 4,8 km/h (1 Bft) 100,00 %
17.08.2016 14:20 22,1 C 52 % 1011,1 hPa 0,0 l/m 3,3 km/h (1 Bft) N-NW 334 2 min 0,000 mm 4,6 UV-I 773 W/m 11,8 C 22,1 C 6,4 km/h (2 Bft) 100,00 %
17.08.2016 14:22 22,2 C 50 % 1011,1 hPa 0,0 l/m 4,3 km/h (1 Bft) N-NW 347 2 min 0,000 mm 4,2 UV-I 730 W/m 11,3 C 22,2 C 6,4 km/h (2 Bft) 100,00 %
17.08.2016 14:24 22,1 C 50 % 1011,1 hPa 0,0 l/m 3,5 km/h (1 Bft) N-NO 21 2 min 0,000 mm 4,5 UV-I 772 W/m 11,2 C 22,1 C 9,7 km/h (2 Bft) 100,00 %
17.08.2016 14:26 22,2 C 50 % 1011,1 hPa 0,0 l/m 2,6 km/h (1 Bft) N 360 2 min 0,000 mm 4,4 UV-I 785 W/m 11,3 C 22,2 C 6,4 km/h (2 Bft) 100,00 %
17.08.2016 14:28 22,2 C 49 % 1011,1 hPa 0,0 l/m 1,8 km/h (1 Bft) NW 326 2 min 0,000 mm 3,9 UV-I 813 W/m 11,0 C 22,2 C 4,8 km/h (1 Bft) 100,00 %
17.08.2016 14:30 21,9 C 49 % 1011,1 hPa 0,0 l/m 1,9 km/h (1 Bft) N 350 0 min 0,000 mm 3,2 UV-I 228 W/m 10,7 C 21,9 C 4,8 km/h (1 Bft) 100,00 %
17.08.2016 14:32 21,8 C 50 % 1011,1 hPa 0,0 l/m 1,2 km/h (1 Bft) N 5 2 min 0,000 mm 4,3 UV-I 597 W/m 10,9 C 21,8 C 3,2 km/h (1 Bft) 100,00 %
17.08.2016 14:34 21,9 C 56 % 1011,0 hPa 0,0 l/m 1,4 km/h (1 Bft) N-NO 21 2 min 0,000 mm 4,6 UV-I 780 W/m 12,7 C 21,9 C 3,2 km/h (1 Bft) 97,56 %
17.08.2016 14:36 22,3 C 52 % 1011,1 hPa 0,0 l/m 1,3 km/h (1 Bft) NW 325 2 min 0,000 mm 4,6 UV-I 787 W/m 12,0 C 22,3 C 3,2 km/h (1 Bft) 96,23 %
17.08.2016 14:38 22,6 C 50 % 1011,0 hPa 0,0 l/m 3,7 km/h (1 Bft) NW 321 2 min 0,000 mm 4,6 UV-I 789 W/m 11,6 C 22,6 C 9,7 km/h (2 Bft) 97,44 %
17.08.2016 14:40 22,8 C 49 % 1011,0 hPa 0,0 l/m 5,1 km/h (1 Bft) NW 317 2 min 0,000 mm 4,6 UV-I 787 W/m 11,5 C 22,8 C 12,9 km/h (3 Bft) 97,87 %
17.08.2016 14:42 22,7 C 48 % 1011,0 hPa 0,0 l/m 4,8 km/h (1 Bft) N-NO 32 2 min 0,000 mm 4,5 UV-I 776 W/m 11,1 C 22,7 C 12,9 km/h (3 Bft) 98,00 %
17.08.2016 14:44 22,5 C 47 % 1011,0 hPa 0,0 l/m 5,2 km/h (1 Bft) NO 38 2 min 0,000 mm 4,4 UV-I 763 W/m 10,6 C 22,5 C 11,3 km/h (2 Bft) 98,11 %
17.08.2016 14:46 22,2 C 46 % 1011,0 hPa 0,0 l/m 4,8 km/h (1 Bft) O-NO 61 2 min 0,000 mm 4,3 UV-I 757 W/m 10,0 C 22,2 C 8,0 km/h (2 Bft) 97,56 %
17.08.2016 14:48 22,3 C 52 % 1011,0 hPa 0,0 l/m 6,0 km/h (2 Bft) O-NO 61 2 min 0,000 mm 4,3 UV-I 755 W/m 12,0 C 22,3 C 8,0 km/h (2 Bft) 96,23 %
17.08.2016 14:50 22,6 C 51 % 1011,0 hPa 0,0 l/m 3,1 km/h (1 Bft) W 271 2 min 0,000 mm 4,2 UV-I 735 W/m 11,9 C 22,6 C 9,7 km/h (2 Bft) 97,37 %
17.08.2016 14:52 22,7 C 48 % 1010,9 hPa 0,0 l/m 6,9 km/h (2 Bft) W-SW 239 2 min 0,000 mm 3,9 UV-I 729 W/m 11,1 C 22,5 C 12,9 km/h (3 Bft) 94,00 %
17.08.2016 14:54 22,4 C 47 % 1010,9 hPa 0,0 l/m 5,2 km/h (1 Bft) W-SW 244 2 min 0,000 mm 3,7 UV-I 733 W/m 10,5 C 22,4 C 8,0 km/h (2 Bft) 98,00 %
17.08.2016 14:56 22,1 C 49 % 1010,9 hPa 0,0 l/m 1,7 km/h (1 Bft) W-SW 244 2 min 0,000 mm 3,8 UV-I 724 W/m 10,9 C 22,1 C 4,8 km/h (1 Bft) 97,37 %
17.08.2016 14:58 22,0 C 50 % 1010,8 hPa 0,0 l/m 0,9 km/h (0 Bft) SW 232 2 min 0,000 mm 3,5 UV-I 705 W/m 11,1 C 22,0 C 3,2 km/h (1 Bft) 100,00 %
17.08.2016 15:00 21,9 C 50 % 1010,9 hPa 0,0 l/m 1,8 km/h (1 Bft) S-SO 156 2 min 0,458 mm 3,3 UV-I 649 W/m 11,0 C 21,9 C 4,8 km/h (1 Bft) 98,00 %
17.08.2016 15:02 21,9 C 48 % 1010,8 hPa 0,0 l/m 2,4 km/h (1 Bft) S-SO 157 2 min 0,000 mm 3,8 UV-I 505 W/m 10,4 C 21,9 C 6,4 km/h (2 Bft) 98,11 %
17.08.2016 15:04 22,0 C 49 % 1010,8 hPa 0,0 l/m 2,3 km/h (1 Bft) O 101 2 min 0,000 mm 3,9 UV-I 719 W/m 10,8 C 22,0 C 6,4 km/h (2 Bft) 97,37 %
17.08.2016 15:06 22,2 C 50 % 1010,8 hPa 0,0 l/m 2,8 km/h (1 Bft) O-NO 73 2 min 0,000 mm 3,5 UV-I 730 W/m 11,3 C 22,2 C 6,4 km/h (2 Bft) 100,00 %
17.08.2016 15:08 22,3 C 50 % 1010,8 hPa 0,0 l/m 3,3 km/h (1 Bft) N-NO 19 0 min 0,000 mm 2,9 UV-I 358 W/m 11,4 C 22,3 C 9,7 km/h (2 Bft) 100,00 %
17.08.2016 15:10 22,3 C 49 % 1010,8 hPa 0,0 l/m 2,2 km/h (1 Bft) N-NO 14 0 min 0,000 mm 3,5 UV-I 302 W/m 11,1 C 22,3 C 4,8 km/h (1 Bft) 94,00 %
17.08.2016 15:12 22,4 C 51 % 1010,8 hPa 0,0 l/m 6,1 km/h (2 Bft) NO 40 0 min 0,000 mm 3,7 UV-I 349 W/m 11,8 C 22,4 C 12,9 km/h (3 Bft) 98,00 %
17.08.2016 15:14 22,4 C 49 % 1010,8 hPa 0,0 l/m 4,8 km/h (1 Bft) O-NO 76 2 min 0,000 mm 3,7 UV-I 722 W/m 11,2 C 22,4 C 9,7 km/h (2 Bft) 100,00 %
17.08.2016 15:16 22,6 C 53 % 1010,8 hPa 0,0 l/m 2,9 km/h (1 Bft) W 261 2 min 0,000 mm 3,7 UV-I 748 W/m 12,5 C 22,6 C 6,4 km/h (2 Bft) 100,00 %
17.08.2016 15:18 22,8 C 49 % 1010,7 hPa 0,0 l/m 3,2 km/h (1 Bft) NW 306 2 min 0,000 mm 3,8 UV-I 746 W/m 11,5 C 22,8 C 4,8 km/h (1 Bft) 100,00 %
17.08.2016 15:20 22,8 C 50 % 1010,7 hPa 0,0 l/m 3,3 km/h (1 Bft) W-SW 252 2 min 0,000 mm 3,7 UV-I 734 W/m 11,8 C 22,8 C 6,4 km/h (2 Bft) 100,00 %
17.08.2016 15:22 22,9 C 50 % 1010,7 hPa 0,0 l/m 8,0 km/h (2 Bft) N-NO 26 2 min 0,000 mm 3,6 UV-I 727 W/m 11,9 C 22,4 C 14,5 km/h (3 Bft) 100,00 %
17.08.2016 15:24 22,9 C 50 % 1010,7 hPa 0,0 l/m 8,5 km/h (2 Bft) N 11 2 min 0,000 mm 3,1 UV-I 564 W/m 11,9 C 22,2 C 14,5 km/h (3 Bft) 100,00 %
17.08.2016 15:26 22,9 C 52 % 1010,7 hPa 0,0 l/m 6,0 km/h (2 Bft) NO 55 2 min 0,000 mm 3,5 UV-I 659 W/m 12,5 C 22,9 C 16,1 km/h (3 Bft) 100,00 %
17.08.2016 15:28 23,1 C 50 % 1010,7 hPa 0,0 l/m 10,8 km/h (2 Bft) N-NO 23 2 min 0,000 mm 3,5 UV-I 691 W/m 12,1 C 21,9 C 16,1 km/h (3 Bft) 100,00 %
17.08.2016 15:30 23,1 C 49 % 1010,7 hPa 0,0 l/m 10,4 km/h (2 Bft) N-NO 22 2 min 0,000 mm 3,4 UV-I 687 W/m 11,8 C 22,0 C 14,5 km/h (3 Bft) 100,00 %
17.08.2016 15:32 23,1 C 50 % 1010,7 hPa 0,0 l/m 8,4 km/h (2 Bft) N 5 2 min 0,000 mm 3,4 UV-I 679 W/m 12,1 C 22,5 C 14,5 km/h (3 Bft) 98,11 %
17.08.2016 15:34 23,0 C 48 % 1010,7 hPa 0,0 l/m 7,4 km/h (2 Bft) N 10 2 min 0,000 mm 3,4 UV-I 683 W/m 11,4 C 22,7 C 14,5 km/h (3 Bft) 98,21 %
17.08.2016 15:36 23,1 C 50 % 1010,6 hPa 0,0 l/m 7,0 km/h (2 Bft) NO 53 2 min 0,000 mm 3,4 UV-I 685 W/m 12,1 C 22,9 C 9,7 km/h (2 Bft) 100,00 %
17.08.2016 15:38 23,2 C 49 % 1010,6 hPa 0,0 l/m 7,8 km/h (2 Bft) N-NO 17 2 min 0,000 mm 3,3 UV-I 683 W/m 11,9 C 22,8 C 14,5 km/h (3 Bft) 100,00 %
17.08.2016 15:40 23,0 C 48 % 1010,6 hPa 0,0 l/m 7,0 km/h (2 Bft) NO 39 2 min 0,000 mm 3,1 UV-I 682 W/m 11,4 C 22,8 C 14,5 km/h (3 Bft) 100,00 %
17.08.2016 15:42 22,9 C 49 % 1010,6 hPa 0,0 l/m 8,5 km/h (2 Bft) NO 34 2 min 0,000 mm 3,1 UV-I 673 W/m 11,6 C 22,2 C 14,5 km/h (3 Bft) 100,00 %
17.08.2016 15:44 23,0 C 50 % 1010,6 hPa 0,0 l/m 3,3 km/h (1 Bft) N 355 2 min 0,000 mm 3,1 UV-I 664 W/m 12,0 C 23,0 C 6,4 km/h (2 Bft) 100,00 %
17.08.2016 15:46 23,0 C 49 % 1010,6 hPa 0,0 l/m 1,1 km/h (1 Bft) N 355 2 min 0,000 mm 3,2 UV-I 664 W/m 11,7 C 23,0 C 3,2 km/h (1 Bft) 100,00 %
17.08.2016 15:48 22,9 C 48 % 1010,5 hPa 0,0 l/m 2,1 km/h (1 Bft) O-SO 115 2 min 0,000 mm 3,1 UV-I 656 W/m 11,3 C 22,9 C 4,8 km/h (1 Bft) 100,00 %
17.08.2016 15:50 23,0 C 47 % 1010,5 hPa 0,0 l/m 2,2 km/h (1 Bft) SO 142 2 min 0,000 mm 3,1 UV-I 655 W/m 11,1 C 23,0 C 4,8 km/h (1 Bft) 100,00 %
17.08.2016 15:52 23,0 C 49 % 1010,5 hPa 0,0 l/m 4,3 km/h (1 Bft) SO 134 2 min 0,000 mm 3,1 UV-I 658 W/m 11,7 C 23,0 C 6,4 km/h (2 Bft) 97,87 %
17.08.2016 15:54 23,1 C 48 % 1010,5 hPa 0,0 l/m 3,9 km/h (1 Bft) S-SO 155 2 min 0,000 mm 3,0 UV-I 662 W/m 11,5 C 23,1 C 8,0 km/h (2 Bft) 100,00 %
17.08.2016 15:56 23,1 C 51 % 1010,4 hPa 0,0 l/m 3,1 km/h (1 Bft) O 87 2 min 0,000 mm 3,0 UV-I 666 W/m 12,4 C 23,1 C 6,4 km/h (2 Bft) 100,00 %
17.08.2016 15:58 23,2 C 50 % 1010,5 hPa 0,0 l/m 4,8 km/h (1 Bft) N-NO 22 2 min 0,000 mm 3,0 UV-I 666 W/m 12,2 C 23,2 C 9,7 km/h (2 Bft) 100,00 %
17.08.2016 16:00 23,4 C 49 % 1010,5 hPa 0,0 l/m 6,7 km/h (2 Bft) N 11 2 min 0,000 mm 2,9 UV-I 654 W/m 12,1 C 23,3 C 12,9 km/h (3 Bft) 100,00 %
17.08.2016 16:02 23,4 C 50 % 1010,5 hPa 0,0 l/m 3,3 km/h (1 Bft) N-NO 23 2 min 0,431 mm 2,8 UV-I 635 W/m 12,4 C 23,4 C 14,5 km/h (3 Bft) 100,00 %
17.08.2016 16:04 23,5 C 50 % 1010,4 hPa 0,0 l/m 12,3 km/h (3 Bft) N-NO 26 2 min 0,000 mm 2,7 UV-I 619 W/m 12,5 C 22,0 C 16,1 km/h (3 Bft) 100,00 %
17.08.2016 16:06 23,4 C 50 % 1010,4 hPa 0,0 l/m 10,5 km/h (2 Bft) N-NO 15 2 min 0,000 mm 2,7 UV-I 608 W/m 12,4 C 22,3 C 16,1 km/h (3 Bft) 100,00 %
17.08.2016 16:08 23,3 C 49 % 1010,4 hPa 0,0 l/m 5,6 km/h (1 Bft) NO 42 2 min 0,000 mm 2,7 UV-I 601 W/m 12,0 C 23,3 C 9,7 km/h (2 Bft) 100,00 %
17.08.2016 16:10 23,2 C 51 % 1010,4 hPa 0,0 l/m 6,8 km/h (2 Bft) NO 40 2 min 0,000 mm 2,6 UV-I 596 W/m 12,5 C 23,1 C 9,7 km/h (2 Bft) 100,00 %
17.08.2016 16:12 23,3 C 50 % 1010,4 hPa 0,0 l/m 8,0 km/h (2 Bft) NO 43 2 min 0,000 mm 2,6 UV-I 587 W/m 12,3 C 22,8 C 11,3 km/h (2 Bft) 98,00 %
17.08.2016 16:14 23,3 C 50 % 1010,4 hPa 0,0 l/m 8,9 km/h (2 Bft) N-NW 344 2 min 0,000 mm 2,5 UV-I 582 W/m 12,3 C 22,6 C 19,3 km/h (3 Bft) 100,00 %
17.08.2016 16:16 23,4 C 50 % 1010,4 hPa 0,0 l/m 10,9 km/h (2 Bft) NO 38 2 min 0,000 mm 2,5 UV-I 582 W/m 12,4 C 22,2 C 16,1 km/h (3 Bft) 100,00 %
17.08.2016 16:18 23,2 C 48 % 1010,4 hPa 0,0 l/m 5,6 km/h (1 Bft) N 11 2 min 0,000 mm 2,4 UV-I 579 W/m 11,6 C 23,2 C 12,9 km/h (3 Bft) 100,00 %
17.08.2016 16:20 23,1 C 50 % 1010,4 hPa 0,0 l/m 3,0 km/h (1 Bft) N-NO 22 2 min 0,000 mm 2,4 UV-I 565 W/m 12,1 C 23,1 C 6,4 km/h (2 Bft) 97,87 %
17.08.2016 16:22 22,9 C 47 % 1010,4 hPa 0,0 l/m 2,6 km/h (1 Bft) O-NO 57 2 min 0,000 mm 2,3 UV-I 540 W/m 11,0 C 22,9 C 6,4 km/h (2 Bft) 100,00 %
17.08.2016 16:24 22,7 C 50 % 1010,3 hPa 0,0 l/m 2,4 km/h (1 Bft) O-NO 62 2 min 0,000 mm 2,1 UV-I 536 W/m 11,7 C 22,7 C 4,8 km/h (1 Bft) 100,00 %
17.08.2016 16:26 22,7 C 51 % 1010,3 hPa 0,0 l/m 5,8 km/h (2 Bft) NO 39 2 min 0,000 mm 2,2 UV-I 536 W/m 12,0 C 22,7 C 8,0 km/h (2 Bft) 97,87 %
17.08.2016 16:28 22,9 C 52 % 1010,3 hPa 0,0 l/m 3,2 km/h (1 Bft) N-NO 13 2 min 0,000 mm 2,2 UV-I 536 W/m 12,5 C 22,9 C 8,0 km/h (2 Bft) 100,00 %
17.08.2016 16:30 23,0 C 51 % 1010,3 hPa 0,0 l/m 6,3 km/h (2 Bft) N-NO 26 2 min 0,000 mm 2,1 UV-I 528 W/m 12,3 C 23,0 C 14,5 km/h (3 Bft) 98,11 %
17.08.2016 16:32 22,9 C 49 % 1010,4 hPa 0,0 l/m 4,4 km/h (1 Bft) NO 34 2 min 0,000 mm 2,2 UV-I 541 W/m 11,6 C 22,9 C 9,7 km/h (2 Bft) 97,22 %
17.08.2016 16:34 23,0 C 50 % 1010,3 hPa 0,0 l/m 4,0 km/h (1 Bft) NO 49 2 min 0,000 mm 2,1 UV-I 541 W/m 12,0 C 23,0 C 8,0 km/h (2 Bft) 96,49 %
17.08.2016 16:36 22,9 C 47 % 1010,3 hPa 0,0 l/m 4,4 km/h (1 Bft) O 82 2 min 0,000 mm 1,9 UV-I 543 W/m 11,0 C 22,9 C 6,4 km/h (2 Bft) 97,44 %
17.08.2016 16:38 22,8 C 50 % 1010,3 hPa 0,0 l/m 2,9 km/h (1 Bft) O-NO 61 2 min 0,000 mm 2,0 UV-I 543 W/m 11,8 C 22,8 C 4,8 km/h (1 Bft) 96,00 %
17.08.2016 16:40 22,9 C 52 % 1010,3 hPa 0,0 l/m 5,8 km/h (2 Bft) N-NO 25 2 min 0,000 mm 2,0 UV-I 521 W/m 12,5 C 22,9 C 9,7 km/h (2 Bft) 97,56 %
17.08.2016 16:42 23,0 C 50 % 1010,3 hPa 0,0 l/m 6,6 km/h (2 Bft) NO 35 2 min 0,000 mm 2,0 UV-I 513 W/m 12,0 C 22,9 C 11,3 km/h (2 Bft) 98,11 %
17.08.2016 16:44 23,1 C 53 % 1010,3 hPa 0,0 l/m 4,6 km/h (1 Bft) NO 36 2 min 0,000 mm 1,9 UV-I 502 W/m 13,0 C 23,1 C 6,4 km/h (2 Bft) 98,00 %
17.08.2016 16:46 23,2 C 52 % 1010,3 hPa 0,0 l/m 8,0 km/h (2 Bft) NO 45 2 min 0,000 mm 1,8 UV-I 499 W/m 12,8 C 22,7 C 12,9 km/h (3 Bft) 97,56 %
17.08.2016 16:48 23,2 C 51 % 1010,3 hPa 0,0 l/m 6,5 km/h (2 Bft) NO 42 2 min 0,000 mm 1,8 UV-I 504 W/m 12,5 C 23,2 C 11,3 km/h (2 Bft) 98,00 %
17.08.2016 16:50 23,3 C 50 % 1010,3 hPa 0,0 l/m 6,0 km/h (2 Bft) O-NO 60 2 min 0,000 mm 1,8 UV-I 509 W/m 12,3 C 23,3 C 8,0 km/h (2 Bft) 98,00 %
17.08.2016 16:52 23,2 C 49 % 1010,3 hPa 0,0 l/m 5,1 km/h (1 Bft) O-SO 103 2 min 0,000 mm 1,8 UV-I 504 W/m 11,9 C 23,2 C 8,0 km/h (2 Bft) 95,74 %
17.08.2016 16:54 23,1 C 48 % 1010,3 hPa 0,0 l/m 5,1 km/h (1 Bft) O-SO 119 2 min 0,000 mm 1,8 UV-I 489 W/m 11,5 C 23,1 C 9,7 km/h (2 Bft) 97,37 %
17.08.2016 16:56 23,1 C 51 % 1010,2 hPa 0,0 l/m 4,5 km/h (1 Bft) O-NO 62 2 min 0,000 mm 1,7 UV-I 478 W/m 12,4 C 23,1 C 6,4 km/h (2 Bft) 96,00 %
17.08.2016 16:58 23,1 C 50 % 1010,2 hPa 0,0 l/m 2,7 km/h (1 Bft) N-NO 31 2 min 0,000 mm 1,7 UV-I 469 W/m 12,1 C 23,1 C 4,8 km/h (1 Bft) 98,00 %
17.08.2016 17:00 23,2 C 50 % 1010,2 hPa 0,0 l/m 2,8 km/h (1 Bft) N-NO 28 2 min 0,000 mm 1,6 UV-I 453 W/m 12,2 C 23,2 C 4,8 km/h (1 Bft) 97,56 %
17.08.2016 17:02 23,2 C 50 % 1010,2 hPa 0,0 l/m 3,1 km/h (1 Bft) N 349 2 min 0,356 mm 1,5 UV-I 437 W/m 12,2 C 23,2 C 8,0 km/h (2 Bft) 100,00 %
17.08.2016 17:04 23,3 C 53 % 1010,1 hPa 0,0 l/m 3,3 km/h (1 Bft) O-NO 67 2 min 0,000 mm 1,5 UV-I 441 W/m 13,2 C 23,3 C 8,0 km/h (2 Bft) 100,00 %
17.08.2016 17:06 23,1 C 50 % 1010,1 hPa 0,0 l/m 4,9 km/h (1 Bft) O-NO 76 2 min 0,000 mm 1,5 UV-I 438 W/m 12,1 C 23,1 C 8,0 km/h (2 Bft) 97,37 %
17.08.2016 17:08 22,9 C 50 % 1010,1 hPa 0,0 l/m 4,9 km/h (1 Bft) O-NO 65 2 min 0,000 mm 1,5 UV-I 435 W/m 11,9 C 22,9 C 8,0 km/h (2 Bft) 100,00 %
17.08.2016 17:10 22,9 C 49 % 1010,1 hPa 0,0 l/m 5,7 km/h (1 Bft) O-NO 74 2 min 0,000 mm 1,4 UV-I 433 W/m 11,6 C 22,9 C 11,3 km/h (2 Bft) 100,00 %
17.08.2016 17:12 23,1 C 51 % 1010,1 hPa 0,0 l/m 4,9 km/h (1 Bft) O-NO 60 2 min 0,000 mm 1,4 UV-I 427 W/m 12,4 C 23,1 C 8,0 km/h (2 Bft) 97,87 %
17.08.2016 17:14 23,1 C 50 % 1010,1 hPa 0,0 l/m 4,6 km/h (1 Bft) NO 46 2 min 0,000 mm 1,4 UV-I 422 W/m 12,1 C 23,1 C 8,0 km/h (2 Bft) 100,00 %
17.08.2016 17:16 23,1 C 51 % 1010,1 hPa 0,0 l/m 3,1 km/h (1 Bft) O-NO 68 2 min 0,000 mm 1,3 UV-I 420 W/m 12,4 C 23,1 C 4,8 km/h (1 Bft) 100,00 %
17.08.2016 17:18 23,1 C 49 % 1010,1 hPa 0,0 l/m 5,5 km/h (1 Bft) O-NO 68 2 min 0,000 mm 1,3 UV-I 415 W/m 11,8 C 23,1 C 8,0 km/h (2 Bft) 97,37 %
17.08.2016 17:20 23,1 C 47 % 1010,1 hPa 0,0 l/m 8,2 km/h (2 Bft) O-NO 59 2 min 0,000 mm 1,3 UV-I 407 W/m 11,2 C 22,5 C 14,5 km/h (3 Bft) 100,00 %
17.08.2016 17:22 22,9 C 51 % 1010,1 hPa 0,0 l/m 4,5 km/h (1 Bft) O-NO 76 2 min 0,000 mm 1,2 UV-I 400 W/m 12,2 C 22,9 C 8,0 km/h (2 Bft) 100,00 %
17.08.2016 17:24 22,9 C 49 % 1010,1 hPa 0,0 l/m 4,6 km/h (1 Bft) O-NO 70 2 min 0,000 mm 1,2 UV-I 394 W/m 11,6 C 22,9 C 6,4 km/h (2 Bft) 100,00 %
17.08.2016 17:26 22,9 C 50 % 1010,1 hPa 0,0 l/m 3,3 km/h (1 Bft) O-SO 119 2 min 0,000 mm 1,2 UV-I 389 W/m 11,9 C 22,9 C 4,8 km/h (1 Bft) 100,00 %
17.08.2016 17:28 22,9 C 50 % 1010,1 hPa 0,0 l/m 4,2 km/h (1 Bft) O-NO 71 2 min 0,000 mm 1,1 UV-I 383 W/m 11,9 C 22,9 C 4,8 km/h (1 Bft) 100,00 %
17.08.2016 17:30 22,9 C 51 % 1010,0 hPa 0,0 l/m 3,0 km/h (1 Bft) O-SO 119 2 min 0,000 mm 1,1 UV-I 377 W/m 12,2 C 22,9 C 4,8 km/h (1 Bft) 98,00 %
17.08.2016 17:32 23,1 C 50 % 1010,0 hPa 0,0 l/m 3,8 km/h (1 Bft) SO 134 2 min 0,000 mm 1,1 UV-I 372 W/m 12,1 C 23,1 C 8,0 km/h (2 Bft) 100,00 %
17.08.2016 17:34 23,0 C 47 % 1010,0 hPa 0,0 l/m 3,3 km/h (1 Bft) S-SO 154 2 min 0,000 mm 1,1 UV-I 367 W/m 11,1 C 23,0 C 6,4 km/h (2 Bft) 100,00 %
17.08.2016 17:36 22,9 C 50 % 1010,0 hPa 0,0 l/m 0,5 km/h (0 Bft) S-SO 154 2 min 0,000 mm 1,0 UV-I 363 W/m 11,9 C 22,9 C 3,2 km/h (1 Bft) 100,00 %
17.08.2016 17:38 23,1 C 51 % 1010,0 hPa 0,0 l/m 0,7 km/h (0 Bft) O-SO 121 2 min 0,000 mm 1,0 UV-I 361 W/m 12,4 C 23,1 C 3,2 km/h (1 Bft) 100,00 %
17.08.2016 17:40 23,2 C 50 % 1009,9 hPa 0,0 l/m 3,3 km/h (1 Bft) N-NO 25 2 min 0,000 mm 1,0 UV-I 362 W/m 12,2 C 23,2 C 6,4 km/h (2 Bft) 100,00 %
17.08.2016 17:42 23,2 C 48 % 1009,9 hPa 0,0 l/m 5,6 km/h (1 Bft) N 5 2 min 0,000 mm 1,0 UV-I 361 W/m 11,6 C 23,2 C 11,3 km/h (2 Bft) 100,00 %
17.08.2016 17:44 23,2 C 51 % 1009,9 hPa 0,0 l/m 3,6 km/h (1 Bft) NW 323 2 min 0,000 mm 0,9 UV-I 350 W/m 12,5 C 23,2 C 6,4 km/h (2 Bft) 100,00 %
17.08.2016 17:46 23,2 C 49 % 1009,9 hPa 0,0 l/m 1,5 km/h (1 Bft) N-NW 348 2 min 0,000 mm 0,9 UV-I 342 W/m 11,9 C 23,2 C 3,2 km/h (1 Bft) 98,00 %
17.08.2016 17:48 23,1 C 48 % 1009,9 hPa 0,0 l/m 1,8 km/h (1 Bft) NW 323 2 min 0,000 mm 0,9 UV-I 332 W/m 11,5 C 23,1 C 4,8 km/h (1 Bft) 97,37 %
17.08.2016 17:50 23,0 C 50 % 1009,9 hPa 0,0 l/m 2,1 km/h (1 Bft) N-NW 327 2 min 0,000 mm 0,8 UV-I 325 W/m 12,0 C 23,0 C 4,8 km/h (1 Bft) 100,00 %
17.08.2016 17:52 22,8 C 49 % 1009,9 hPa 0,0 l/m 2,7 km/h (1 Bft) NW 317 2 min 0,000 mm 0,8 UV-I 319 W/m 11,5 C 22,8 C 4,8 km/h (1 Bft) 100,00 %
17.08.2016 17:54 22,8 C 49 % 1009,8 hPa 0,0 l/m 1,3 km/h (1 Bft) N-NW 346 2 min 0,000 mm 0,8 UV-I 308 W/m 11,5 C 22,8 C 3,2 km/h (1 Bft) 100,00 %
17.08.2016 17:56 22,7 C 49 % 1009,8 hPa 0,0 l/m 2,7 km/h (1 Bft) NW 317 2 min 0,000 mm 0,8 UV-I 303 W/m 11,4 C 22,7 C 4,8 km/h (1 Bft) 100,00 %
17.08.2016 17:58 22,8 C 49 % 1009,8 hPa 0,0 l/m 1,6 km/h (1 Bft) N-NW 328 2 min 0,000 mm 0,7 UV-I 299 W/m 11,5 C 22,8 C 3,2 km/h (1 Bft) 98,00 %
17.08.2016 18:00 22,8 C 50 % 1009,8 hPa 0,0 l/m 1,6 km/h (1 Bft) N-NW 327 2 min 0,254 mm 0,7 UV-I 295 W/m 11,8 C 22,8 C 3,2 km/h (1 Bft) 100,00 %
17.08.2016 18:02 22,8 C 49 % 1009,8 hPa 0,0 l/m 1,5 km/h (1 Bft) N-NW 329 2 min 0,000 mm 0,7 UV-I 286 W/m 11,5 C 22,8 C 3,2 km/h (1 Bft) 100,00 %
17.08.2016 18:04 22,7 C 51 % 1009,8 hPa 0,0 l/m 1,6 km/h (1 Bft) N-NW 329 2 min 0,000 mm 0,7 UV-I 281 W/m 12,0 C 22,7 C 3,2 km/h (1 Bft) 100,00 %
17.08.2016 18:06 22,6 C 48 % 1009,8 hPa 0,0 l/m 0,8 km/h (0 Bft) N-NW 329 2 min 0,000 mm 0,6 UV-I 276 W/m 11,0 C 22,6 C 1,6 km/h (1 Bft) 100,00 %
17.08.2016 18:08 22,6 C 48 % 1009,8 hPa 0,0 l/m 1,2 km/h (1 Bft) N-NW 333 2 min 0,000 mm 0,6 UV-I 269 W/m 11,0 C 22,6 C 3,2 km/h (1 Bft) 100,00 %
17.08.2016 18:10 22,7 C 52 % 1009,7 hPa 0,0 l/m 5,8 km/h (2 Bft) N-NO 24 2 min 0,000 mm 0,6 UV-I 264 W/m 12,3 C 22,7 C 12,9 km/h (3 Bft) 100,00 %
17.08.2016 18:12 22,7 C 50 % 1009,7 hPa 0,0 l/m 1,5 km/h (1 Bft) N 5 2 min 0,000 mm 0,6 UV-I 257 W/m 11,7 C 22,7 C 6,4 km/h (2 Bft) 100,00 %
17.08.2016 18:14 22,7 C 50 % 1009,7 hPa 0,0 l/m 2,3 km/h (1 Bft) N 350 2 min 0,000 mm 0,5 UV-I 251 W/m 11,7 C 22,7 C 4,8 km/h (1 Bft) 100,00 %
17.08.2016 18:16 22,8 C 51 % 1009,6 hPa 0,0 l/m 6,6 km/h (2 Bft) NO 40 2 min 0,000 mm 0,5 UV-I 244 W/m 12,1 C 22,7 C 9,7 km/h (2 Bft) 98,53 %
17.08.2016 18:18 22,7 C 50 % 1009,7 hPa 0,0 l/m 5,3 km/h (1 Bft) N-NO 22 2 min 0,000 mm 0,5 UV-I 238 W/m 11,7 C 22,7 C 6,4 km/h (2 Bft) 100,00 %
17.08.2016 18:20 22,7 C 50 % 1009,7 hPa 0,0 l/m 4,2 km/h (1 Bft) N-NO 31 2 min 0,000 mm 0,5 UV-I 232 W/m 11,7 C 22,7 C 6,4 km/h (2 Bft) 98,00 %
17.08.2016 18:22 22,6 C 48 % 1009,7 hPa 0,0 l/m 4,2 km/h (1 Bft) SO 126 2 min 0,000 mm 0,5 UV-I 227 W/m 11,0 C 22,6 C 9,7 km/h (2 Bft) 97,87 %
17.08.2016 18:24 22,6 C 50 % 1009,7 hPa 0,0 l/m 1,1 km/h (1 Bft) SO 126 2 min 0,000 mm 0,3 UV-I 221 W/m 11,6 C 22,6 C 3,2 km/h (1 Bft) 95,74 %
17.08.2016 18:26 22,6 C 51 % 1009,6 hPa 0,0 l/m 3,1 km/h (1 Bft) NO 36 2 min 0,000 mm 0,0 UV-I 214 W/m 11,9 C 22,6 C 8,0 km/h (2 Bft) 97,37 %
17.08.2016 18:28 22,6 C 52 % 1009,6 hPa 0,0 l/m 3,9 km/h (1 Bft) NO 41 2 min 0,000 mm 0,0 UV-I 206 W/m 12,2 C 22,6 C 4,8 km/h (1 Bft) 96,00 %
17.08.2016 18:30 22,6 C 51 % 1009,6 hPa 0,0 l/m 4,5 km/h (1 Bft) N-NO 32 2 min 0,000 mm 0,0 UV-I 200 W/m 11,9 C 22,6 C 6,4 km/h (2 Bft) 98,11 %
17.08.2016 18:32 22,6 C 50 % 1009,7 hPa 0,0 l/m 2,8 km/h (1 Bft) N-NO 32 2 min 0,000 mm 0,0 UV-I 195 W/m 11,6 C 22,6 C 4,8 km/h (1 Bft) 94,87 %
17.08.2016 18:34 22,5 C 50 % 1009,7 hPa 0,0 l/m 3,4 km/h (1 Bft) N-NO 26 2 min 0,000 mm 0,0 UV-I 189 W/m 11,5 C 22,5 C 6,4 km/h (2 Bft) 98,00 %
17.08.2016 18:36 22,5 C 50 % 1009,7 hPa 0,0 l/m 3,8 km/h (1 Bft) N-NO 25 2 min 0,000 mm 0,0 UV-I 184 W/m 11,5 C 22,5 C 6,4 km/h (2 Bft) 97,87 %
17.08.2016 18:38 22,4 C 52 % 1009,7 hPa 0,0 l/m 3,4 km/h (1 Bft) NO 44 2 min 0,000 mm 0,0 UV-I 179 W/m 12,1 C 22,4 C 6,4 km/h (2 Bft) 95,74 %
17.08.2016 18:40 22,4 C 51 % 1009,6 hPa 0,0 l/m 3,6 km/h (1 Bft) O-NO 69 2 min 0,000 mm 0,0 UV-I 172 W/m 11,8 C 22,4 C 8,0 km/h (2 Bft) 98,11 %
17.08.2016 18:42 22,4 C 50 % 1009,6 hPa 0,0 l/m 4,3 km/h (1 Bft) NO 52 2 min 0,000 mm 0,0 UV-I 168 W/m 11,5 C 22,4 C 8,0 km/h (2 Bft) 97,37 %
17.08.2016 18:44 22,4 C 50 % 1009,6 hPa 0,0 l/m 4,8 km/h (1 Bft) O-NO 69 2 min 0,000 mm 0,0 UV-I 162 W/m 11,5 C 22,4 C 6,4 km/h (2 Bft) 97,87 %
17.08.2016 18:46 22,4 C 53 % 1009,7 hPa 0,0 l/m 2,3 km/h (1 Bft) O-NO 69 2 min 0,000 mm 0,0 UV-I 155 W/m 12,3 C 22,4 C 3,2 km/h (1 Bft) 98,11 %
17.08.2016 18:48 22,5 C 51 % 1009,7 hPa 0,0 l/m 1,8 km/h (1 Bft) O-NO 69 2 min 0,000 mm 0,0 UV-I 146 W/m 11,8 C 22,5 C 3,2 km/h (1 Bft) 98,00 %
17.08.2016 18:50 22,4 C 51 % 1009,6 hPa 0,0 l/m 2,3 km/h (1 Bft) O 96 2 min 0,000 mm 0,0 UV-I 140 W/m 11,8 C 22,4 C 4,8 km/h (1 Bft) 97,14 %
17.08.2016 18:52 22,4 C 51 % 1009,7 hPa 0,0 l/m 3,8 km/h (1 Bft) O-SO 113 2 min 0,000 mm 0,0 UV-I 132 W/m 11,8 C 22,4 C 6,4 km/h (2 Bft) 98,00 %
17.08.2016 18:54 22,4 C 52 % 1009,7 hPa 0,0 l/m 4,6 km/h (1 Bft) O-SO 119 2 min 0,000 mm 0,0 UV-I 127 W/m 12,1 C 22,4 C 6,4 km/h (2 Bft) 97,87 %
17.08.2016 18:56 22,3 C 53 % 1009,7 hPa 0,0 l/m 4,7 km/h (1 Bft) O-SO 117 2 min 0,000 mm 0,0 UV-I 121 W/m 12,2 C 22,3 C 6,4 km/h (2 Bft) 97,87 %
17.08.2016 18:58 22,2 C 52 % 1009,6 hPa 0,0 l/m 4,4 km/h (1 Bft) O-SO 117 2 min 0,000 mm 0,0 UV-I 115 W/m 11,9 C 22,2 C 4,8 km/h (1 Bft) 98,11 %
17.08.2016 19:00 22,2 C 53 % 1009,6 hPa 0,0 l/m 4,1 km/h (1 Bft) O-SO 115 0 min 0,152 mm 0,0 UV-I 102 W/m 12,2 C 22,2 C 4,8 km/h (1 Bft) 100,00 %
17.08.2016 19:02 22,2 C 53 % 1009,6 hPa 0,0 l/m 3,4 km/h (1 Bft) O-SO 114 2 min 0,000 mm 0,0 UV-I 101 W/m 12,2 C 22,2 C 4,8 km/h (1 Bft) 94,00 %
17.08.2016 19:04 22,1 C 53 % 1009,6 hPa 0,0 l/m 6,1 km/h (2 Bft) O 87 2 min 0,000 mm 0,0 UV-I 98 W/m 12,1 C 22,1 C 9,7 km/h (2 Bft) 100,00 %
17.08.2016 19:06 22,1 C 54 % 1009,6 hPa 0,0 l/m 4,6 km/h (1 Bft) O-SO 104 0 min 0,000 mm 0,0 UV-I 92 W/m 12,3 C 22,1 C 8,0 km/h (2 Bft) 100,00 %
17.08.2016 19:08 22,0 C 55 % 1009,6 hPa 0,0 l/m 5,9 km/h (2 Bft) O 101 0 min 0,000 mm 0,0 UV-I 88 W/m 12,5 C 22,0 C 9,7 km/h (2 Bft) 98,00 %
17.08.2016 19:10 21,9 C 55 % 1009,7 hPa 0,0 l/m 3,6 km/h (1 Bft) O 89 0 min 0,000 mm 0,0 UV-I 84 W/m 12,4 C 21,9 C 6,4 km/h (2 Bft) 100,00 %
17.08.2016 19:12 21,9 C 56 % 1009,7 hPa 0,0 l/m 4,1 km/h (1 Bft) O-NO 71 0 min 0,000 mm 0,0 UV-I 78 W/m 12,7 C 21,9 C 6,4 km/h (2 Bft) 100,00 %
17.08.2016 19:14 21,8 C 56 % 1009,7 hPa 0,0 l/m 3,7 km/h (1 Bft) O 86 0 min 0,000 mm 0,0 UV-I 76 W/m 12,6 C 21,8 C 6,4 km/h (2 Bft) 100,00 %
17.08.2016 19:16 21,7 C 56 % 1009,7 hPa 0,0 l/m 3,2 km/h (1 Bft) O 86 0 min 0,000 mm 0,0 UV-I 71 W/m 12,5 C 21,7 C 6,4 km/h (2 Bft) 100,00 %
17.08.2016 19:18 21,7 C 58 % 1009,7 hPa 0,0 l/m 3,6 km/h (1 Bft) O 87 0 min 0,000 mm 0,0 UV-I 69 W/m 13,1 C 21,7 C 4,8 km/h (1 Bft) 100,00 %
17.08.2016 19:20 21,7 C 58 % 1009,6 hPa 0,0 l/m 3,9 km/h (1 Bft) O 87 0 min 0,000 mm 0,0 UV-I 65 W/m 13,1 C 21,7 C 4,8 km/h (1 Bft) 100,00 %
17.08.2016 19:22 21,6 C 58 % 1009,6 hPa 0,0 l/m 3,6 km/h (1 Bft) O 87 0 min 0,000 mm 0,0 UV-I 62 W/m 13,0 C 21,6 C 4,8 km/h (1 Bft) 100,00 %
17.08.2016 19:24 21,5 C 57 % 1009,6 hPa 0,0 l/m 3,5 km/h (1 Bft) O 88 0 min 0,000 mm 0,0 UV-I 58 W/m 12,6 C 21,5 C 4,8 km/h (1 Bft) 100,00 %
17.08.2016 19:26 21,5 C 57 % 1009,6 hPa 0,0 l/m 3,6 km/h (1 Bft) O 88 0 min 0,000 mm 0,0 UV-I 54 W/m 12,6 C 21,5 C 4,8 km/h (1 Bft) 100,00 %
17.08.2016 19:28 21,4 C 58 % 1009,6 hPa 0,0 l/m 3,4 km/h (1 Bft) O 88 0 min 0,000 mm 0,0 UV-I 50 W/m 12,8 C 21,4 C 4,8 km/h (1 Bft) 100,00 %
17.08.2016 19:30 21,4 C 59 % 1009,7 hPa 0,0 l/m 2,8 km/h (1 Bft) O 88 0 min 0,000 mm 0,0 UV-I 48 W/m 13,0 C 21,4 C 4,8 km/h (1 Bft) 100,00 %
17.08.2016 19:32 21,3 C 58 % 1009,7 hPa 0,0 l/m 3,6 km/h (1 Bft) O-SO 116 0 min 0,000 mm 0,0 UV-I 44 W/m 12,7 C 21,3 C 4,8 km/h (1 Bft) 100,00 %
17.08.2016 19:34 21,2 C 60 % 1009,7 hPa 0,0 l/m 3,3 km/h (1 Bft) O-SO 116 0 min 0,000 mm 0,0 UV-I 40 W/m 13,1 C 21,2 C 4,8 km/h (1 Bft) 100,00 %
17.08.2016 19:36 21,1 C 61 % 1009,7 hPa 0,0 l/m 3,0 km/h (1 Bft) O-SO 116 0 min 0,000 mm 0,0 UV-I 38 W/m 13,3 C 21,1 C 4,8 km/h (1 Bft) 97,87 %
17.08.2016 19:38 20,9 C 64 % 1009,7 hPa 0,0 l/m 3,2 km/h (1 Bft) O-SO 116 0 min 0,000 mm 0,0 UV-I 35 W/m 13,8 C 20,9 C 4,8 km/h (1 Bft) 100,00 %
17.08.2016 19:40 20,7 C 63 % 1009,8 hPa 0,0 l/m 3,6 km/h (1 Bft) O-SO 115 0 min 0,000 mm 0,0 UV-I 32 W/m 13,4 C 20,7 C 4,8 km/h (1 Bft) 100,00 %
17.08.2016 19:42 20,6 C 63 % 1009,7 hPa 0,0 l/m 3,4 km/h (1 Bft) O-SO 115 0 min 0,000 mm 0,0 UV-I 30 W/m 13,3 C 20,6 C 4,8 km/h (1 Bft) 98,00 %
17.08.2016 19:44 20,4 C 63 % 1009,7 hPa 0,0 l/m 3,2 km/h (1 Bft) O-SO 115 0 min 0,000 mm 0,0 UV-I 26 W/m 13,1 C 20,4 C 4,8 km/h (1 Bft) 100,00 %
17.08.2016 19:46 20,3 C 65 % 1009,8 hPa 0,0 l/m 3,5 km/h (1 Bft) O-SO 115 0 min 0,000 mm 0,0 UV-I 25 W/m 13,5 C 20,3 C 4,8 km/h (1 Bft) 100,00 %
17.08.2016 19:48 20,1 C 65 % 1009,8 hPa 0,0 l/m 3,5 km/h (1 Bft) O-SO 115 0 min 0,000 mm 0,0 UV-I 22 W/m 13,3 C 20,1 C 4,8 km/h (1 Bft) 97,87 %
17.08.2016 19:50 19,9 C 64 % 1009,8 hPa 0,0 l/m 3,2 km/h (1 Bft) O-SO 115 0 min 0,000 mm 0,0 UV-I 21 W/m 12,9 C 19,9 C 4,8 km/h (1 Bft) 100,00 %
17.08.2016 19:52 19,8 C 66 % 1009,8 hPa 0,0 l/m 3,7 km/h (1 Bft) O-SO 115 0 min 0,000 mm 0,0 UV-I 19 W/m 13,3 C 19,8 C 4,8 km/h (1 Bft) 97,87 %
17.08.2016 19:54 19,7 C 65 % 1009,8 hPa 0,0 l/m 3,8 km/h (1 Bft) O-SO 115 0 min 0,000 mm 0,0 UV-I 18 W/m 12,9 C 19,7 C 4,8 km/h (1 Bft) 100,00 %
17.08.2016 19:56 19,6 C 66 % 1009,8 hPa 0,0 l/m 4,3 km/h (1 Bft) O-SO 115 0 min 0,000 mm 0,0 UV-I 16 W/m 13,1 C 19,6 C 4,8 km/h (1 Bft) 100,00 %
17.08.2016 19:58 19,5 C 66 % 1009,9 hPa 0,0 l/m 4,4 km/h (1 Bft) O-SO 115 2 min 0,000 mm 0,0 UV-I 15 W/m 13,0 C 19,5 C 6,4 km/h (2 Bft) 100,00 %
17.08.2016 20:00 19,3 C 68 % 1009,9 hPa 0,0 l/m 4,0 km/h (1 Bft) O-SO 115 2 min 0,051 mm 0,0 UV-I 13 W/m 13,2 C 19,3 C 4,8 km/h (1 Bft) 100,00 %
17.08.2016 20:02 19,2 C 68 % 1009,9 hPa 0,0 l/m 4,5 km/h (1 Bft) O-SO 114 2 min 0,000 mm 0,0 UV-I 12 W/m 13,1 C 19,2 C 6,4 km/h (2 Bft) 97,87 %
17.08.2016 20:04 19,0 C 68 % 1009,9 hPa 0,0 l/m 5,1 km/h (1 Bft) O-SO 109 0 min 0,000 mm 0,0 UV-I 11 W/m 13,0 C 19,0 C 6,4 km/h (2 Bft) 95,74 %
17.08.2016 20:06 18,9 C 68 % 1010,0 hPa 0,0 l/m 4,6 km/h (1 Bft) O-SO 105 0 min 0,000 mm 0,0 UV-I 9 W/m 12,9 C 18,9 C 4,8 km/h (1 Bft) 100,00 %
17.08.2016 20:08 18,8 C 68 % 1010,0 hPa 0,0 l/m 4,7 km/h (1 Bft) O 94 0 min 0,000 mm 0,0 UV-I 7 W/m 12,8 C 18,8 C 6,4 km/h (2 Bft) 100,00 %
17.08.2016 20:10 18,8 C 69 % 1010,0 hPa 0,0 l/m 4,6 km/h (1 Bft) O 88 0 min 0,000 mm 0,0 UV-I 7 W/m 13,0 C 18,8 C 9,7 km/h (2 Bft) 100,00 %
17.08.2016 20:12 18,8 C 68 % 1010,0 hPa 0,0 l/m 5,3 km/h (1 Bft) O 90 0 min 0,000 mm 0,0 UV-I 6 W/m 12,8 C 18,8 C 6,4 km/h (2 Bft) 100,00 %
17.08.2016 20:14 18,8 C 67 % 1010,0 hPa 0,0 l/m 4,7 km/h (1 Bft) O 82 0 min 0,000 mm 0,0 UV-I 5 W/m 12,5 C 18,8 C 9,7 km/h (2 Bft) 100,00 %
17.08.2016 20:16 18,8 C 67 % 1010,0 hPa 0,0 l/m 4,9 km/h (1 Bft) O 85 0 min 0,000 mm 0,0 UV-I 5 W/m 12,5 C 18,8 C 6,4 km/h (2 Bft) 97,87 %
17.08.2016 20:18 18,8 C 66 % 1010,0 hPa 0,0 l/m 5,0 km/h (1 Bft) O-NO 75 0 min 0,000 mm 0,0 UV-I 2 W/m 12,3 C 18,8 C 6,4 km/h (2 Bft) 97,56 %
17.08.2016 20:20 18,9 C 65 % 1010,1 hPa 0,0 l/m 5,2 km/h (1 Bft) O 87 0 min 0,000 mm 0,0 UV-I 0 W/m 12,2 C 18,9 C 8,0 km/h (2 Bft) 96,23 %
17.08.2016 20:22 19,0 C 65 % 1010,0 hPa 0,0 l/m 5,1 km/h (1 Bft) O 82 0 min 0,000 mm 0,0 UV-I 0 W/m 12,3 C 19,0 C 8,0 km/h (2 Bft) 97,87 %
17.08.2016 20:24 18,9 C 65 % 1010,1 hPa 0,0 l/m 4,2 km/h (1 Bft) O 86 0 min 0,000 mm 0,0 UV-I 0 W/m 12,2 C 18,9 C 6,4 km/h (2 Bft) 98,11 %
17.08.2016 20:26 18,9 C 65 % 1010,1 hPa 0,0 l/m 4,6 km/h (1 Bft) O 94 0 min 0,000 mm 0,0 UV-I 0 W/m 12,2 C 18,9 C 6,4 km/h (2 Bft) 97,56 %
17.08.2016 20:28 18,9 C 66 % 1010,1 hPa 0,0 l/m 4,1 km/h (1 Bft) O 94 0 min 0,000 mm 0,0 UV-I 0 W/m 12,4 C 18,9 C 6,4 km/h (2 Bft) 96,00 %
17.08.2016 20:30 18,8 C 67 % 1010,1 hPa 0,0 l/m 4,4 km/h (1 Bft) O 94 0 min 0,000 mm 0,0 UV-I 0 W/m 12,5 C 18,8 C 6,4 km/h (2 Bft) 97,22 %
17.08.2016 20:32 18,6 C 68 % 1010,1 hPa 0,0 l/m 3,5 km/h (1 Bft) O 94 0 min 0,000 mm 0,0 UV-I 0 W/m 12,6 C 18,6 C 4,8 km/h (1 Bft) 98,00 %
17.08.2016 20:34 18,4 C 69 % 1010,1 hPa 0,0 l/m 3,7 km/h (1 Bft) O 89 0 min 0,000 mm 0,0 UV-I 0 W/m 12,6 C 18,4 C 6,4 km/h (2 Bft) 97,87 %
17.08.2016 20:36 18,3 C 69 % 1010,1 hPa 0,0 l/m 4,3 km/h (1 Bft) O 101 0 min 0,000 mm 0,0 UV-I 0 W/m 12,5 C 18,3 C 6,4 km/h (2 Bft) 96,00 %
17.08.2016 20:38 18,3 C 68 % 1010,2 hPa 0,0 l/m 4,2 km/h (1 Bft) O 98 0 min 0,000 mm 0,0 UV-I 0 W/m 12,3 C 18,3 C 4,8 km/h (1 Bft) 96,23 %
17.08.2016 20:40 18,3 C 68 % 1010,2 hPa 0,0 l/m 4,2 km/h (1 Bft) O 98 0 min 0,000 mm 0,0 UV-I 0 W/m 12,3 C 18,3 C 6,4 km/h (2 Bft) 100,00 %
17.08.2016 20:42 18,3 C 69 % 1010,2 hPa 0,0 l/m 4,7 km/h (1 Bft) SO 145 0 min 0,000 mm 0,0 UV-I 0 W/m 12,5 C 18,3 C 9,7 km/h (2 Bft) 93,62 %
17.08.2016 20:44 18,2 C 70 % 1010,2 hPa 0,0 l/m 4,8 km/h (1 Bft) O-SO 123 0 min 0,000 mm 0,0 UV-I 0 W/m 12,6 C 18,2 C 8,0 km/h (2 Bft) 98,00 %
17.08.2016 20:46 18,1 C 71 % 1010,3 hPa 0,0 l/m 4,3 km/h (1 Bft) SO 130 0 min 0,000 mm 0,0 UV-I 0 W/m 12,8 C 18,1 C 6,4 km/h (2 Bft) 98,00 %
17.08.2016 20:48 17,9 C 72 % 1010,2 hPa 0,0 l/m 4,6 km/h (1 Bft) O-SO 117 0 min 0,000 mm 0,0 UV-I 0 W/m 12,8 C 17,9 C 6,4 km/h (2 Bft) 97,14 %
17.08.2016 20:50 17,8 C 71 % 1010,2 hPa 0,0 l/m 4,8 km/h (1 Bft) O-SO 116 0 min 0,000 mm 0,0 UV-I 0 W/m 12,5 C 17,8 C 9,7 km/h (2 Bft) 97,56 %
17.08.2016 20:52 17,9 C 71 % 1010,2 hPa 0,0 l/m 4,3 km/h (1 Bft) O-SO 111 0 min 0,000 mm 0,0 UV-I 0 W/m 12,6 C 17,9 C 4,8 km/h (1 Bft) 98,46 %
17.08.2016 20:54 17,9 C 70 % 1010,2 hPa 0,0 l/m 4,2 km/h (1 Bft) O-SO 111 0 min 0,000 mm 0,0 UV-I 0 W/m 12,3 C 17,9 C 8,0 km/h (2 Bft) 97,87 %
17.08.2016 20:56 18,0 C 70 % 1010,2 hPa 0,0 l/m 3,3 km/h (1 Bft) O-SO 112 0 min 0,000 mm 0,0 UV-I 0 W/m 12,4 C 18,0 C 6,4 km/h (2 Bft) 97,56 %
17.08.2016 20:58 18,0 C 70 % 1010,3 hPa 0,0 l/m 3,1 km/h (1 Bft) O-SO 112 0 min 0,000 mm 0,0 UV-I 0 W/m 12,4 C 18,0 C 6,4 km/h (2 Bft) 96,00 %
17.08.2016 21:00 18,0 C 70 % 1010,3 hPa 0,0 l/m 3,6 km/h (1 Bft) SO 127 0 min 0,026 mm 0,0 UV-I 0 W/m 12,4 C 18,0 C 4,8 km/h (1 Bft) 100,00 %
17.08.2016 21:02 18,0 C 70 % 1010,3 hPa 0,0 l/m 3,7 km/h (1 Bft) SO 127 0 min 0,000 mm 0,0 UV-I 0 W/m 12,4 C 18,0 C 6,4 km/h (2 Bft) 100,00 %
17.08.2016 21:04 18,0 C 71 % 1010,4 hPa 0,0 l/m 4,7 km/h (1 Bft) SO 126 0 min 0,000 mm 0,0 UV-I 0 W/m 12,7 C 18,0 C 8,0 km/h (2 Bft) 100,00 %
17.08.2016 21:06 17,9 C 71 % 1010,4 hPa 0,0 l/m 3,0 km/h (1 Bft) SO 126 0 min 0,000 mm 0,0 UV-I 0 W/m 12,6 C 17,9 C 4,8 km/h (1 Bft) 100,00 %
17.08.2016 21:08 17,8 C 72 % 1010,3 hPa 0,0 l/m 3,6 km/h (1 Bft) SO 126 0 min 0,000 mm 0,0 UV-I 0 W/m 12,7 C 17,8 C 4,8 km/h (1 Bft) 97,87 %
17.08.2016 21:10 17,8 C 72 % 1010,4 hPa 0,0 l/m 3,2 km/h (1 Bft) SO 126 0 min 0,000 mm 0,0 UV-I 0 W/m 12,7 C 17,8 C 4,8 km/h (1 Bft) 100,00 %
17.08.2016 21:12 17,7 C 72 % 1010,3 hPa 0,0 l/m 3,5 km/h (1 Bft) SO 126 0 min 0,000 mm 0,0 UV-I 0 W/m 12,6 C 17,7 C 4,8 km/h (1 Bft) 98,00 %
17.08.2016 21:14 17,7 C 72 % 1010,4 hPa 0,0 l/m 3,4 km/h (1 Bft) SO 126 0 min 0,000 mm 0,0 UV-I 0 W/m 12,6 C 17,7 C 6,4 km/h (2 Bft) 100,00 %
17.08.2016 21:16 17,6 C 74 % 1010,4 hPa 0,0 l/m 3,6 km/h (1 Bft) SO 125 0 min 0,000 mm 0,0 UV-I 0 W/m 12,9 C 17,6 C 6,4 km/h (2 Bft) 100,00 %
17.08.2016 21:18 17,5 C 74 % 1010,4 hPa 0,0 l/m 4,3 km/h (1 Bft) SO 125 0 min 0,000 mm 0,0 UV-I 0 W/m 12,8 C 17,5 C 6,4 km/h (2 Bft) 100,00 %
17.08.2016 21:20 17,5 C 74 % 1010,4 hPa 0,0 l/m 3,6 km/h (1 Bft) SO 126 0 min 0,000 mm 0,0 UV-I 0 W/m 12,8 C 17,5 C 6,4 km/h (2 Bft) 97,87 %
17.08.2016 21:22 17,4 C 74 % 1010,4 hPa 0,0 l/m 2,9 km/h (1 Bft) SO 127 0 min 0,000 mm 0,0 UV-I 0 W/m 12,7 C 17,4 C 4,8 km/h (1 Bft) 100,00 %
17.08.2016 21:24 17,4 C 74 % 1010,4 hPa 0,0 l/m 2,0 km/h (1 Bft) SO 127 0 min 0,000 mm 0,0 UV-I 0 W/m 12,7 C 17,4 C 4,8 km/h (1 Bft) 100,00 %
17.08.2016 21:26 17,4 C 73 % 1010,4 hPa 0,0 l/m 2,7 km/h (1 Bft) SO 127 0 min 0,000 mm 0,0 UV-I 0 W/m 12,5 C 17,4 C 3,2 km/h (1 Bft) 100,00 %
17.08.2016 21:28 17,4 C 74 % 1010,4 hPa 0,0 l/m 3,3 km/h (1 Bft) SO 127 0 min 0,000 mm 0,0 UV-I 0 W/m 12,7 C 17,4 C 4,8 km/h (1 Bft) 100,00 %
17.08.2016 21:30 17,3 C 74 % 1010,4 hPa 0,0 l/m 3,4 km/h (1 Bft) SO 127 0 min 0,000 mm 0,0 UV-I 0 W/m 12,6 C 17,3 C 6,4 km/h (2 Bft) 100,00 %
17.08.2016 21:32 17,3 C 74 % 1010,4 hPa 0,0 l/m 3,4 km/h (1 Bft) O-SO 121 0 min 0,000 mm 0,0 UV-I 0 W/m 12,6 C 17,3 C 4,8 km/h (1 Bft) 97,37 %
17.08.2016 21:34 17,3 C 74 % 1010,4 hPa 0,0 l/m 3,7 km/h (1 Bft) O-SO 121 0 min 0,000 mm 0,0 UV-I 0 W/m 12,6 C 17,3 C 6,4 km/h (2 Bft) 100,00 %
17.08.2016 21:36 17,3 C 74 % 1010,4 hPa 0,0 l/m 3,7 km/h (1 Bft) O-SO 111 0 min 0,000 mm 0,0 UV-I 0 W/m 12,6 C 17,3 C 6,4 km/h (2 Bft) 100,00 %
17.08.2016 21:38 17,3 C 74 % 1010,4 hPa 0,0 l/m 2,9 km/h (1 Bft) O-SO 111 0 min 0,000 mm 0,0 UV-I 0 W/m 12,6 C 17,3 C 4,8 km/h (1 Bft) 98,11 %
17.08.2016 21:40 17,4 C 74 % 1010,3 hPa 0,0 l/m 3,4 km/h (1 Bft) O-SO 111 0 min 0,000 mm 0,0 UV-I 0 W/m 12,7 C 17,4 C 4,8 km/h (1 Bft) 100,00 %
17.08.2016 21:42 17,4 C 74 % 1010,3 hPa 0,0 l/m 2,7 km/h (1 Bft) O-SO 111 0 min 0,000 mm 0,0 UV-I 0 W/m 12,7 C 17,4 C 4,8 km/h (1 Bft) 100,00 %
17.08.2016 21:44 17,4 C 74 % 1010,4 hPa 0,0 l/m 2,0 km/h (1 Bft) O-SO 111 0 min 0,000 mm 0,0 UV-I 0 W/m 12,7 C 17,4 C 3,2 km/h (1 Bft) 100,00 %
17.08.2016 21:46 17,3 C 75 % 1010,3 hPa 0,0 l/m 1,9 km/h (1 Bft) O-SO 111 0 min 0,000 mm 0,0 UV-I 0 W/m 12,8 C 17,3 C 4,8 km/h (1 Bft) 100,00 %
17.08.2016 21:48 17,1 C 76 % 1010,4 hPa 0,0 l/m 1,3 km/h (1 Bft) O-SO 111 0 min 0,000 mm 0,0 UV-I 0 W/m 12,8 C 17,1 C 4,8 km/h (1 Bft) 100,00 %
17.08.2016 21:50 16,9 C 77 % 1010,3 hPa 0,0 l/m 0,8 km/h (0 Bft) O-SO 111 0 min 0,000 mm 0,0 UV-I 0 W/m 12,8 C 16,9 C 1,6 km/h (1 Bft) 100,00 %
17.08.2016 21:52 16,7 C 78 % 1010,3 hPa 0,0 l/m 1,6 km/h (1 Bft) O-SO 111 0 min 0,000 mm 0,0 UV-I 0 W/m 12,8 C 16,7 C 3,2 km/h (1 Bft) 100,00 %
17.08.2016 21:54 16,6 C 79 % 1010,3 hPa 0,0 l/m 1,1 km/h (1 Bft) O-SO 111 0 min 0,000 mm 0,0 UV-I 0 W/m 12,9 C 16,6 C 3,2 km/h (1 Bft) 100,00 %
17.08.2016 21:56 16,4 C 79 % 1010,3 hPa 0,0 l/m 0,4 km/h (0 Bft) O-SO 111 0 min 0,000 mm 0,0 UV-I 0 W/m 12,7 C 16,4 C 1,6 km/h (1 Bft) 97,87 %
17.08.2016 21:58 16,4 C 80 % 1010,3 hPa 0,0 l/m 0,4 km/h (0 Bft) O-SO 111 0 min 0,000 mm 0,0 UV-I 0 W/m 12,9 C 16,4 C 3,2 km/h (1 Bft) 100,00 %
17.08.2016 22:00 16,3 C 81 % 1010,3 hPa 0,0 l/m 0,3 km/h (0 Bft) O-SO 111 0 min 0,000 mm 0,0 UV-I 0 W/m 13,0 C 16,3 C 3,2 km/h (1 Bft) 97,87 %
17.08.2016 22:02 16,2 C 81 % 1010,3 hPa 0,0 l/m 1,7 km/h (1 Bft) SO 137 0 min 0,025 mm 0,0 UV-I 0 W/m 12,9 C 16,2 C 4,8 km/h (1 Bft) 97,87 %
17.08.2016 22:04 16,2 C 82 % 1010,3 hPa 0,0 l/m 0,3 km/h (0 Bft) SO 137 0 min 0,000 mm 0,0 UV-I 0 W/m 13,1 C 16,2 C 1,6 km/h (1 Bft) 100,00 %
17.08.2016 22:06 16,2 C 82 % 1010,3 hPa 0,0 l/m 0,3 km/h (0 Bft) SO 137 0 min 0,000 mm 0,0 UV-I 0 W/m 13,1 C 16,2 C 1,6 km/h (1 Bft) 100,00 %
17.08.2016 22:08 16,1 C 82 % 1010,2 hPa 0,0 l/m 0,0 km/h (0 Bft) SO 137 0 min 0,000 mm 0,0 UV-I 0 W/m 13,0 C 16,1 C 1,6 km/h (1 Bft) 100,00 %
17.08.2016 22:10 16,1 C 82 % 1010,2 hPa 0,0 l/m 0,0 km/h (0 Bft) SO 137 0 min 0,000 mm 0,0 UV-I 0 W/m 13,0 C 16,1 C 0,0 km/h (0 Bft) 98,00 %
17.08.2016 22:12 16,0 C 82 % 1010,3 hPa 0,0 l/m 0,0 km/h (0 Bft) SO 137 0 min 0,000 mm 0,0 UV-I 0 W/m 12,9 C 16,0 C 0,0 km/h (0 Bft) 100,00 %
17.08.2016 22:14 15,9 C 82 % 1010,2 hPa 0,0 l/m 0,0 km/h (0 Bft) SO 137 0 min 0,000 mm 0,0 UV-I 0 W/m 12,8 C 15,9 C 0,0 km/h (0 Bft) 100,00 %
17.08.2016 22:16 15,9 C 83 % 1010,2 hPa 0,0 l/m 0,0 km/h (0 Bft) SO 137 0 min 0,000 mm 0,0 UV-I 0 W/m 13,0 C 15,9 C 0,0 km/h (0 Bft) 97,37 %
17.08.2016 22:18 15,9 C 83 % 1010,2 hPa 0,0 l/m 0,0 km/h (0 Bft) SO 137 0 min 0,000 mm 0,0 UV-I 0 W/m 13,0 C 15,9 C 0,0 km/h (0 Bft) 100,00 %
17.08.2016 22:20 15,9 C 83 % 1010,3 hPa 0,0 l/m 0,0 km/h (0 Bft) SO 137 0 min 0,000 mm 0,0 UV-I 0 W/m 13,0 C 15,9 C 0,0 km/h (0 Bft) 100,00 %
17.08.2016 22:22 15,9 C 83 % 1010,2 hPa 0,0 l/m 0,0 km/h (0 Bft) SO 137 0 min 0,000 mm 0,0 UV-I 0 W/m 13,0 C 15,9 C 0,0 km/h (0 Bft) 100,00 %
17.08.2016 22:24 15,9 C 83 % 1010,2 hPa 0,0 l/m 0,0 km/h (0 Bft) SO 137 0 min 0,000 mm 0,0 UV-I 0 W/m 13,0 C 15,9 C 0,0 km/h (0 Bft) 100,00 %
17.08.2016 22:26 15,9 C 83 % 1010,2 hPa 0,0 l/m 0,0 km/h (0 Bft) SO 137 0 min 0,000 mm 0,0 UV-I 0 W/m 13,0 C 15,9 C 0,0 km/h (0 Bft) 97,62 %
17.08.2016 22:28 15,8 C 83 % 1010,2 hPa 0,0 l/m 0,0 km/h (0 Bft) SO 137 0 min 0,000 mm 0,0 UV-I 0 W/m 12,9 C 15,8 C 1,6 km/h (1 Bft) 100,00 %
17.08.2016 22:30 15,7 C 83 % 1010,2 hPa 0,0 l/m 0,7 km/h (0 Bft) SO 137 0 min 0,000 mm 0,0 UV-I 0 W/m 12,8 C 15,7 C 1,6 km/h (1 Bft) 97,37 %
17.08.2016 22:32 15,7 C 83 % 1010,2 hPa 0,0 l/m 0,7 km/h (0 Bft) SO 137 0 min 0,000 mm 0,0 UV-I 0 W/m 12,8 C 15,7 C 1,6 km/h (1 Bft) 98,21 %
17.08.2016 22:34 15,6 C 84 % 1010,2 hPa 0,0 l/m 1,1 km/h (1 Bft) SO 137 0 min 0,000 mm 0,0 UV-I 0 W/m 12,9 C 15,6 C 3,2 km/h (1 Bft) 98,00 %
17.08.2016 22:36 15,6 C 84 % 1010,2 hPa 0,0 l/m 1,5 km/h (1 Bft) SO 137 0 min 0,000 mm 0,0 UV-I 0 W/m 12,9 C 15,6 C 3,2 km/h (1 Bft) 97,56 %
17.08.2016 22:38 15,6 C 84 % 1010,2 hPa 0,0 l/m 2,2 km/h (1 Bft) SO 137 0 min 0,000 mm 0,0 UV-I 0 W/m 12,9 C 15,6 C 3,2 km/h (1 Bft) 94,00 %
17.08.2016 22:40 15,4 C 84 % 1010,2 hPa 0,0 l/m 1,8 km/h (1 Bft) SO 137 0 min 0,000 mm 0,0 UV-I 0 W/m 12,7 C 15,4 C 3,2 km/h (1 Bft) 95,74 %
17.08.2016 22:42 15,4 C 84 % 1010,1 hPa 0,0 l/m 1,6 km/h (1 Bft) SO 137 0 min 0,000 mm 0,0 UV-I 0 W/m 12,7 C 15,4 C 3,2 km/h (1 Bft) 97,87 %
17.08.2016 22:44 15,4 C 84 % 1010,1 hPa 0,0 l/m 1,4 km/h (1 Bft) SO 137 0 min 0,000 mm 0,0 UV-I 0 W/m 12,7 C 15,4 C 3,2 km/h (1 Bft) 97,87 %
17.08.2016 22:46 15,4 C 84 % 1010,1 hPa 0,0 l/m 1,0 km/h (0 Bft) SO 137 0 min 0,000 mm 0,0 UV-I 0 W/m 12,7 C 15,4 C 1,6 km/h (1 Bft) 98,00 %
17.08.2016 22:48 15,4 C 84 % 1010,1 hPa 0,0 l/m 1,2 km/h (1 Bft) SO 137 0 min 0,000 mm 0,0 UV-I 0 W/m 12,7 C 15,4 C 1,6 km/h (1 Bft) 97,14 %
17.08.2016 22:50 15,3 C 84 % 1010,2 hPa 0,0 l/m 0,0 km/h (0 Bft) SO 137 0 min 0,000 mm 0,0 UV-I 0 W/m 12,6 C 15,3 C 0,0 km/h (0 Bft) 98,11 %
17.08.2016 22:52 15,3 C 84 % 1010,2 hPa 0,0 l/m 1,0 km/h (0 Bft) SO 137 0 min 0,000 mm 0,0 UV-I 0 W/m 12,6 C 15,3 C 3,2 km/h (1 Bft) 98,00 %
17.08.2016 22:54 15,2 C 85 % 1010,1 hPa 0,0 l/m 1,7 km/h (1 Bft) SO 137 0 min 0,000 mm 0,0 UV-I 0 W/m 12,7 C 15,2 C 3,2 km/h (1 Bft) 98,00 %
17.08.2016 22:56 15,2 C 85 % 1010,2 hPa 0,0 l/m 2,7 km/h (1 Bft) SO 137 0 min 0,000 mm 0,0 UV-I 0 W/m 12,7 C 15,2 C 3,2 km/h (1 Bft) 95,74 %
17.08.2016 22:58 15,1 C 85 % 1010,2 hPa 0,0 l/m 2,2 km/h (1 Bft) SO 137 0 min 0,000 mm 0,0 UV-I 0 W/m 12,6 C 15,1 C 3,2 km/h (1 Bft) 97,87 %
17.08.2016 23:00 15,1 C 85 % 1010,2 hPa 0,0 l/m 2,0 km/h (1 Bft) SO 137 0 min 0,000 mm 0,0 UV-I 0 W/m 12,6 C 15,1 C 3,2 km/h (1 Bft) 97,87 %
17.08.2016 23:02 15,0 C 86 % 1010,1 hPa 0,0 l/m 1,8 km/h (1 Bft) SO 137 0 min 0,000 mm 0,0 UV-I 0 W/m 12,7 C 15,0 C 3,2 km/h (1 Bft) 97,37 %
17.08.2016 23:04 14,9 C 86 % 1010,1 hPa 0,0 l/m 3,0 km/h (1 Bft) SO 137 0 min 0,000 mm 0,0 UV-I 0 W/m 12,6 C 14,9 C 4,8 km/h (1 Bft) 97,92 %
17.08.2016 23:06 14,9 C 86 % 1010,0 hPa 0,0 l/m 2,2 km/h (1 Bft) SO 137 0 min 0,000 mm 0,0 UV-I 0 W/m 12,6 C 14,9 C 3,2 km/h (1 Bft) 97,87 %
17.08.2016 23:08 14,9 C 86 % 1010,1 hPa 0,0 l/m 2,6 km/h (1 Bft) SO 137 0 min 0,000 mm 0,0 UV-I 0 W/m 12,6 C 14,9 C 3,2 km/h (1 Bft) 100,00 %
17.08.2016 23:10 14,9 C 86 % 1010,0 hPa 0,0 l/m 2,1 km/h (1 Bft) SO 137 0 min 0,000 mm 0,0 UV-I 0 W/m 12,6 C 14,9 C 4,8 km/h (1 Bft) 100,00 %
17.08.2016 23:12 14,9 C 86 % 1010,1 hPa 0,0 l/m 1,5 km/h (1 Bft) SO 137 0 min 0,000 mm 0,0 UV-I 0 W/m 12,6 C 14,9 C 3,2 km/h (1 Bft) 100,00 %
17.08.2016 23:14 15,0 C 86 % 1010,1 hPa 0,0 l/m 2,0 km/h (1 Bft) SO 137 0 min 0,000 mm 0,0 UV-I 0 W/m 12,7 C 15,0 C 3,2 km/h (1 Bft) 97,87 %
17.08.2016 23:16 15,1 C 86 % 1010,1 hPa 0,0 l/m 2,1 km/h (1 Bft) SO 137 0 min 0,000 mm 0,0 UV-I 0 W/m 12,8 C 15,1 C 3,2 km/h (1 Bft) 100,00 %
17.08.2016 23:18 15,1 C 86 % 1010,1 hPa 0,0 l/m 1,8 km/h (1 Bft) SO 137 0 min 0,000 mm 0,0 UV-I 0 W/m 12,8 C 15,1 C 3,2 km/h (1 Bft) 100,00 %
17.08.2016 23:20 15,1 C 85 % 1010,1 hPa 0,0 l/m 1,2 km/h (1 Bft) SO 137 0 min 0,000 mm 0,0 UV-I 0 W/m 12,6 C 15,1 C 3,2 km/h (1 Bft) 100,00 %
17.08.2016 23:22 15,1 C 86 % 1010,1 hPa 0,0 l/m 0,4 km/h (0 Bft) SO 137 0 min 0,000 mm 0,0 UV-I 0 W/m 12,8 C 15,1 C 1,6 km/h (1 Bft) 100,00 %
17.08.2016 23:24 14,8 C 86 % 1010,1 hPa 0,0 l/m 1,2 km/h (1 Bft) SO 137 0 min 0,000 mm 0,0 UV-I 0 W/m 12,5 C 14,8 C 3,2 km/h (1 Bft) 100,00 %
17.08.2016 23:26 14,5 C 87 % 1010,1 hPa 0,0 l/m 1,2 km/h (1 Bft) SO 137 0 min 0,000 mm 0,0 UV-I 0 W/m 12,4 C 14,5 C 3,2 km/h (1 Bft) 100,00 %
17.08.2016 23:28 14,1 C 88 % 1010,1 hPa 0,0 l/m 0,7 km/h (0 Bft) SO 137 0 min 0,000 mm 0,0 UV-I 0 W/m 12,1 C 14,1 C 1,6 km/h (1 Bft) 100,00 %
17.08.2016 23:30 13,9 C 89 % 1010,1 hPa 0,0 l/m 1,0 km/h (0 Bft) SO 136 0 min 0,000 mm 0,0 UV-I 0 W/m 12,1 C 13,9 C 1,6 km/h (1 Bft) 98,11 %
17.08.2016 23:32 13,8 C 90 % 1010,1 hPa 0,0 l/m 0,9 km/h (0 Bft) SO 135 0 min 0,000 mm 0,0 UV-I 0 W/m 12,2 C 13,8 C 3,2 km/h (1 Bft) 100,00 %
17.08.2016 23:34 13,9 C 91 % 1010,1 hPa 0,0 l/m 1,5 km/h (1 Bft) SO 135 0 min 0,000 mm 0,0 UV-I 0 W/m 12,5 C 13,9 C 3,2 km/h (1 Bft) 100,00 %
17.08.2016 23:36 14,1 C 91 % 1010,1 hPa 0,0 l/m 2,0 km/h (1 Bft) SO 135 0 min 0,000 mm 0,0 UV-I 0 W/m 12,7 C 14,1 C 3,2 km/h (1 Bft) 100,00 %
17.08.2016 23:38 14,4 C 89 % 1010,2 hPa 0,0 l/m 0,9 km/h (0 Bft) SO 135 0 min 0,000 mm 0,0 UV-I 0 W/m 12,6 C 14,4 C 3,2 km/h (1 Bft) 100,00 %
17.08.2016 23:40 14,7 C 89 % 1010,1 hPa 0,0 l/m 1,4 km/h (1 Bft) SO 135 0 min 0,000 mm 0,0 UV-I 0 W/m 12,9 C 14,7 C 3,2 km/h (1 Bft) 100,00 %
17.08.2016 23:42 14,7 C 88 % 1010,1 hPa 0,0 l/m 3,3 km/h (1 Bft) O 85 0 min 0,000 mm 0,0 UV-I 0 W/m 12,7 C 14,7 C 4,8 km/h (1 Bft) 100,00 %
17.08.2016 23:44 14,6 C 88 % 1010,1 hPa 0,0 l/m 2,6 km/h (1 Bft) O 85 0 min 0,000 mm 0,0 UV-I 0 W/m 12,6 C 14,6 C 4,8 km/h (1 Bft) 98,00 %
17.08.2016 23:46 14,7 C 88 % 1010,1 hPa 0,0 l/m 2,1 km/h (1 Bft) O 85 0 min 0,000 mm 0,0 UV-I 0 W/m 12,7 C 14,7 C 3,2 km/h (1 Bft) 97,62 %
17.08.2016 23:48 14,7 C 88 % 1010,1 hPa 0,0 l/m 1,3 km/h (1 Bft) O 85 0 min 0,000 mm 0,0 UV-I 0 W/m 12,7 C 14,7 C 3,2 km/h (1 Bft) 100,00 %
17.08.2016 23:50 14,8 C 88 % 1010,1 hPa 0,0 l/m 0,4 km/h (0 Bft) O 85 0 min 0,000 mm 0,0 UV-I 0 W/m 12,8 C 14,8 C 1,6 km/h (1 Bft) 100,00 %
17.08.2016 23:52 14,8 C 88 % 1010,1 hPa 0,0 l/m 0,0 km/h (0 Bft) O 85 0 min 0,000 mm 0,0 UV-I 0 W/m 12,8 C 14,8 C 0,0 km/h (0 Bft) 100,00 %
17.08.2016 23:54 14,9 C 87 % 1010,1 hPa 0,0 l/m 0,2 km/h (0 Bft) O 85 0 min 0,000 mm 0,0 UV-I 0 W/m 12,8 C 14,9 C 1,6 km/h (1 Bft) 100,00 %
17.08.2016 23:56 14,9 C 87 % 1010,2 hPa 0,0 l/m 0,3 km/h (0 Bft) O 85 0 min 0,000 mm 0,0 UV-I 0 W/m 12,8 C 14,9 C 3,2 km/h (1 Bft) 100,00 %
17.08.2016 23:58 15,0 C 87 % 1010,2 hPa 0,0 l/m 0,0 km/h (0 Bft) O 85 0 min 0,000 mm 0,0 UV-I 0 W/m 12,9 C 15,0 C 0,0 km/h (0 Bft) 100,00 %
_ Min-Zeit 23:32 14:46 18:16 - 00:38 - - - - - - 12:04 23:32 02:56 08:58
Minimum _ 13,8 C 46 % 1009,6 hPa - 0,0 km/h (0 Bft) - - - - - - 9,9 C 13,8 C 0,0 km/h (0 Bft) 91,30 %
_ Max-Zeit 16:06 06:14 11:22 00:00 11:42 - - 06:12 13:00 12:44 11:18 06:34 16:02 11:42 00:00
Maximum _ 23,6 C 91 % 1012,0 hPa 0,0 l/m 16,8 km/h
O-NO (3 Bft)
- - 2 min 0,508 mm 5,3 UV-I 856 W/m 14,2 C 23,4 C 24,1 km/h
NO (4 Bft)
100,00 %
Durchschnitt _ 18,6 C 69 % 1010,8 hPa #0,0 l/m 3,9 km/h (1 Bft) NO - #10:14 h #4,064 mm 3,1 UV-I 429 W/m 12,4 C 18,5 C 6,9 km/h (2 Bft) 98,78 %